Wetterdaten: Dienstag, 24.05.2016
Datum Zeit Temp. A. Feuchte A. Luftdruck Regen Wind Richtung Richtung Sonnenschein ET UV Solar Taupunkt Windchill Windben Empfang
24.05.2016 00:00 8,3 C 90 % 1010,5 hPa 0,0 l/m 12,5 km/h (3 Bft) W-SW 248 0 min 0,000 mm 0,0 UV-I 0 W/m 6,8 C 4,3 C 14,5 km/h (3 Bft) 95,65 %
24.05.2016 00:02 8,3 C 90 % 1010,4 hPa 0,0 l/m 11,6 km/h (2 Bft) W-SW 242 0 min 0,000 mm 0,0 UV-I 0 W/m 6,8 C 4,8 C 16,1 km/h (3 Bft) 97,67 %
24.05.2016 00:03 8,3 C 90 % 1010,4 hPa 0,0 l/m 12,4 km/h (3 Bft) W-SW 246 0 min 0,000 mm 0,0 UV-I 0 W/m 6,8 C 4,3 C 17,7 km/h (3 Bft) 93,33 %
24.05.2016 00:04 8,3 C 90 % 1010,4 hPa 0,0 l/m 9,2 km/h (2 Bft) W-SW 251 0 min 0,000 mm 0,0 UV-I 0 W/m 6,8 C 6,2 C 12,9 km/h (3 Bft) 100,00 %
24.05.2016 00:05 8,3 C 90 % 1010,4 hPa 0,0 l/m 11,6 km/h (2 Bft) W 270 0 min 0,000 mm 0,0 UV-I 0 W/m 6,8 C 4,8 C 14,5 km/h (3 Bft) 96,30 %
24.05.2016 00:06 8,3 C 90 % 1010,4 hPa 0,0 l/m 14,0 km/h (3 Bft) W-SW 240 0 min 0,000 mm 0,0 UV-I 0 W/m 6,8 C 3,5 C 16,1 km/h (3 Bft) 100,00 %
24.05.2016 00:07 8,3 C 90 % 1010,4 hPa 0,0 l/m 5,9 km/h (2 Bft) W-SW 258 0 min 0,000 mm 0,0 UV-I 0 W/m 6,8 C 8,3 C 12,9 km/h (3 Bft) 83,33 %
24.05.2016 00:08 8,3 C 90 % 1010,4 hPa 0,0 l/m 6,7 km/h (2 Bft) W 259 0 min 0,000 mm 0,0 UV-I 0 W/m 6,8 C 8,1 C 16,1 km/h (3 Bft) 100,00 %
24.05.2016 00:09 8,3 C 90 % 1010,4 hPa 0,0 l/m 9,3 km/h (2 Bft) W 263 0 min 0,000 mm 0,0 UV-I 0 W/m 6,8 C 6,2 C 12,9 km/h (3 Bft) 100,00 %
24.05.2016 00:10 8,3 C 90 % 1010,4 hPa 0,0 l/m 12,7 km/h (3 Bft) W-SW 252 0 min 0,000 mm 0,0 UV-I 0 W/m 6,8 C 4,2 C 17,7 km/h (3 Bft) 100,00 %
24.05.2016 00:11 8,3 C 91 % 1010,4 hPa 0,0 l/m 11,5 km/h (2 Bft) W-SW 254 0 min 0,000 mm 0,0 UV-I 0 W/m 6,9 C 4,8 C 16,1 km/h (3 Bft) 100,00 %
24.05.2016 00:12 8,3 C 90 % 1010,4 hPa 0,0 l/m 10,7 km/h (2 Bft) W-SW 247 0 min 0,000 mm 0,0 UV-I 0 W/m 6,8 C 5,3 C 16,1 km/h (3 Bft) 100,00 %
24.05.2016 00:13 8,3 C 90 % 1010,4 hPa 0,0 l/m 10,7 km/h (2 Bft) W-SW 253 0 min 0,000 mm 0,0 UV-I 0 W/m 6,8 C 5,3 C 16,1 km/h (3 Bft) 100,00 %
24.05.2016 00:14 8,3 C 90 % 1010,4 hPa 0,0 l/m 10,8 km/h (2 Bft) W-SW 240 0 min 0,000 mm 0,0 UV-I 0 W/m 6,8 C 5,2 C 14,5 km/h (3 Bft) 100,00 %
24.05.2016 00:15 8,3 C 91 % 1010,4 hPa 0,0 l/m 11,9 km/h (2 Bft) W 270 0 min 0,000 mm 0,0 UV-I 0 W/m 6,9 C 4,6 C 20,9 km/h (4 Bft) 100,00 %
24.05.2016 00:16 8,3 C 90 % 1010,4 hPa 0,0 l/m 14,2 km/h (3 Bft) SW 221 0 min 0,000 mm 0,0 UV-I 0 W/m 6,8 C 3,4 C 20,9 km/h (4 Bft) 96,30 %
24.05.2016 00:17 8,3 C 91 % 1010,4 hPa 0,0 l/m 16,1 km/h (3 Bft) W-SW 244 0 min 0,000 mm 0,0 UV-I 0 W/m 6,9 C 2,6 C 20,9 km/h (4 Bft) 90,91 %
24.05.2016 00:18 8,3 C 91 % 1010,4 hPa 0,0 l/m 10,1 km/h (2 Bft) W-SW 238 0 min 0,000 mm 0,0 UV-I 0 W/m 6,9 C 5,7 C 20,9 km/h (4 Bft) 96,67 %
24.05.2016 00:19 8,3 C 90 % 1010,4 hPa 0,0 l/m 10,2 km/h (2 Bft) W 277 0 min 0,000 mm 0,0 UV-I 0 W/m 6,8 C 5,6 C 16,1 km/h (3 Bft) 100,00 %
24.05.2016 00:20 8,3 C 90 % 1010,4 hPa 0,0 l/m 10,6 km/h (2 Bft) W 274 0 min 0,000 mm 0,0 UV-I 0 W/m 6,8 C 5,4 C 16,1 km/h (3 Bft) 100,00 %
24.05.2016 00:21 8,3 C 90 % 1010,4 hPa 0,0 l/m 12,8 km/h (3 Bft) W 268 0 min 0,000 mm 0,0 UV-I 0 W/m 6,8 C 4,1 C 17,7 km/h (3 Bft) 100,00 %
24.05.2016 00:22 8,3 C 90 % 1010,5 hPa 0,0 l/m 11,7 km/h (2 Bft) W-SW 250 0 min 0,000 mm 0,0 UV-I 0 W/m 6,8 C 4,7 C 17,7 km/h (3 Bft) 100,00 %
24.05.2016 00:23 8,3 C 90 % 1010,5 hPa 0,0 l/m 10,6 km/h (2 Bft) W 266 0 min 0,000 mm 0,0 UV-I 0 W/m 6,8 C 5,4 C 16,1 km/h (3 Bft) 100,00 %
24.05.2016 00:24 8,3 C 90 % 1010,5 hPa 0,0 l/m 10,3 km/h (2 Bft) W-SW 248 0 min 0,000 mm 0,0 UV-I 0 W/m 6,8 C 5,5 C 12,9 km/h (3 Bft) 100,00 %
24.05.2016 00:25 8,3 C 91 % 1010,4 hPa 0,0 l/m 10,4 km/h (2 Bft) W-SW 252 0 min 0,000 mm 0,0 UV-I 0 W/m 6,9 C 5,5 C 16,1 km/h (3 Bft) 100,00 %
24.05.2016 00:26 8,3 C 91 % 1010,4 hPa 0,0 l/m 12,2 km/h (2 Bft) W-SW 242 0 min 0,000 mm 0,0 UV-I 0 W/m 6,9 C 4,4 C 14,5 km/h (3 Bft) 100,00 %
24.05.2016 00:27 8,3 C 91 % 1010,5 hPa 0,0 l/m 10,4 km/h (2 Bft) W-SW 246 0 min 0,000 mm 0,0 UV-I 0 W/m 6,9 C 5,5 C 17,7 km/h (3 Bft) 100,00 %
24.05.2016 00:28 8,3 C 91 % 1010,5 hPa 0,0 l/m 12,5 km/h (3 Bft) W-SW 248 0 min 0,000 mm 0,0 UV-I 0 W/m 6,9 C 4,3 C 16,1 km/h (3 Bft) 100,00 %
24.05.2016 00:29 8,3 C 91 % 1010,5 hPa 0,0 l/m 11,7 km/h (2 Bft) W 259 0 min 0,000 mm 0,0 UV-I 0 W/m 6,9 C 4,7 C 14,5 km/h (3 Bft) 100,00 %
24.05.2016 00:30 8,3 C 91 % 1010,4 hPa 0,0 l/m 10,5 km/h (2 Bft) W-SW 254 0 min 0,000 mm 0,0 UV-I 0 W/m 6,9 C 5,4 C 16,1 km/h (3 Bft) 100,00 %
24.05.2016 00:31 8,3 C 91 % 1010,5 hPa 0,0 l/m 7,8 km/h (2 Bft) W-SW 249 0 min 0,000 mm 0,0 UV-I 0 W/m 6,9 C 7,2 C 11,3 km/h (2 Bft) 100,00 %
24.05.2016 00:32 8,3 C 91 % 1010,5 hPa 0,0 l/m 8,1 km/h (2 Bft) W-SW 248 0 min 0,000 mm 0,0 UV-I 0 W/m 6,9 C 7,0 C 14,5 km/h (3 Bft) 95,65 %
24.05.2016 00:33 8,3 C 91 % 1010,4 hPa 0,0 l/m 10,2 km/h (2 Bft) W-SW 254 0 min 0,000 mm 0,0 UV-I 0 W/m 6,9 C 5,6 C 17,7 km/h (3 Bft) 100,00 %
24.05.2016 00:34 8,3 C 91 % 1010,4 hPa 0,0 l/m 13,0 km/h (3 Bft) SW 236 0 min 0,000 mm 0,0 UV-I 0 W/m 6,9 C 4,0 C 16,1 km/h (3 Bft) 91,67 %
24.05.2016 00:35 8,3 C 91 % 1010,4 hPa 0,0 l/m 12,6 km/h (3 Bft) W-SW 249 0 min 0,000 mm 0,0 UV-I 0 W/m 6,9 C 4,2 C 17,7 km/h (3 Bft) 93,33 %
24.05.2016 00:36 8,3 C 91 % 1010,4 hPa 0,0 l/m 10,8 km/h (2 Bft) W 267 0 min 0,000 mm 0,0 UV-I 0 W/m 6,9 C 5,2 C 17,7 km/h (3 Bft) 100,00 %
24.05.2016 00:37 8,3 C 92 % 1010,4 hPa 0,0 l/m 7,0 km/h (2 Bft) W-SW 252 0 min 0,000 mm 0,0 UV-I 0 W/m 7,1 C 7,8 C 12,9 km/h (3 Bft) 100,00 %
24.05.2016 00:38 8,3 C 92 % 1010,4 hPa 0,0 l/m 8,9 km/h (2 Bft) W-SW 240 0 min 0,000 mm 0,0 UV-I 0 W/m 7,1 C 6,4 C 11,3 km/h (2 Bft) 100,00 %
24.05.2016 00:39 8,3 C 92 % 1010,4 hPa 0,0 l/m 8,3 km/h (2 Bft) W-SW 246 0 min 0,000 mm 0,0 UV-I 0 W/m 7,1 C 6,9 C 14,5 km/h (3 Bft) 100,00 %
24.05.2016 00:40 8,2 C 92 % 1010,4 hPa 0,0 l/m 9,1 km/h (2 Bft) W-SW 248 0 min 0,000 mm 0,0 UV-I 0 W/m 7,0 C 6,2 C 12,9 km/h (3 Bft) 100,00 %
24.05.2016 00:41 8,2 C 92 % 1010,4 hPa 0,0 l/m 9,1 km/h (2 Bft) S-SO 161 0 min 0,000 mm 0,0 UV-I 0 W/m 7,0 C 6,2 C 12,9 km/h (3 Bft) 100,00 %
24.05.2016 00:42 8,2 C 92 % 1010,5 hPa 0,0 l/m 6,0 km/h (2 Bft) SW 236 0 min 0,000 mm 0,0 UV-I 0 W/m 7,0 C 8,2 C 8,0 km/h (2 Bft) 100,00 %
24.05.2016 00:43 8,2 C 92 % 1010,5 hPa 0,2 l/m 5,6 km/h (1 Bft) SW 224 0 min 0,000 mm 0,0 UV-I 0 W/m 7,0 C 8,2 C 9,7 km/h (2 Bft) 100,00 %
24.05.2016 00:44 8,2 C 92 % 1010,5 hPa 0,0 l/m 6,6 km/h (2 Bft) W-SW 242 0 min 0,000 mm 0,0 UV-I 0 W/m 7,0 C 8,1 C 12,9 km/h (3 Bft) 92,31 %
24.05.2016 00:45 8,2 C 92 % 1010,5 hPa 0,0 l/m 9,8 km/h (2 Bft) W 261 0 min 0,000 mm 0,0 UV-I 0 W/m 7,0 C 5,7 C 14,5 km/h (3 Bft) 100,00 %
24.05.2016 00:46 8,2 C 92 % 1010,5 hPa 0,0 l/m 9,1 km/h (2 Bft) W-SW 244 0 min 0,000 mm 0,0 UV-I 0 W/m 7,0 C 6,2 C 12,9 km/h (3 Bft) 100,00 %
24.05.2016 00:47 8,2 C 92 % 1010,5 hPa 0,0 l/m 6,7 km/h (2 Bft) W-SW 257 0 min 0,000 mm 0,0 UV-I 0 W/m 7,0 C 8,0 C 11,3 km/h (2 Bft) 96,30 %
24.05.2016 00:48 8,2 C 92 % 1010,5 hPa 0,0 l/m 5,3 km/h (1 Bft) W-SW 252 0 min 0,000 mm 0,0 UV-I 0 W/m 7,0 C 8,2 C 9,7 km/h (2 Bft) 98,73 %
24.05.2016 00:49 8,2 C 92 % 1010,5 hPa 0,0 l/m 6,7 km/h (2 Bft) SW 236 0 min 0,000 mm 0,0 UV-I 0 W/m 7,0 C 8,0 C 9,7 km/h (2 Bft) 100,00 %
24.05.2016 00:50 8,2 C 92 % 1010,5 hPa 0,0 l/m 8,1 km/h (2 Bft) SW 223 0 min 0,000 mm 0,0 UV-I 0 W/m 7,0 C 6,9 C 12,9 km/h (3 Bft) 100,00 %
24.05.2016 00:51 8,2 C 92 % 1010,5 hPa 0,0 l/m 10,4 km/h (2 Bft) W 266 0 min 0,000 mm 0,0 UV-I 0 W/m 7,0 C 5,4 C 14,5 km/h (3 Bft) 94,44 %
24.05.2016 00:52 8,2 C 92 % 1010,5 hPa 0,0 l/m 11,0 km/h (2 Bft) SW 235 0 min 0,000 mm 0,0 UV-I 0 W/m 7,0 C 5,0 C 16,1 km/h (3 Bft) 100,00 %
24.05.2016 00:53 8,2 C 92 % 1010,5 hPa 0,0 l/m 5,4 km/h (1 Bft) W-SW 237 0 min 0,000 mm 0,0 UV-I 0 W/m 7,0 C 8,2 C 12,9 km/h (3 Bft) 100,00 %
24.05.2016 00:54 8,2 C 92 % 1010,5 hPa 0,0 l/m 10,1 km/h (2 Bft) W-SW 244 0 min 0,000 mm 0,0 UV-I 0 W/m 7,0 C 5,5 C 12,9 km/h (3 Bft) 100,00 %
24.05.2016 00:55 8,2 C 93 % 1010,6 hPa 0,0 l/m 5,4 km/h (1 Bft) SW 216 0 min 0,000 mm 0,0 UV-I 0 W/m 7,1 C 8,2 C 9,7 km/h (2 Bft) 100,00 %
24.05.2016 00:56 8,2 C 93 % 1010,6 hPa 0,2 l/m 4,9 km/h (1 Bft) W-SW 248 0 min 0,000 mm 0,0 UV-I 0 W/m 7,1 C 8,2 C 6,4 km/h (2 Bft) 100,00 %
24.05.2016 00:57 8,2 C 93 % 1010,6 hPa 0,0 l/m 8,0 km/h (2 Bft) W-SW 250 0 min 0,000 mm 0,0 UV-I 0 W/m 7,1 C 7,0 C 12,9 km/h (3 Bft) 100,00 %
24.05.2016 00:58 8,2 C 93 % 1010,6 hPa 0,0 l/m 7,7 km/h (2 Bft) W-SW 258 0 min 0,000 mm 0,0 UV-I 0 W/m 7,1 C 7,2 C 11,3 km/h (2 Bft) 96,30 %
24.05.2016 00:59 8,2 C 93 % 1010,6 hPa 0,0 l/m 7,1 km/h (2 Bft) SW 231 0 min 0,000 mm 0,0 UV-I 0 W/m 7,1 C 7,7 C 12,9 km/h (3 Bft) 100,00 %
24.05.2016 01:00 8,2 C 93 % 1010,6 hPa 0,0 l/m 4,6 km/h (1 Bft) W-SW 245 0 min 0,000 mm 0,0 UV-I 0 W/m 7,1 C 8,2 C 6,4 km/h (2 Bft) 100,00 %
24.05.2016 01:02 8,2 C 93 % 1010,6 hPa 0,0 l/m 7,3 km/h (2 Bft) W-SW 241 0 min 0,000 mm 0,0 UV-I 0 W/m 7,1 C 7,5 C 11,3 km/h (2 Bft) 100,00 %
24.05.2016 01:03 8,1 C 93 % 1010,6 hPa 0,0 l/m 7,3 km/h (2 Bft) SW 229 0 min 0,000 mm 0,0 UV-I 0 W/m 7,0 C 7,4 C 9,7 km/h (2 Bft) 96,15 %
24.05.2016 01:04 8,1 C 93 % 1010,6 hPa 0,0 l/m 8,8 km/h (2 Bft) SW 235 0 min 0,000 mm 0,0 UV-I 0 W/m 7,0 C 6,3 C 14,5 km/h (3 Bft) 100,00 %
24.05.2016 01:05 8,1 C 93 % 1010,6 hPa 0,0 l/m 4,9 km/h (1 Bft) SW 221 0 min 0,000 mm 0,0 UV-I 0 W/m 7,0 C 8,1 C 8,0 km/h (2 Bft) 100,00 %
24.05.2016 01:06 8,1 C 93 % 1010,6 hPa 0,0 l/m 8,0 km/h (2 Bft) W-SW 244 0 min 0,000 mm 0,0 UV-I 0 W/m 7,0 C 6,9 C 11,3 km/h (2 Bft) 100,00 %
24.05.2016 01:07 8,1 C 93 % 1010,6 hPa 0,0 l/m 8,3 km/h (2 Bft) SW 230 0 min 0,000 mm 0,0 UV-I 0 W/m 7,0 C 6,6 C 9,7 km/h (2 Bft) 100,00 %
24.05.2016 01:08 8,1 C 93 % 1010,6 hPa 0,0 l/m 8,9 km/h (2 Bft) SW 219 0 min 0,000 mm 0,0 UV-I 0 W/m 7,0 C 6,2 C 12,9 km/h (3 Bft) 100,00 %
24.05.2016 01:09 8,1 C 93 % 1010,5 hPa 0,0 l/m 7,4 km/h (2 Bft) W-SW 242 0 min 0,000 mm 0,0 UV-I 0 W/m 7,0 C 7,3 C 12,9 km/h (3 Bft) 100,00 %
24.05.2016 01:10 8,1 C 93 % 1010,6 hPa 0,0 l/m 9,3 km/h (2 Bft) SW 230 0 min 0,000 mm 0,0 UV-I 0 W/m 7,0 C 5,9 C 16,1 km/h (3 Bft) 100,00 %
24.05.2016 01:11 8,1 C 93 % 1010,6 hPa 0,2 l/m 6,2 km/h (2 Bft) W-SW 242 0 min 0,000 mm 0,0 UV-I 0 W/m 7,0 C 8,1 C 9,7 km/h (2 Bft) 91,67 %
24.05.2016 01:12 8,1 C 93 % 1010,5 hPa 0,0 l/m 4,6 km/h (1 Bft) W-SW 243 0 min 0,000 mm 0,0 UV-I 0 W/m 7,0 C 8,1 C 6,4 km/h (2 Bft) 100,00 %
24.05.2016 01:13 8,1 C 93 % 1010,5 hPa 0,0 l/m 7,8 km/h (2 Bft) W-SW 238 0 min 0,000 mm 0,0 UV-I 0 W/m 7,0 C 7,0 C 11,3 km/h (2 Bft) 100,00 %
24.05.2016 01:14 8,1 C 93 % 1010,5 hPa 0,0 l/m 8,3 km/h (2 Bft) W-SW 250 0 min 0,000 mm 0,0 UV-I 0 W/m 7,0 C 6,6 C 11,3 km/h (2 Bft) 100,00 %
24.05.2016 01:15 8,1 C 94 % 1010,5 hPa 0,2 l/m 9,7 km/h (2 Bft) SW 216 0 min 0,000 mm 0,0 UV-I 0 W/m 7,2 C 5,7 C 14,5 km/h (3 Bft) 100,00 %
24.05.2016 01:16 8,1 C 93 % 1010,5 hPa 0,0 l/m 7,9 km/h (2 Bft) W-SW 248 0 min 0,000 mm 0,0 UV-I 0 W/m 7,0 C 6,9 C 12,9 km/h (3 Bft) 100,00 %
24.05.2016 01:17 8,1 C 94 % 1010,5 hPa 0,2 l/m 8,0 km/h (2 Bft) SW 218 0 min 0,000 mm 0,0 UV-I 0 W/m 7,2 C 6,9 C 12,9 km/h (3 Bft) 100,00 %
24.05.2016 01:18 8,1 C 94 % 1010,4 hPa 0,0 l/m 7,6 km/h (2 Bft) SW 215 0 min 0,000 mm 0,0 UV-I 0 W/m 7,2 C 7,2 C 11,3 km/h (2 Bft) 100,00 %
24.05.2016 01:19 8,1 C 94 % 1010,4 hPa 0,2 l/m 6,8 km/h (2 Bft) W-SW 240 0 min 0,000 mm 0,0 UV-I 0 W/m 7,2 C 7,8 C 9,7 km/h (2 Bft) 99,01 %
24.05.2016 01:20 8,1 C 94 % 1010,5 hPa 0,0 l/m 5,2 km/h (1 Bft) SW 219 0 min 0,000 mm 0,0 UV-I 0 W/m 7,2 C 8,1 C 6,4 km/h (2 Bft) 100,00 %
24.05.2016 01:21 8,1 C 94 % 1010,5 hPa 0,0 l/m 7,6 km/h (2 Bft) SW 225 0 min 0,000 mm 0,0 UV-I 0 W/m 7,2 C 7,2 C 12,9 km/h (3 Bft) 100,00 %
24.05.2016 01:22 8,0 C 94 % 1010,4 hPa 0,0 l/m 10,9 km/h (2 Bft) W 278 0 min 0,000 mm 0,0 UV-I 0 W/m 7,1 C 4,8 C 17,7 km/h (3 Bft) 100,00 %
24.05.2016 01:23 8,1 C 94 % 1010,3 hPa 0,2 l/m 13,1 km/h (3 Bft) SW 227 0 min 0,000 mm 0,0 UV-I 0 W/m 7,2 C 3,7 C 16,1 km/h (3 Bft) 100,00 %
24.05.2016 01:24 8,0 C 94 % 1010,4 hPa 0,0 l/m 9,3 km/h (2 Bft) W-SW 247 0 min 0,000 mm 0,0 UV-I 0 W/m 7,1 C 5,8 C 12,9 km/h (3 Bft) 100,00 %
24.05.2016 01:25 8,0 C 94 % 1010,3 hPa 0,2 l/m 9,8 km/h (2 Bft) W-SW 258 0 min 0,000 mm 0,0 UV-I 0 W/m 7,1 C 5,5 C 14,5 km/h (3 Bft) 100,00 %
24.05.2016 01:26 8,0 C 94 % 1010,3 hPa 0,0 l/m 12,3 km/h (3 Bft) W-SW 256 0 min 0,000 mm 0,0 UV-I 0 W/m 7,1 C 4,0 C 16,1 km/h (3 Bft) 100,00 %
24.05.2016 01:27 8,0 C 94 % 1010,2 hPa 0,0 l/m 12,9 km/h (3 Bft) W-SW 252 0 min 0,000 mm 0,0 UV-I 0 W/m 7,1 C 3,7 C 17,7 km/h (3 Bft) 100,00 %
24.05.2016 01:28 7,9 C 94 % 1010,2 hPa 0,2 l/m 11,7 km/h (2 Bft) W-SW 247 0 min 0,000 mm 0,0 UV-I 0 W/m 7,0 C 4,3 C 16,1 km/h (3 Bft) 100,00 %
24.05.2016 01:29 8,0 C 94 % 1010,2 hPa 0,0 l/m 12,5 km/h (3 Bft) W 266 0 min 0,000 mm 0,0 UV-I 0 W/m 7,1 C 3,9 C 16,1 km/h (3 Bft) 100,00 %
24.05.2016 01:30 7,9 C 94 % 1010,1 hPa 0,2 l/m 12,2 km/h (2 Bft) W-SW 252 0 min 0,000 mm 0,0 UV-I 0 W/m 7,0 C 4,0 C 16,1 km/h (3 Bft) 100,00 %
24.05.2016 01:31 7,9 C 94 % 1010,1 hPa 0,0 l/m 11,8 km/h (2 Bft) W-SW 244 0 min 0,000 mm 0,0 UV-I 0 W/m 7,0 C 4,2 C 16,1 km/h (3 Bft) 92,31 %
24.05.2016 01:32 7,9 C 94 % 1010,1 hPa 0,0 l/m 12,6 km/h (3 Bft) W-SW 249 0 min 0,000 mm 0,0 UV-I 0 W/m 7,0 C 3,8 C 16,1 km/h (3 Bft) 100,00 %
24.05.2016 01:33 7,9 C 94 % 1010,1 hPa 0,2 l/m 13,8 km/h (3 Bft) W-SW 248 0 min 0,000 mm 0,0 UV-I 0 W/m 7,0 C 3,2 C 17,7 km/h (3 Bft) 100,00 %
24.05.2016 01:34 7,9 C 94 % 1010,1 hPa 0,2 l/m 15,4 km/h (3 Bft) W 274 0 min 0,000 mm 0,0 UV-I 0 W/m 7,0 C 2,4 C 17,7 km/h (3 Bft) 100,00 %
24.05.2016 01:35 7,9 C 94 % 1010,0 hPa 0,0 l/m 14,3 km/h (3 Bft) W 262 0 min 0,000 mm 0,0 UV-I 0 W/m 7,0 C 2,9 C 19,3 km/h (3 Bft) 100,00 %
24.05.2016 01:36 7,9 C 94 % 1009,9 hPa 0,0 l/m 15,6 km/h (3 Bft) W-SW 250 0 min 0,000 mm 0,0 UV-I 0 W/m 7,0 C 2,3 C 20,9 km/h (4 Bft) 100,00 %
24.05.2016 01:37 7,9 C 94 % 1009,9 hPa 0,2 l/m 9,8 km/h (2 Bft) SW 236 0 min 0,000 mm 0,0 UV-I 0 W/m 7,0 C 5,4 C 16,1 km/h (3 Bft) 95,65 %
24.05.2016 01:38 7,9 C 94 % 1009,9 hPa 0,0 l/m 12,3 km/h (3 Bft) SW 223 0 min 0,000 mm 0,0 UV-I 0 W/m 7,0 C 3,9 C 19,3 km/h (3 Bft) 95,83 %
24.05.2016 01:39 7,9 C 94 % 1009,8 hPa 0,2 l/m 11,9 km/h (2 Bft) SW 236 0 min 0,000 mm 0,0 UV-I 0 W/m 7,0 C 4,2 C 16,1 km/h (3 Bft) 100,00 %
24.05.2016 01:40 7,9 C 95 % 1009,8 hPa 0,2 l/m 11,3 km/h (2 Bft) W-SW 253 0 min 0,000 mm 0,0 UV-I 0 W/m 7,1 C 4,5 C 14,5 km/h (3 Bft) 95,83 %
24.05.2016 01:41 7,9 C 95 % 1009,8 hPa 0,0 l/m 9,7 km/h (2 Bft) W-SW 252 0 min 0,000 mm 0,0 UV-I 0 W/m 7,1 C 5,5 C 12,9 km/h (3 Bft) 95,65 %
24.05.2016 01:42 7,9 C 95 % 1009,8 hPa 0,2 l/m 15,3 km/h (3 Bft) W-SW 253 0 min 0,000 mm 0,0 UV-I 0 W/m 7,1 C 2,5 C 19,3 km/h (3 Bft) 91,67 %
24.05.2016 01:43 7,8 C 95 % 1009,7 hPa 0,0 l/m 11,2 km/h (2 Bft) W-SW 254 0 min 0,000 mm 0,0 UV-I 0 W/m 7,0 C 4,4 C 16,1 km/h (3 Bft) 97,56 %
24.05.2016 01:44 7,9 C 95 % 1009,8 hPa 0,0 l/m 11,3 km/h (2 Bft) W 269 0 min 0,000 mm 0,0 UV-I 0 W/m 7,1 C 4,5 C 14,5 km/h (3 Bft) 100,00 %
24.05.2016 01:45 7,9 C 95 % 1009,7 hPa 0,2 l/m 13,6 km/h (3 Bft) W-SW 244 0 min 0,000 mm 0,0 UV-I 0 W/m 7,1 C 3,3 C 19,3 km/h (3 Bft) 96,55 %
24.05.2016 01:46 7,9 C 95 % 1009,8 hPa 0,0 l/m 14,6 km/h (3 Bft) W 277 0 min 0,000 mm 0,0 UV-I 0 W/m 7,1 C 2,8 C 19,3 km/h (3 Bft) 100,00 %
24.05.2016 01:47 7,8 C 95 % 1009,8 hPa 0,2 l/m 15,1 km/h (3 Bft) SW 235 0 min 0,000 mm 0,0 UV-I 0 W/m 7,0 C 2,4 C 17,7 km/h (3 Bft) 100,00 %
24.05.2016 01:48 7,8 C 95 % 1009,8 hPa 0,2 l/m 13,2 km/h (3 Bft) W-SW 252 0 min 0,000 mm 0,0 UV-I 0 W/m 7,0 C 3,3 C 19,3 km/h (3 Bft) 85,71 %
24.05.2016 01:49 7,8 C 95 % 1009,8 hPa 0,0 l/m 11,3 km/h (2 Bft) SW 229 0 min 0,000 mm 0,0 UV-I 0 W/m 7,0 C 4,4 C 19,3 km/h (3 Bft) 95,24 %
24.05.2016 01:50 7,8 C 95 % 1009,8 hPa 0,2 l/m 16,0 km/h (3 Bft) W-SW 243 0 min 0,000 mm 0,0 UV-I 0 W/m 7,0 C 2,0 C 20,9 km/h (4 Bft) 100,00 %
24.05.2016 01:51 7,8 C 95 % 1009,8 hPa 0,0 l/m 11,9 km/h (2 Bft) W-SW 241 0 min 0,000 mm 0,0 UV-I 0 W/m 7,0 C 4,0 C 17,7 km/h (3 Bft) 95,83 %
24.05.2016 01:52 7,8 C 95 % 1009,8 hPa 0,2 l/m 10,9 km/h (2 Bft) SW 224 0 min 0,000 mm 0,0 UV-I 0 W/m 7,0 C 4,6 C 14,5 km/h (3 Bft) 100,00 %
24.05.2016 01:53 7,8 C 95 % 1009,9 hPa 0,0 l/m 11,5 km/h (2 Bft) SW 233 0 min 0,000 mm 0,0 UV-I 0 W/m 7,0 C 4,3 C 19,3 km/h (3 Bft) 95,83 %
24.05.2016 01:54 7,8 C 95 % 1009,9 hPa 0,2 l/m 8,4 km/h (2 Bft) SW 217 0 min 0,000 mm 0,0 UV-I 0 W/m 7,0 C 6,2 C 16,1 km/h (3 Bft) 92,31 %
24.05.2016 01:55 7,8 C 95 % 1009,9 hPa 0,0 l/m 10,6 km/h (2 Bft) SW 228 0 min 0,000 mm 0,0 UV-I 0 W/m 7,0 C 4,8 C 19,3 km/h (3 Bft) 100,00 %
24.05.2016 01:56 7,8 C 95 % 1009,9 hPa 0,0 l/m 16,3 km/h (3 Bft) S-SW 206 0 min 0,000 mm 0,0 UV-I 0 W/m 7,0 C 1,9 C 20,9 km/h (4 Bft) 94,12 %
24.05.2016 01:57 7,8 C 95 % 1009,9 hPa 0,2 l/m 18,3 km/h (3 Bft) SW 224 0 min 0,000 mm 0,0 UV-I 0 W/m 7,0 C 1,1 C 24,1 km/h (4 Bft) 100,00 %
24.05.2016 01:58 7,8 C 95 % 1010,0 hPa 0,2 l/m 15,5 km/h (3 Bft) S-SW 213 0 min 0,000 mm 0,0 UV-I 0 W/m 7,0 C 2,2 C 22,5 km/h (4 Bft) 95,65 %
24.05.2016 01:59 7,8 C 95 % 1009,9 hPa 0,0 l/m 13,2 km/h (3 Bft) SW 229 0 min 0,000 mm 0,0 UV-I 0 W/m 7,0 C 3,3 C 17,7 km/h (3 Bft) 96,30 %
24.05.2016 02:00 7,8 C 95 % 1009,9 hPa 0,0 l/m 14,1 km/h (3 Bft) W-SW 244 0 min 0,000 mm 0,0 UV-I 0 W/m 7,0 C 2,9 C 24,1 km/h (4 Bft) 94,12 %
24.05.2016 02:02 7,8 C 95 % 1010,0 hPa 0,2 l/m 15,1 km/h (3 Bft) W 266 0 min 0,000 mm 0,0 UV-I 0 W/m 7,0 C 2,4 C 27,4 km/h (4 Bft) 96,00 %
24.05.2016 02:03 7,8 C 95 % 1010,0 hPa 0,2 l/m 12,4 km/h (3 Bft) W-SW 251 0 min 0,000 mm 0,0 UV-I 0 W/m 7,0 C 3,8 C 17,7 km/h (3 Bft) 96,30 %
24.05.2016 02:04 7,8 C 95 % 1010,0 hPa 0,0 l/m 11,3 km/h (2 Bft) S-SW 205 0 min 0,000 mm 0,0 UV-I 0 W/m 7,0 C 4,4 C 19,3 km/h (3 Bft) 100,00 %
24.05.2016 02:05 7,8 C 95 % 1010,0 hPa 0,0 l/m 12,7 km/h (3 Bft) SW 236 0 min 0,000 mm 0,0 UV-I 0 W/m 7,0 C 3,6 C 19,3 km/h (3 Bft) 96,30 %
24.05.2016 02:06 7,8 C 95 % 1010,0 hPa 0,2 l/m 15,8 km/h (3 Bft) W-SW 245 0 min 0,000 mm 0,0 UV-I 0 W/m 7,0 C 2,1 C 20,9 km/h (4 Bft) 100,00 %
24.05.2016 02:07 7,8 C 95 % 1010,0 hPa 0,0 l/m 15,2 km/h (3 Bft) SW 217 0 min 0,000 mm 0,0 UV-I 0 W/m 7,0 C 2,4 C 22,5 km/h (4 Bft) 91,67 %
24.05.2016 02:08 7,8 C 95 % 1010,0 hPa 0,0 l/m 12,4 km/h (3 Bft) W-SW 242 0 min 0,000 mm 0,0 UV-I 0 W/m 7,0 C 3,8 C 20,9 km/h (4 Bft) 100,00 %
24.05.2016 02:09 7,8 C 95 % 1010,0 hPa 0,2 l/m 14,9 km/h (3 Bft) SW 220 0 min 0,000 mm 0,0 UV-I 0 W/m 7,0 C 2,5 C 20,9 km/h (4 Bft) 95,65 %
24.05.2016 02:10 7,8 C 95 % 1010,0 hPa 0,0 l/m 14,6 km/h (3 Bft) SW 229 0 min 0,000 mm 0,0 UV-I 0 W/m 7,0 C 2,7 C 22,5 km/h (4 Bft) 100,00 %
24.05.2016 02:11 7,8 C 95 % 1010,0 hPa 0,0 l/m 13,5 km/h (3 Bft) SW 218 0 min 0,000 mm 0,0 UV-I 0 W/m 7,0 C 3,2 C 20,9 km/h (4 Bft) 96,15 %
24.05.2016 02:12 7,8 C 95 % 1010,0 hPa 0,2 l/m 13,4 km/h (3 Bft) S 181 0 min 0,000 mm 0,0 UV-I 0 W/m 7,0 C 3,2 C 19,3 km/h (3 Bft) 100,00 %
24.05.2016 02:13 7,8 C 95 % 1010,1 hPa 0,0 l/m 9,0 km/h (2 Bft) S-SW 209 0 min 0,000 mm 0,0 UV-I 0 W/m 7,0 C 5,8 C 14,5 km/h (3 Bft) 95,12 %
24.05.2016 02:14 7,8 C 95 % 1010,1 hPa 0,0 l/m 9,0 km/h (2 Bft) SW 216 0 min 0,000 mm 0,0 UV-I 0 W/m 7,0 C 5,8 C 12,9 km/h (3 Bft) 100,00 %
24.05.2016 02:15 7,8 C 95 % 1010,1 hPa 0,0 l/m 11,3 km/h (2 Bft) S-SW 198 0 min 0,000 mm 0,0 UV-I 0 W/m 7,0 C 4,4 C 14,5 km/h (3 Bft) 100,00 %
24.05.2016 02:16 7,8 C 95 % 1010,1 hPa 0,2 l/m 12,0 km/h (2 Bft) SW 229 0 min 0,000 mm 0,0 UV-I 0 W/m 7,0 C 4,0 C 14,5 km/h (3 Bft) 97,62 %
24.05.2016 02:17 7,8 C 95 % 1010,1 hPa 0,0 l/m 9,4 km/h (2 Bft) SW 232 0 min 0,000 mm 0,0 UV-I 0 W/m 7,0 C 5,6 C 14,5 km/h (3 Bft) 100,00 %
24.05.2016 02:18 7,8 C 95 % 1010,1 hPa 0,0 l/m 9,8 km/h (2 Bft) W-SW 242 0 min 0,000 mm 0,0 UV-I 0 W/m 7,0 C 5,3 C 16,1 km/h (3 Bft) 100,00 %
24.05.2016 02:19 7,8 C 95 % 1010,1 hPa 0,0 l/m 12,4 km/h (3 Bft) W-SW 237 0 min 0,000 mm 0,0 UV-I 0 W/m 7,0 C 3,8 C 16,1 km/h (3 Bft) 100,00 %
24.05.2016 02:20 7,8 C 95 % 1010,1 hPa 0,0 l/m 6,7 km/h (2 Bft) W-SW 249 0 min 0,000 mm 0,0 UV-I 0 W/m 7,0 C 7,6 C 9,7 km/h (2 Bft) 100,00 %
24.05.2016 02:21 7,8 C 95 % 1010,1 hPa 0,0 l/m 7,0 km/h (2 Bft) W 261 0 min 0,000 mm 0,0 UV-I 0 W/m 7,0 C 7,3 C 9,7 km/h (2 Bft) 91,30 %
24.05.2016 02:22 7,8 C 95 % 1010,0 hPa 0,0 l/m 10,3 km/h (2 Bft) S-SW 206 0 min 0,000 mm 0,0 UV-I 0 W/m 7,0 C 5,0 C 14,5 km/h (3 Bft) 100,00 %
24.05.2016 02:23 7,8 C 95 % 1010,1 hPa 0,2 l/m 11,3 km/h (2 Bft) SW 236 0 min 0,000 mm 0,0 UV-I 0 W/m 7,0 C 4,4 C 19,3 km/h (3 Bft) 100,00 %
24.05.2016 02:24 7,8 C 95 % 1010,1 hPa 0,0 l/m 8,9 km/h (2 Bft) W-SW 244 0 min 0,000 mm 0,0 UV-I 0 W/m 7,0 C 5,9 C 11,3 km/h (2 Bft) 100,00 %
24.05.2016 02:25 7,8 C 95 % 1010,1 hPa 0,0 l/m 7,0 km/h (2 Bft) SW 234 0 min 0,000 mm 0,0 UV-I 0 W/m 7,0 C 7,3 C 12,9 km/h (3 Bft) 100,00 %
24.05.2016 02:26 7,8 C 95 % 1010,1 hPa 0,0 l/m 8,4 km/h (2 Bft) W-SW 240 0 min 0,000 mm 0,0 UV-I 0 W/m 7,0 C 6,2 C 11,3 km/h (2 Bft) 96,30 %
24.05.2016 02:27 7,8 C 95 % 1010,1 hPa 0,0 l/m 6,2 km/h (2 Bft) SW 229 0 min 0,000 mm 0,0 UV-I 0 W/m 7,0 C 7,8 C 8,0 km/h (2 Bft) 100,00 %
24.05.2016 02:28 7,8 C 95 % 1010,1 hPa 0,2 l/m 8,7 km/h (2 Bft) W-SW 244 0 min 0,000 mm 0,0 UV-I 0 W/m 7,0 C 6,0 C 14,5 km/h (3 Bft) 96,55 %
24.05.2016 02:29 7,8 C 95 % 1010,1 hPa 0,0 l/m 12,8 km/h (3 Bft) W-SW 242 0 min 0,000 mm 0,0 UV-I 0 W/m 7,0 C 3,6 C 17,7 km/h (3 Bft) 96,30 %
24.05.2016 02:30 7,8 C 95 % 1010,0 hPa 0,0 l/m 13,1 km/h (3 Bft) W-SW 240 0 min 0,000 mm 0,0 UV-I 0 W/m 7,0 C 3,4 C 19,3 km/h (3 Bft) 100,00 %
24.05.2016 02:31 7,8 C 95 % 1009,9 hPa 0,0 l/m 12,5 km/h (3 Bft) W-SW 238 0 min 0,000 mm 0,0 UV-I 0 W/m 7,0 C 3,7 C 14,5 km/h (3 Bft) 100,00 %
24.05.2016 02:32 7,8 C 95 % 1009,9 hPa 0,0 l/m 12,0 km/h (2 Bft) W-NW 293 0 min 0,000 mm 0,0 UV-I 0 W/m 7,0 C 4,0 C 17,7 km/h (3 Bft) 100,00 %
24.05.2016 02:33 7,8 C 95 % 1009,9 hPa 0,0 l/m 12,4 km/h (3 Bft) S-SW 211 0 min 0,000 mm 0,0 UV-I 0 W/m 7,0 C 3,8 C 17,7 km/h (3 Bft) 93,33 %
24.05.2016 02:34 7,8 C 95 % 1009,9 hPa 0,0 l/m 14,6 km/h (3 Bft) W-SW 257 0 min 0,000 mm 0,0 UV-I 0 W/m 7,0 C 2,7 C 17,7 km/h (3 Bft) 100,00 %
24.05.2016 02:35 7,8 C 95 % 1009,9 hPa 0,0 l/m 10,9 km/h (2 Bft) S-SW 212 0 min 0,000 mm 0,0 UV-I 0 W/m 7,0 C 4,6 C 17,7 km/h (3 Bft) 100,00 %
24.05.2016 02:36 7,8 C 95 % 1009,9 hPa 0,0 l/m 6,7 km/h (2 Bft) SW 226 0 min 0,000 mm 0,0 UV-I 0 W/m 7,0 C 7,6 C 11,3 km/h (2 Bft) 96,15 %
24.05.2016 02:37 7,8 C 95 % 1009,9 hPa 0,0 l/m 10,0 km/h (2 Bft) SW 218 0 min 0,000 mm 0,0 UV-I 0 W/m 7,0 C 5,2 C 19,3 km/h (3 Bft) 100,00 %
24.05.2016 02:38 7,8 C 95 % 1009,9 hPa 0,2 l/m 8,4 km/h (2 Bft) SW 229 0 min 0,000 mm 0,0 UV-I 0 W/m 7,0 C 6,2 C 12,9 km/h (3 Bft) 92,86 %
24.05.2016 02:39 7,8 C 95 % 1009,9 hPa 0,0 l/m 8,4 km/h (2 Bft) W-SW 248 0 min 0,000 mm 0,0 UV-I 0 W/m 7,0 C 6,2 C 12,9 km/h (3 Bft) 100,00 %
24.05.2016 02:40 7,8 C 95 % 1009,9 hPa 0,0 l/m 6,9 km/h (2 Bft) W-SW 243 0 min 0,000 mm 0,0 UV-I 0 W/m 7,0 C 7,4 C 9,7 km/h (2 Bft) 100,00 %
24.05.2016 02:41 7,8 C 95 % 1009,8 hPa 0,0 l/m 11,6 km/h (2 Bft) W-SW 246 0 min 0,000 mm 0,0 UV-I 0 W/m 7,0 C 4,2 C 14,5 km/h (3 Bft) 100,00 %
24.05.2016 02:42 7,8 C 95 % 1009,8 hPa 0,2 l/m 14,8 km/h (3 Bft) W-SW 246 0 min 0,000 mm 0,0 UV-I 0 W/m 7,0 C 2,6 C 17,7 km/h (3 Bft) 100,00 %
24.05.2016 02:43 7,8 C 95 % 1009,8 hPa 0,0 l/m 11,9 km/h (2 Bft) W-SW 240 0 min 0,000 mm 0,0 UV-I 0 W/m 7,0 C 4,0 C 16,1 km/h (3 Bft) 100,00 %
24.05.2016 02:44 7,8 C 95 % 1009,8 hPa 0,0 l/m 16,0 km/h (3 Bft) SW 236 0 min 0,000 mm 0,0 UV-I 0 W/m 7,0 C 2,0 C 20,9 km/h (4 Bft) 91,30 %
24.05.2016 02:45 7,8 C 95 % 1009,7 hPa 0,0 l/m 12,2 km/h (2 Bft) W-SW 242 0 min 0,000 mm 0,0 UV-I 0 W/m 7,0 C 3,9 C 16,1 km/h (3 Bft) 100,00 %
24.05.2016 02:46 7,8 C 95 % 1009,7 hPa 0,0 l/m 10,7 km/h (2 Bft) SW 234 0 min 0,000 mm 0,0 UV-I 0 W/m 7,0 C 4,7 C 14,5 km/h (3 Bft) 97,14 %
24.05.2016 02:47 7,8 C 95 % 1009,6 hPa 0,0 l/m 12,4 km/h (3 Bft) SW 227 0 min 0,000 mm 0,0 UV-I 0 W/m 7,0 C 3,8 C 16,1 km/h (3 Bft) 100,00 %
24.05.2016 02:48 7,8 C 95 % 1009,6 hPa 0,2 l/m 11,7 km/h (2 Bft) W 275 0 min 0,000 mm 0,0 UV-I 0 W/m 7,0 C 4,1 C 16,1 km/h (3 Bft) 100,00 %
24.05.2016 02:49 7,8 C 95 % 1009,6 hPa 0,0 l/m 12,7 km/h (3 Bft) W-SW 254 0 min 0,000 mm 0,0 UV-I 0 W/m 7,0 C 3,6 C 17,7 km/h (3 Bft) 100,00 %
24.05.2016 02:50 7,8 C 95 % 1009,6 hPa 0,0 l/m 10,9 km/h (2 Bft) W 265 0 min 0,000 mm 0,0 UV-I 0 W/m 7,0 C 4,6 C 17,7 km/h (3 Bft) 100,00 %
24.05.2016 02:51 7,8 C 95 % 1009,6 hPa 0,0 l/m 9,7 km/h (2 Bft) SW 223 0 min 0,000 mm 0,0 UV-I 0 W/m 7,0 C 5,4 C 16,1 km/h (3 Bft) 95,65 %
24.05.2016 02:52 7,8 C 95 % 1009,6 hPa 0,0 l/m 10,9 km/h (2 Bft) S-SW 205 0 min 0,000 mm 0,0 UV-I 0 W/m 7,0 C 4,6 C 17,7 km/h (3 Bft) 100,00 %
24.05.2016 02:53 7,8 C 95 % 1009,5 hPa 0,0 l/m 12,3 km/h (3 Bft) W-SW 258 0 min 0,000 mm 0,0 UV-I 0 W/m 7,0 C 3,8 C 16,1 km/h (3 Bft) 98,46 %
24.05.2016 02:54 7,8 C 95 % 1009,6 hPa 0,0 l/m 13,4 km/h (3 Bft) W 262 0 min 0,000 mm 0,0 UV-I 0 W/m 7,0 C 3,2 C 17,7 km/h (3 Bft) 100,00 %
24.05.2016 02:55 7,8 C 95 % 1009,5 hPa 0,0 l/m 11,6 km/h (2 Bft) W-SW 242 0 min 0,000 mm 0,0 UV-I 0 W/m 7,0 C 4,2 C 19,3 km/h (3 Bft) 100,00 %
24.05.2016 02:56 7,8 C 95 % 1009,5 hPa 0,0 l/m 13,6 km/h (3 Bft) W-SW 250 0 min 0,000 mm 0,0 UV-I 0 W/m 7,0 C 3,1 C 17,7 km/h (3 Bft) 100,00 %
24.05.2016 02:57 7,8 C 95 % 1009,5 hPa 0,2 l/m 11,9 km/h (2 Bft) W-SW 254 0 min 0,000 mm 0,0 UV-I 0 W/m 7,0 C 4,0 C 16,1 km/h (3 Bft) 100,00 %
24.05.2016 02:58 7,8 C 95 % 1009,5 hPa 0,0 l/m 11,5 km/h (2 Bft) W-SW 254 0 min 0,000 mm 0,0 UV-I 0 W/m 7,0 C 4,3 C 14,5 km/h (3 Bft) 100,00 %
24.05.2016 02:59 7,8 C 95 % 1009,5 hPa 0,0 l/m 12,5 km/h (3 Bft) W-SW 242 0 min 0,000 mm 0,0 UV-I 0 W/m 7,0 C 3,7 C 14,5 km/h (3 Bft) 100,00 %
24.05.2016 03:00 7,8 C 95 % 1009,5 hPa 0,0 l/m 13,3 km/h (3 Bft) W-SW 254 0 min 0,000 mm 0,0 UV-I 0 W/m 7,0 C 3,3 C 17,7 km/h (3 Bft) 100,00 %
24.05.2016 03:02 7,8 C 95 % 1009,6 hPa 0,0 l/m 15,4 km/h (3 Bft) W-NW 283 0 min 0,000 mm 0,0 UV-I 0 W/m 7,0 C 2,3 C 20,9 km/h (4 Bft) 100,00 %
24.05.2016 03:03 7,8 C 95 % 1009,5 hPa 0,0 l/m 11,7 km/h (2 Bft) W-SW 251 0 min 0,000 mm 0,0 UV-I 0 W/m 7,0 C 4,1 C 19,3 km/h (3 Bft) 100,00 %
24.05.2016 03:04 7,8 C 95 % 1009,5 hPa 0,0 l/m 11,9 km/h (2 Bft) W-SW 248 0 min 0,000 mm 0,0 UV-I 0 W/m 7,0 C 4,0 C 16,1 km/h (3 Bft) 100,00 %
24.05.2016 03:05 7,8 C 95 % 1009,5 hPa 0,0 l/m 13,9 km/h (3 Bft) W-SW 253 0 min 0,000 mm 0,0 UV-I 0 W/m 7,0 C 3,0 C 17,7 km/h (3 Bft) 100,00 %
24.05.2016 03:06 7,8 C 95 % 1009,5 hPa 0,0 l/m 14,4 km/h (3 Bft) W-SW 244 0 min 0,000 mm 0,0 UV-I 0 W/m 7,0 C 2,7 C 19,3 km/h (3 Bft) 96,55 %
24.05.2016 03:07 7,8 C 95 % 1009,5 hPa 0,0 l/m 13,5 km/h (3 Bft) W-SW 255 0 min 0,000 mm 0,0 UV-I 0 W/m 7,0 C 3,2 C 19,3 km/h (3 Bft) 100,00 %
24.05.2016 03:08 7,8 C 95 % 1009,5 hPa 0,0 l/m 10,9 km/h (2 Bft) W-SW 244 0 min 0,000 mm 0,0 UV-I 0 W/m 7,0 C 4,6 C 14,5 km/h (3 Bft) 100,00 %
24.05.2016 03:09 7,8 C 95 % 1009,4 hPa 0,0 l/m 14,6 km/h (3 Bft) W-SW 238 0 min 0,000 mm 0,0 UV-I 0 W/m 7,0 C 2,7 C 20,9 km/h (4 Bft) 100,00 %
24.05.2016 03:10 7,8 C 95 % 1009,5 hPa 0,0 l/m 14,3 km/h (3 Bft) S-SW 212 0 min 0,000 mm 0,0 UV-I 0 W/m 7,0 C 2,8 C 19,3 km/h (3 Bft) 100,00 %
24.05.2016 03:11 7,8 C 95 % 1009,5 hPa 0,0 l/m 10,2 km/h (2 Bft) W 277 0 min 0,000 mm 0,0 UV-I 0 W/m 7,0 C 5,0 C 14,5 km/h (3 Bft) 100,00 %
24.05.2016 03:12 7,8 C 95 % 1009,5 hPa 0,0 l/m 12,1 km/h (2 Bft) SW 230 0 min 0,000 mm 0,0 UV-I 0 W/m 7,0 C 3,9 C 20,9 km/h (4 Bft) 100,00 %
24.05.2016 03:13 7,8 C 95 % 1009,6 hPa 0,0 l/m 9,2 km/h (2 Bft) W-SW 249 0 min 0,000 mm 0,0 UV-I 0 W/m 7,0 C 5,7 C 12,9 km/h (3 Bft) 100,00 %
24.05.2016 03:14 7,8 C 95 % 1009,5 hPa 0,0 l/m 12,2 km/h (2 Bft) SW 236 0 min 0,000 mm 0,0 UV-I 0 W/m 7,0 C 3,9 C 14,5 km/h (3 Bft) 100,00 %
24.05.2016 03:15 7,8 C 95 % 1009,6 hPa 0,0 l/m 11,1 km/h (2 Bft) SW 232 0 min 0,000 mm 0,0 UV-I 0 W/m 7,0 C 4,5 C 14,5 km/h (3 Bft) 100,00 %
24.05.2016 03:16 7,8 C 95 % 1009,6 hPa 0,0 l/m 10,4 km/h (2 Bft) SW 231 0 min 0,000 mm 0,0 UV-I 0 W/m 7,0 C 4,9 C 12,9 km/h (3 Bft) 100,00 %
24.05.2016 03:17 7,8 C 95 % 1009,6 hPa 0,0 l/m 13,8 km/h (3 Bft) W-SW 243 0 min 0,000 mm 0,0 UV-I 0 W/m 7,0 C 3,0 C 17,7 km/h (3 Bft) 100,00 %
24.05.2016 03:18 7,8 C 95 % 1009,6 hPa 0,0 l/m 11,2 km/h (2 Bft) SW 221 0 min 0,000 mm 0,0 UV-I 0 W/m 7,0 C 4,4 C 16,1 km/h (3 Bft) 100,00 %
24.05.2016 03:19 7,8 C 95 % 1009,7 hPa 0,0 l/m 7,9 km/h (2 Bft) SW 236 0 min 0,000 mm 0,0 UV-I 0 W/m 7,0 C 6,6 C 11,3 km/h (2 Bft) 100,00 %
24.05.2016 03:20 7,8 C 95 % 1009,7 hPa 0,0 l/m 6,3 km/h (2 Bft) SW 236 0 min 0,000 mm 0,0 UV-I 0 W/m 7,0 C 7,8 C 9,7 km/h (2 Bft) 100,00 %
24.05.2016 03:21 7,8 C 95 % 1009,6 hPa 0,0 l/m 8,6 km/h (2 Bft) W-SW 241 0 min 0,000 mm 0,0 UV-I 0 W/m 7,0 C 6,1 C 12,9 km/h (3 Bft) 95,83 %
24.05.2016 03:22 7,8 C 95 % 1009,7 hPa 0,0 l/m 8,2 km/h (2 Bft) SW 219 0 min 0,000 mm 0,0 UV-I 0 W/m 7,0 C 6,4 C 12,9 km/h (3 Bft) 100,00 %
24.05.2016 03:23 7,8 C 95 % 1009,7 hPa 0,0 l/m 9,7 km/h (2 Bft) SW 236 0 min 0,000 mm 0,0 UV-I 0 W/m 7,0 C 5,4 C 16,1 km/h (3 Bft) 100,00 %
24.05.2016 03:24 7,8 C 95 % 1009,7 hPa 0,0 l/m 6,2 km/h (2 Bft) W-SW 246 0 min 0,000 mm 0,0 UV-I 0 W/m 7,0 C 7,8 C 11,3 km/h (2 Bft) 100,00 %
24.05.2016 03:25 7,8 C 95 % 1009,8 hPa 0,0 l/m 10,5 km/h (2 Bft) W-SW 244 0 min 0,000 mm 0,0 UV-I 0 W/m 7,0 C 4,9 C 14,5 km/h (3 Bft) 95,83 %
24.05.2016 03:26 7,8 C 95 % 1009,8 hPa 0,0 l/m 8,2 km/h (2 Bft) W-SW 244 0 min 0,000 mm 0,0 UV-I 0 W/m 7,0 C 6,4 C 9,7 km/h (2 Bft) 100,00 %
24.05.2016 03:27 7,9 C 95 % 1009,7 hPa 0,0 l/m 9,0 km/h (2 Bft) W-SW 238 0 min 0,000 mm 0,0 UV-I 0 W/m 7,1 C 5,9 C 12,9 km/h (3 Bft) 100,00 %
24.05.2016 03:28 7,9 C 95 % 1009,7 hPa 0,0 l/m 10,5 km/h (2 Bft) S-SW 212 0 min 0,000 mm 0,0 UV-I 0 W/m 7,1 C 5,0 C 12,9 km/h (3 Bft) 100,00 %
24.05.2016 03:29 7,9 C 95 % 1009,7 hPa 0,0 l/m 7,9 km/h (2 Bft) SW 234 0 min 0,000 mm 0,0 UV-I 0 W/m 7,1 C 6,7 C 11,3 km/h (2 Bft) 100,00 %
24.05.2016 03:30 7,9 C 95 % 1009,7 hPa 0,0 l/m 8,1 km/h (2 Bft) W-SW 242 0 min 0,000 mm 0,0 UV-I 0 W/m 7,1 C 6,6 C 11,3 km/h (2 Bft) 100,00 %
24.05.2016 03:31 7,9 C 95 % 1009,6 hPa 0,0 l/m 6,2 km/h (2 Bft) SW 236 0 min 0,000 mm 0,0 UV-I 0 W/m 7,1 C 7,9 C 8,0 km/h (2 Bft) 96,15 %
24.05.2016 03:32 7,9 C 95 % 1009,6 hPa 0,0 l/m 8,3 km/h (2 Bft) W-SW 239 0 min 0,000 mm 0,0 UV-I 0 W/m 7,1 C 6,4 C 11,3 km/h (2 Bft) 100,00 %
24.05.2016 03:33 7,9 C 95 % 1009,5 hPa 0,0 l/m 10,7 km/h (2 Bft) W-SW 254 0 min 0,000 mm 0,0 UV-I 0 W/m 7,1 C 4,8 C 16,1 km/h (3 Bft) 100,00 %
24.05.2016 03:34 7,9 C 95 % 1009,5 hPa 0,0 l/m 9,7 km/h (2 Bft) W-SW 253 0 min 0,000 mm 0,0 UV-I 0 W/m 7,1 C 5,5 C 12,9 km/h (3 Bft) 100,00 %
24.05.2016 03:35 7,9 C 95 % 1009,5 hPa 0,0 l/m 8,2 km/h (2 Bft) SW 223 0 min 0,000 mm 0,0 UV-I 0 W/m 7,1 C 6,5 C 11,3 km/h (2 Bft) 95,65 %
24.05.2016 03:36 7,9 C 95 % 1009,5 hPa 0,0 l/m 9,8 km/h (2 Bft) SW 229 0 min 0,000 mm 0,0 UV-I 0 W/m 7,1 C 5,4 C 14,5 km/h (3 Bft) 95,83 %
24.05.2016 03:37 7,9 C 95 % 1009,4 hPa 0,0 l/m 7,6 km/h (2 Bft) SW 228 0 min 0,000 mm 0,0 UV-I 0 W/m 7,1 C 7,0 C 11,3 km/h (2 Bft) 100,00 %
24.05.2016 03:38 7,8 C 95 % 1009,4 hPa 0,0 l/m 15,4 km/h (3 Bft) W 260 0 min 0,000 mm 0,0 UV-I 0 W/m 7,0 C 2,3 C 20,9 km/h (4 Bft) 100,00 %
24.05.2016 03:39 7,9 C 95 % 1009,4 hPa 0,0 l/m 10,8 km/h (2 Bft) W 281 0 min 0,000 mm 0,0 UV-I 0 W/m 7,1 C 4,8 C 14,5 km/h (3 Bft) 100,00 %
24.05.2016 03:40 7,9 C 95 % 1009,5 hPa 0,0 l/m 11,3 km/h (2 Bft) SW 224 0 min 0,000 mm 0,0 UV-I 0 W/m 7,1 C 4,5 C 17,7 km/h (3 Bft) 96,30 %
24.05.2016 03:41 7,8 C 95 % 1009,6 hPa 0,0 l/m 10,2 km/h (2 Bft) W 265 0 min 0,000 mm 0,0 UV-I 0 W/m 7,0 C 5,0 C 12,9 km/h (3 Bft) 100,00 %
24.05.2016 03:42 7,9 C 95 % 1009,6 hPa 0,0 l/m 8,3 km/h (2 Bft) W-SW 243 0 min 0,000 mm 0,0 UV-I 0 W/m 7,1 C 6,4 C 14,5 km/h (3 Bft) 96,15 %
24.05.2016 03:43 7,9 C 95 % 1009,6 hPa 0,0 l/m 10,7 km/h (2 Bft) SW 224 0 min 0,000 mm 0,0 UV-I 0 W/m 7,1 C 4,8 C 14,5 km/h (3 Bft) 100,00 %
24.05.2016 03:44 7,8 C 95 % 1009,6 hPa 0,0 l/m 12,8 km/h (3 Bft) SW 234 0 min 0,000 mm 0,0 UV-I 0 W/m 7,0 C 3,6 C 16,1 km/h (3 Bft) 96,55 %
24.05.2016 03:45 7,9 C 95 % 1009,7 hPa 0,0 l/m 9,7 km/h (2 Bft) S-SW 194 0 min 0,000 mm 0,0 UV-I 0 W/m 7,1 C 5,5 C 12,9 km/h (3 Bft) 100,00 %
24.05.2016 03:46 7,9 C 95 % 1009,7 hPa 0,0 l/m 12,9 km/h (3 Bft) W-SW 238 0 min 0,000 mm 0,0 UV-I 0 W/m 7,1 C 3,6 C 20,9 km/h (4 Bft) 92,86 %
24.05.2016 03:47 7,9 C 95 % 1009,7 hPa 0,0 l/m 14,2 km/h (3 Bft) SW 229 0 min 0,000 mm 0,0 UV-I 0 W/m 7,1 C 3,0 C 20,9 km/h (4 Bft) 97,56 %
24.05.2016 03:48 7,9 C 95 % 1009,6 hPa 0,0 l/m 9,7 km/h (2 Bft) W-SW 257 0 min 0,000 mm 0,0 UV-I 0 W/m 7,1 C 5,5 C 16,1 km/h (3 Bft) 100,00 %
24.05.2016 03:49 7,9 C 95 % 1009,6 hPa 0,0 l/m 10,1 km/h (2 Bft) SW 225 0 min 0,000 mm 0,0 UV-I 0 W/m 7,1 C 5,2 C 17,7 km/h (3 Bft) 95,65 %
24.05.2016 03:50 7,9 C 95 % 1009,6 hPa 0,0 l/m 10,2 km/h (2 Bft) SW 214 0 min 0,000 mm 0,0 UV-I 0 W/m 7,1 C 5,1 C 12,9 km/h (3 Bft) 100,00 %
24.05.2016 03:51 7,9 C 95 % 1009,6 hPa 0,0 l/m 10,7 km/h (2 Bft) W-SW 247 0 min 0,000 mm 0,0 UV-I 0 W/m 7,1 C 4,8 C 16,1 km/h (3 Bft) 95,83 %
24.05.2016 03:52 7,9 C 95 % 1009,5 hPa 0,0 l/m 9,4 km/h (2 Bft) SW 219 0 min 0,000 mm 0,0 UV-I 0 W/m 7,1 C 5,7 C 14,5 km/h (3 Bft) 100,00 %
24.05.2016 03:53 7,9 C 95 % 1009,4 hPa 0,0 l/m 10,1 km/h (2 Bft) W-SW 240 0 min 0,000 mm 0,0 UV-I 0 W/m 7,1 C 5,2 C 12,9 km/h (3 Bft) 91,67 %
24.05.2016 03:54 7,9 C 95 % 1009,4 hPa 0,0 l/m 10,8 km/h (2 Bft) W-SW 239 0 min 0,000 mm 0,0 UV-I 0 W/m 7,1 C 4,8 C 14,5 km/h (3 Bft) 100,00 %
24.05.2016 03:55 7,9 C 95 % 1009,4 hPa 0,0 l/m 11,3 km/h (2 Bft) W-SW 251 0 min 0,000 mm 0,0 UV-I 0 W/m 7,1 C 4,5 C 14,5 km/h (3 Bft) 96,30 %
24.05.2016 03:56 7,9 C 95 % 1009,3 hPa 0,0 l/m 13,7 km/h (3 Bft) W-SW 247 0 min 0,000 mm 0,0 UV-I 0 W/m 7,1 C 3,2 C 20,9 km/h (4 Bft) 96,15 %
24.05.2016 03:57 7,9 C 95 % 1009,3 hPa 0,0 l/m 11,5 km/h (2 Bft) W-SW 255 0 min 0,000 mm 0,0 UV-I 0 W/m 7,1 C 4,4 C 16,1 km/h (3 Bft) 100,00 %
24.05.2016 03:58 7,9 C 95 % 1009,2 hPa 0,0 l/m 13,6 km/h (3 Bft) W-SW 249 0 min 0,000 mm 0,0 UV-I 0 W/m 7,1 C 3,3 C 16,1 km/h (3 Bft) 95,65 %
24.05.2016 03:59 7,9 C 95 % 1009,2 hPa 0,0 l/m 10,8 km/h (2 Bft) W-SW 246 0 min 0,000 mm 0,0 UV-I 0 W/m 7,1 C 4,8 C 16,1 km/h (3 Bft) 100,00 %
24.05.2016 04:00 7,9 C 95 % 1009,2 hPa 0,0 l/m 11,1 km/h (2 Bft) W-SW 237 0 min 0,000 mm 0,0 UV-I 0 W/m 7,1 C 4,6 C 14,5 km/h (3 Bft) 94,12 %
24.05.2016 04:02 7,9 C 95 % 1009,2 hPa 0,0 l/m 11,5 km/h (2 Bft) W-SW 253 0 min 0,000 mm 0,0 UV-I 0 W/m 7,1 C 4,4 C 16,1 km/h (3 Bft) 100,00 %
24.05.2016 04:03 7,9 C 95 % 1009,2 hPa 0,0 l/m 15,8 km/h (3 Bft) W-SW 250 0 min 0,000 mm 0,0 UV-I 0 W/m 7,1 C 2,2 C 19,3 km/h (3 Bft) 96,30 %
24.05.2016 04:04 7,9 C 95 % 1009,2 hPa 0,0 l/m 14,2 km/h (3 Bft) W 269 0 min 0,000 mm 0,0 UV-I 0 W/m 7,1 C 3,0 C 17,7 km/h (3 Bft) 100,00 %
24.05.2016 04:05 7,9 C 95 % 1009,2 hPa 0,0 l/m 8,9 km/h (2 Bft) W-SW 241 0 min 0,000 mm 0,0 UV-I 0 W/m 7,1 C 6,0 C 14,5 km/h (3 Bft) 96,15 %
24.05.2016 04:06 7,9 C 95 % 1009,1 hPa 0,0 l/m 15,4 km/h (3 Bft) W 262 0 min 0,000 mm 0,0 UV-I 0 W/m 7,1 C 2,4 C 19,3 km/h (3 Bft) 92,59 %
24.05.2016 04:07 7,9 C 95 % 1009,1 hPa 0,0 l/m 10,1 km/h (2 Bft) W 261 0 min 0,000 mm 0,0 UV-I 0 W/m 7,1 C 5,2 C 14,5 km/h (3 Bft) 96,55 %
24.05.2016 04:08 7,9 C 95 % 1009,1 hPa 0,0 l/m 12,9 km/h (3 Bft) W 265 0 min 0,000 mm 0,0 UV-I 0 W/m 7,1 C 3,6 C 16,1 km/h (3 Bft) 95,65 %
24.05.2016 04:09 7,9 C 95 % 1009,1 hPa 0,0 l/m 15,3 km/h (3 Bft) W-NW 282 0 min 0,000 mm 0,0 UV-I 0 W/m 7,1 C 2,5 C 19,3 km/h (3 Bft) 95,83 %
24.05.2016 04:10 7,9 C 95 % 1009,1 hPa 0,0 l/m 13,9 km/h (3 Bft) W 264 0 min 0,000 mm 0,0 UV-I 0 W/m 7,1 C 3,1 C 17,7 km/h (3 Bft) 100,00 %
24.05.2016 04:11 7,9 C 95 % 1009,1 hPa 0,0 l/m 12,9 km/h (3 Bft) SW 221 0 min 0,000 mm 0,0 UV-I 0 W/m 7,1 C 3,6 C 16,1 km/h (3 Bft) 96,15 %
24.05.2016 04:12 7,9 C 95 % 1009,1 hPa 0,0 l/m 9,4 km/h (2 Bft) SW 222 0 min 0,000 mm 0,0 UV-I 0 W/m 7,1 C 5,7 C 14,5 km/h (3 Bft) 100,00 %
24.05.2016 04:13 7,9 C 95 % 1009,1 hPa 0,0 l/m 9,6 km/h (2 Bft) W-SW 243 0 min 0,000 mm 0,0 UV-I 0 W/m 7,1 C 5,5 C 16,1 km/h (3 Bft) 96,15 %
24.05.2016 04:14 7,9 C 95 % 1009,1 hPa 0,0 l/m 14,3 km/h (3 Bft) W 268 0 min 0,000 mm 0,0 UV-I 0 W/m 7,1 C 2,9 C 17,7 km/h (3 Bft) 100,00 %
24.05.2016 04:15 7,9 C 95 % 1009,1 hPa 0,0 l/m 10,4 km/h (2 Bft) W-SW 250 0 min 0,000 mm 0,0 UV-I 0 W/m 7,1 C 5,0 C 16,1 km/h (3 Bft) 96,55 %
24.05.2016 04:16 7,9 C 95 % 1009,0 hPa 0,0 l/m 13,0 km/h (3 Bft) SW 232 0 min 0,000 mm 0,0 UV-I 0 W/m 7,1 C 3,6 C 17,7 km/h (3 Bft) 97,06 %
24.05.2016 04:17 7,9 C 95 % 1009,0 hPa 0,0 l/m 12,4 km/h (3 Bft) W 265 0 min 0,000 mm 0,0 UV-I 0 W/m 7,1 C 3,9 C 19,3 km/h (3 Bft) 100,00 %
24.05.2016 04:18 7,9 C 95 % 1009,0 hPa 0,0 l/m 12,2 km/h (2 Bft) W-SW 257 0 min 0,000 mm 0,0 UV-I 0 W/m 7,1 C 4,0 C 16,1 km/h (3 Bft) 97,37 %
24.05.2016 04:19 7,9 C 95 % 1009,1 hPa 0,0 l/m 12,2 km/h (2 Bft) SW 236 0 min 0,000 mm 0,0 UV-I 0 W/m 7,1 C 4,0 C 17,7 km/h (3 Bft) 96,15 %
24.05.2016 04:20 7,9 C 95 % 1009,1 hPa 0,0 l/m 9,1 km/h (2 Bft) W 268 0 min 0,000 mm 0,0 UV-I 0 W/m 7,1 C 5,9 C 14,5 km/h (3 Bft) 95,83 %
24.05.2016 04:21 7,9 C 95 % 1009,1 hPa 0,0 l/m 10,6 km/h (2 Bft) W-SW 239 0 min 0,000 mm 0,0 UV-I 0 W/m 7,1 C 4,9 C 16,1 km/h (3 Bft) 91,30 %
24.05.2016 04:22 7,9 C 95 % 1009,1 hPa 0,0 l/m 9,8 km/h (2 Bft) W 262 0 min 0,000 mm 0,0 UV-I 0 W/m 7,1 C 5,4 C 12,9 km/h (3 Bft) 100,00 %
24.05.2016 04:23 7,9 C 95 % 1009,1 hPa 0,0 l/m 12,4 km/h (3 Bft) SW 227 0 min 0,000 mm 0,0 UV-I 0 W/m 7,1 C 3,9 C 16,1 km/h (3 Bft) 100,00 %
24.05.2016 04:24 7,9 C 95 % 1009,1 hPa 0,0 l/m 7,2 km/h (2 Bft) W-SW 246 0 min 0,000 mm 0,0 UV-I 0 W/m 7,1 C 7,3 C 12,9 km/h (3 Bft) 100,00 %
24.05.2016 04:25 7,9 C 95 % 1009,1 hPa 0,0 l/m 10,1 km/h (2 Bft) SW 233 0 min 0,000 mm 0,0 UV-I 0 W/m 7,1 C 5,2 C 12,9 km/h (3 Bft) 100,00 %
24.05.2016 04:26 7,9 C 95 % 1009,1 hPa 0,0 l/m 8,3 km/h (2 Bft) SW 227 0 min 0,000 mm 0,0 UV-I 0 W/m 7,1 C 6,4 C 14,5 km/h (3 Bft) 100,00 %
24.05.2016 04:27 7,9 C 95 % 1009,1 hPa 0,0 l/m 7,9 km/h (2 Bft) W 261 0 min 0,000 mm 0,0 UV-I 0 W/m 7,1 C 6,7 C 11,3 km/h (2 Bft) 96,30 %
24.05.2016 04:28 7,9 C 95 % 1009,1 hPa 0,0 l/m 6,4 km/h (2 Bft) W-SW 242 0 min 0,000 mm 0,0 UV-I 0 W/m 7,1 C 7,9 C 9,7 km/h (2 Bft) 100,00 %
24.05.2016 04:29 7,9 C 95 % 1009,1 hPa 0,0 l/m 9,8 km/h (2 Bft) W-NW 284 0 min 0,000 mm 0,0 UV-I 0 W/m 7,1 C 5,4 C 12,9 km/h (3 Bft) 100,00 %
24.05.2016 04:30 7,9 C 95 % 1009,1 hPa 0,2 l/m 10,1 km/h (2 Bft) W-NW 298 0 min 0,000 mm 0,0 UV-I 0 W/m 7,1 C 5,2 C 14,5 km/h (3 Bft) 100,00 %
24.05.2016 04:31 7,9 C 95 % 1009,0 hPa 0,0 l/m 8,8 km/h (2 Bft) W-SW 256 0 min 0,000 mm 0,0 UV-I 0 W/m 7,1 C 6,1 C 14,5 km/h (3 Bft) 100,00 %
24.05.2016 04:32 7,9 C 95 % 1009,1 hPa 0,0 l/m 12,4 km/h (3 Bft) SW 223 0 min 0,000 mm 0,0 UV-I 0 W/m 7,1 C 3,9 C 19,3 km/h (3 Bft) 100,00 %
24.05.2016 04:33 7,9 C 95 % 1009,1 hPa 0,0 l/m 8,9 km/h (2 Bft) W 263 0 min 0,000 mm 0,0 UV-I 0 W/m 7,1 C 6,0 C 12,9 km/h (3 Bft) 100,00 %
24.05.2016 04:34 7,9 C 95 % 1009,0 hPa 0,0 l/m 14,3 km/h (3 Bft) W-SW 257 0 min 0,000 mm 0,0 UV-I 0 W/m 7,1 C 2,9 C 19,3 km/h (3 Bft) 100,00 %
24.05.2016 04:35 7,9 C 95 % 1009,0 hPa 0,0 l/m 15,4 km/h (3 Bft) W 261 0 min 0,000 mm 0,0 UV-I 0 W/m 7,1 C 2,4 C 17,7 km/h (3 Bft) 100,00 %
24.05.2016 04:36 7,9 C 95 % 1009,0 hPa 0,0 l/m 12,0 km/h (2 Bft) SW 232 0 min 0,000 mm 0,0 UV-I 0 W/m 7,1 C 4,1 C 19,3 km/h (3 Bft) 95,65 %
24.05.2016 04:37 7,9 C 95 % 1009,0 hPa 0,0 l/m 10,3 km/h (2 Bft) W 264 0 min 0,000 mm 0,0 UV-I 0 W/m 7,1 C 5,1 C 16,1 km/h (3 Bft) 100,00 %
24.05.2016 04:38 7,9 C 95 % 1009,0 hPa 0,0 l/m 8,8 km/h (2 Bft) W-SW 257 0 min 0,000 mm 0,0 UV-I 0 W/m 7,1 C 6,1 C 14,5 km/h (3 Bft) 100,00 %
24.05.2016 04:39 7,9 C 95 % 1009,0 hPa 0,0 l/m 10,9 km/h (2 Bft) W-SW 252 0 min 0,000 mm 0,0 UV-I 0 W/m 7,1 C 4,7 C 14,5 km/h (3 Bft) 100,00 %
24.05.2016 04:40 7,9 C 95 % 1009,0 hPa 0,0 l/m 11,3 km/h (2 Bft) W-SW 244 0 min 0,000 mm 0,0 UV-I 0 W/m 7,1 C 4,5 C 19,3 km/h (3 Bft) 100,00 %
24.05.2016 04:41 7,9 C 95 % 1009,0 hPa 0,0 l/m 12,0 km/h (2 Bft) W-SW 243 0 min 0,000 mm 0,0 UV-I 0 W/m 7,1 C 4,1 C 16,1 km/h (3 Bft) 100,00 %
24.05.2016 04:42 7,9 C 95 % 1008,9 hPa 0,0 l/m 9,7 km/h (2 Bft) W-SW 248 0 min 0,000 mm 0,0 UV-I 0 W/m 7,1 C 5,5 C 14,5 km/h (3 Bft) 100,00 %
24.05.2016 04:43 7,9 C 95 % 1008,9 hPa 0,0 l/m 9,6 km/h (2 Bft) W 262 0 min 0,000 mm 0,0 UV-I 0 W/m 7,1 C 5,5 C 12,9 km/h (3 Bft) 100,00 %
24.05.2016 04:44 7,9 C 95 % 1008,9 hPa 0,0 l/m 9,7 km/h (2 Bft) W-SW 242 0 min 0,000 mm 0,0 UV-I 0 W/m 7,1 C 5,5 C 14,5 km/h (3 Bft) 100,00 %
24.05.2016 04:45 7,9 C 95 % 1008,9 hPa 0,2 l/m 15,1 km/h (3 Bft) W-SW 257 0 min 0,000 mm 0,0 UV-I 0 W/m 7,1 C 2,5 C 19,3 km/h (3 Bft) 100,00 %
24.05.2016 04:46 7,9 C 95 % 1008,9 hPa 0,0 l/m 13,6 km/h (3 Bft) W-SW 239 0 min 0,000 mm 0,0 UV-I 0 W/m 7,1 C 3,3 C 17,7 km/h (3 Bft) 96,30 %
24.05.2016 04:47 7,9 C 95 % 1008,9 hPa 0,0 l/m 11,9 km/h (2 Bft) W-SW 257 0 min 0,000 mm 0,0 UV-I 0 W/m 7,1 C 4,2 C 14,5 km/h (3 Bft) 100,00 %
24.05.2016 04:48 7,9 C 95 % 1008,9 hPa 0,0 l/m 12,1 km/h (2 Bft) W-SW 255 0 min 0,000 mm 0,0 UV-I 0 W/m 7,1 C 4,0 C 16,1 km/h (3 Bft) 100,00 %
24.05.2016 04:49 7,9 C 95 % 1008,9 hPa 0,0 l/m 13,9 km/h (3 Bft) W 260 0 min 0,000 mm 0,0 UV-I 0 W/m 7,1 C 3,1 C 16,1 km/h (3 Bft) 100,00 %
24.05.2016 04:50 7,9 C 95 % 1008,9 hPa 0,0 l/m 10,1 km/h (2 Bft) W-SW 253 0 min 0,000 mm 0,0 UV-I 0 W/m 7,1 C 5,2 C 16,1 km/h (3 Bft) 100,00 %
24.05.2016 04:51 7,9 C 95 % 1008,9 hPa 0,0 l/m 10,9 km/h (2 Bft) W-SW 255 0 min 0,000 mm 0,0 UV-I 0 W/m 7,1 C 4,7 C 14,5 km/h (3 Bft) 100,00 %
24.05.2016 04:52 7,9 C 95 % 1008,9 hPa 0,0 l/m 9,2 km/h (2 Bft) W 265 0 min 0,000 mm 0,0 UV-I 0 W/m 7,1 C 5,8 C 16,1 km/h (3 Bft) 95,83 %
24.05.2016 04:53 7,9 C 95 % 1008,9 hPa 0,0 l/m 10,7 km/h (2 Bft) W 269 0 min 0,000 mm 0,0 UV-I 0 W/m 7,1 C 4,8 C 16,1 km/h (3 Bft) 100,00 %
24.05.2016 04:54 7,9 C 95 % 1009,0 hPa 0,0 l/m 12,9 km/h (3 Bft) W-SW 240 0 min 0,000 mm 0,0 UV-I 0 W/m 7,1 C 3,6 C 20,9 km/h (4 Bft) 95,83 %
24.05.2016 04:55 7,9 C 95 % 1009,0 hPa 0,0 l/m 10,4 km/h (2 Bft) W-SW 238 0 min 0,000 mm 0,0 UV-I 0 W/m 7,1 C 5,0 C 17,7 km/h (3 Bft) 100,00 %
24.05.2016 04:56 7,9 C 95 % 1009,0 hPa 0,0 l/m 8,9 km/h (2 Bft) SW 234 0 min 0,000 mm 0,0 UV-I 0 W/m 7,1 C 6,0 C 16,1 km/h (3 Bft) 100,00 %
24.05.2016 04:57 7,9 C 95 % 1009,0 hPa 0,0 l/m 11,5 km/h (2 Bft) W-SW 241 0 min 0,000 mm 0,0 UV-I 0 W/m 7,1 C 4,4 C 16,1 km/h (3 Bft) 100,00 %
24.05.2016 04:58 7,9 C 95 % 1009,0 hPa 0,0 l/m 9,8 km/h (2 Bft) SW 230 0 min 0,000 mm 0,0 UV-I 0 W/m 7,1 C 5,4 C 12,9 km/h (3 Bft) 100,00 %
24.05.2016 04:59 7,9 C 95 % 1009,0 hPa 0,0 l/m 7,2 km/h (2 Bft) SW 227 0 min 0,000 mm 0,0 UV-I 0 W/m 7,1 C 7,3 C 11,3 km/h (2 Bft) 100,00 %
24.05.2016 05:00 7,9 C 95 % 1009,0 hPa 0,0 l/m 7,7 km/h (2 Bft) W 264 0 min 0,000 mm 0,0 UV-I 0 W/m 7,1 C 6,9 C 11,3 km/h (2 Bft) 100,00 %
24.05.2016 05:02 7,9 C 95 % 1009,1 hPa 0,0 l/m 9,7 km/h (2 Bft) W 260 0 min 0,000 mm 0,0 UV-I 0 W/m 7,1 C 5,5 C 14,5 km/h (3 Bft) 98,11 %
24.05.2016 05:03 7,9 C 95 % 1009,1 hPa 0,0 l/m 7,2 km/h (2 Bft) W-SW 255 0 min 0,000 mm 0,0 UV-I 0 W/m 7,1 C 7,3 C 14,5 km/h (3 Bft) 95,65 %
24.05.2016 05:04 7,9 C 95 % 1009,1 hPa 0,0 l/m 6,8 km/h (2 Bft) W-SW 249 0 min 0,000 mm 0,0 UV-I 0 W/m 7,1 C 7,6 C 12,9 km/h (3 Bft) 100,00 %
24.05.2016 05:05 7,9 C 95 % 1009,1 hPa 0,2 l/m 6,1 km/h (2 Bft) S-SW 212 0 min 0,000 mm 0,0 UV-I 0 W/m 7,1 C 7,9 C 9,7 km/h (2 Bft) 91,67 %
24.05.2016 05:06 7,9 C 95 % 1009,1 hPa 0,0 l/m 7,4 km/h (2 Bft) SW 229 0 min 0,000 mm 0,0 UV-I 0 W/m 7,1 C 7,1 C 11,3 km/h (2 Bft) 100,00 %
24.05.2016 05:07 7,9 C 95 % 1009,2 hPa 0,0 l/m 8,9 km/h (2 Bft) SW 225 0 min 0,000 mm 0,0 UV-I 0 W/m 7,1 C 6,0 C 12,9 km/h (3 Bft) 100,00 %
24.05.2016 05:08 7,9 C 95 % 1009,2 hPa 0,0 l/m 10,2 km/h (2 Bft) SW 229 0 min 0,000 mm 0,0 UV-I 0 W/m 7,1 C 5,1 C 12,9 km/h (3 Bft) 100,00 %
24.05.2016 05:09 7,9 C 95 % 1009,2 hPa 0,0 l/m 10,1 km/h (2 Bft) SW 220 0 min 0,000 mm 0,0 UV-I 0 W/m 7,1 C 5,2 C 16,1 km/h (3 Bft) 100,00 %
24.05.2016 05:10 7,9 C 95 % 1009,2 hPa 0,0 l/m 7,1 km/h (2 Bft) S-SW 211 0 min 0,000 mm 0,0 UV-I 0 W/m 7,1 C 7,3 C 11,3 km/h (2 Bft) 100,00 %
24.05.2016 05:11 7,9 C 95 % 1009,2 hPa 0,0 l/m 8,9 km/h (2 Bft) W-SW 239 0 min 0,000 mm 0,0 UV-I 0 W/m 7,1 C 6,0 C 11,3 km/h (2 Bft) 100,00 %
24.05.2016 05:12 7,9 C 95 % 1009,2 hPa 0,0 l/m 7,8 km/h (2 Bft) W-SW 258 0 min 0,000 mm 0,0 UV-I 0 W/m 7,1 C 6,8 C 11,3 km/h (2 Bft) 92,86 %
24.05.2016 05:13 7,9 C 95 % 1009,2 hPa 0,0 l/m 13,5 km/h (3 Bft) SW 229 0 min 0,000 mm 0,0 UV-I 0 W/m 7,1 C 3,3 C 16,1 km/h (3 Bft) 100,00 %
24.05.2016 05:14 7,9 C 95 % 1009,3 hPa 0,0 l/m 10,1 km/h (2 Bft) SW 221 0 min 0,000 mm 0,0 UV-I 0 W/m 7,1 C 5,2 C 14,5 km/h (3 Bft) 100,00 %
24.05.2016 05:15 7,9 C 95 % 1009,3 hPa 0,0 l/m 10,1 km/h (2 Bft) SW 228 0 min 0,000 mm 0,0 UV-I 0 W/m 7,1 C 5,2 C 14,5 km/h (3 Bft) 100,00 %
24.05.2016 05:16 7,9 C 95 % 1009,3 hPa 0,0 l/m 9,3 km/h (2 Bft) W-SW 242 0 min 0,000 mm 0,0 UV-I 0 W/m 7,1 C 5,7 C 12,9 km/h (3 Bft) 100,00 %
24.05.2016 05:17 7,9 C 95 % 1009,3 hPa 0,0 l/m 7,0 km/h (2 Bft) SW 225 0 min 0,000 mm 0,0 UV-I 0 W/m 7,1 C 7,4 C 9,7 km/h (2 Bft) 100,00 %
24.05.2016 05:18 8,0 C 95 % 1009,3 hPa 0,0 l/m 6,5 km/h (2 Bft) SW 234 0 min 0,000 mm 0,0 UV-I 0 W/m 7,2 C 7,9 C 9,7 km/h (2 Bft) 95,65 %
24.05.2016 05:19 8,0 C 95 % 1009,3 hPa 0,0 l/m 9,2 km/h (2 Bft) SW 234 0 min 0,000 mm 0,0 UV-I 0 W/m 7,2 C 5,9 C 12,9 km/h (3 Bft) 100,00 %
24.05.2016 05:20 8,0 C 95 % 1009,3 hPa 0,0 l/m 9,8 km/h (2 Bft) SW 223 0 min 0,000 mm 0,0 UV-I 0 W/m 7,2 C 5,5 C 16,1 km/h (3 Bft) 100,00 %
24.05.2016 05:21 8,0 C 95 % 1009,3 hPa 0,0 l/m 12,3 km/h (3 Bft) W-SW 242 0 min 0,000 mm 0,0 UV-I 0 W/m 7,2 C 4,0 C 16,1 km/h (3 Bft) 95,83 %
24.05.2016 05:22 8,0 C 95 % 1009,3 hPa 0,2 l/m 10,4 km/h (2 Bft) SW 222 0 min 0,000 mm 0,0 UV-I 0 W/m 7,2 C 5,1 C 14,5 km/h (3 Bft) 100,00 %
24.05.2016 05:23 8,0 C 95 % 1009,3 hPa 0,0 l/m 8,0 km/h (2 Bft) SW 225 0 min 0,000 mm 0,0 UV-I 0 W/m 7,2 C 6,8 C 9,7 km/h (2 Bft) 100,00 %
24.05.2016 05:24 8,0 C 95 % 1009,3 hPa 0,0 l/m 9,1 km/h (2 Bft) SW 227 0 min 0,000 mm 0,0 UV-I 0 W/m 7,2 C 6,0 C 12,9 km/h (3 Bft) 100,00 %
24.05.2016 05:25 8,0 C 95 % 1009,3 hPa 0,0 l/m 7,6 km/h (2 Bft) W-SW 250 0 min 0,000 mm 0,0 UV-I 0 W/m 7,2 C 7,1 C 9,7 km/h (2 Bft) 100,00 %
24.05.2016 05:26 8,0 C 95 % 1009,3 hPa 0,0 l/m 7,1 km/h (2 Bft) W-SW 239 0 min 0,000 mm 0,0 UV-I 0 W/m 7,2 C 7,4 C 11,3 km/h (2 Bft) 100,00 %
24.05.2016 05:27 8,0 C 95 % 1009,4 hPa 0,0 l/m 8,0 km/h (2 Bft) W 268 0 min 0,000 mm 0,0 UV-I 0 W/m 7,2 C 6,8 C 11,3 km/h (2 Bft) 96,30 %
24.05.2016 05:28 8,0 C 95 % 1009,4 hPa 0,0 l/m 11,1 km/h (2 Bft) SW 223 0 min 0,000 mm 0,0 UV-I 0 W/m 7,2 C 4,7 C 16,1 km/h (3 Bft) 100,00 %
24.05.2016 05:29 8,0 C 95 % 1009,4 hPa 0,0 l/m 10,6 km/h (2 Bft) W 262 0 min 0,000 mm 0,0 UV-I 0 W/m 7,2 C 5,0 C 17,7 km/h (3 Bft) 100,00 %
24.05.2016 05:30 8,0 C 95 % 1009,4 hPa 0,0 l/m 10,3 km/h (2 Bft) SW 231 0 min 0,000 mm 0,0 UV-I 0 W/m 7,2 C 5,2 C 12,9 km/h (3 Bft) 100,00 %
24.05.2016 05:31 8,0 C 95 % 1009,4 hPa 0,0 l/m 10,6 km/h (2 Bft) W-SW 256 0 min 0,000 mm 0,0 UV-I 0 W/m 7,2 C 5,0 C 12,9 km/h (3 Bft) 92,86 %
24.05.2016 05:32 7,9 C 95 % 1009,3 hPa 0,0 l/m 10,1 km/h (2 Bft) W-SW 244 0 min 0,000 mm 0,0 UV-I 0 W/m 7,1 C 5,2 C 12,9 km/h (3 Bft) 100,00 %
24.05.2016 05:33 8,0 C 95 % 1009,3 hPa 0,0 l/m 15,0 km/h (3 Bft) W-SW 252 0 min 0,000 mm 0,0 UV-I 0 W/m 7,2 C 2,7 C 19,3 km/h (3 Bft) 100,00 %
24.05.2016 05:34 8,0 C 95 % 1009,3 hPa 0,0 l/m 12,6 km/h (3 Bft) W-SW 252 0 min 0,000 mm 0,0 UV-I 0 W/m 7,2 C 3,9 C 16,1 km/h (3 Bft) 100,00 %
24.05.2016 05:35 8,0 C 95 % 1009,3 hPa 0,0 l/m 10,8 km/h (2 Bft) W-SW 246 0 min 0,000 mm 0,0 UV-I 0 W/m 7,2 C 4,9 C 16,1 km/h (3 Bft) 100,00 %
24.05.2016 05:36 8,0 C 95 % 1009,2 hPa 0,0 l/m 9,5 km/h (2 Bft) W-SW 240 0 min 0,000 mm 0,0 UV-I 0 W/m 7,2 C 5,7 C 14,5 km/h (3 Bft) 100,00 %
24.05.2016 05:37 8,0 C 95 % 1009,2 hPa 0,0 l/m 10,1 km/h (2 Bft) S-SW 202 0 min 0,000 mm 0,0 UV-I 0 W/m 7,2 C 5,3 C 12,9 km/h (3 Bft) 100,00 %
24.05.2016 05:38 7,9 C 95 % 1009,2 hPa 0,0 l/m 11,6 km/h (2 Bft) W-SW 238 0 min 0,000 mm 0,0 UV-I 0 W/m 7,1 C 4,3 C 16,1 km/h (3 Bft) 100,00 %
24.05.2016 05:39 8,0 C 95 % 1009,1 hPa 0,0 l/m 13,1 km/h (3 Bft) SW 221 0 min 0,000 mm 0,0 UV-I 0 W/m 7,2 C 3,6 C 17,7 km/h (3 Bft) 100,00 %
24.05.2016 05:40 7,9 C 95 % 1009,1 hPa 0,0 l/m 13,6 km/h (3 Bft) SW 234 0 min 0,000 mm 0,0 UV-I 0 W/m 7,1 C 3,3 C 17,7 km/h (3 Bft) 100,00 %
24.05.2016 05:41 8,0 C 95 % 1009,1 hPa 0,0 l/m 12,5 km/h (3 Bft) SW 236 0 min 0,000 mm 0,0 UV-I 0 W/m 7,2 C 3,9 C 16,1 km/h (3 Bft) 100,00 %
24.05.2016 05:42 8,0 C 95 % 1009,1 hPa 0,0 l/m 10,8 km/h (2 Bft) W-SW 239 0 min 0,000 mm 0,0 UV-I 0 W/m 7,2 C 4,9 C 14,5 km/h (3 Bft) 96,15 %
24.05.2016 05:43 8,0 C 96 % 1009,1 hPa 0,0 l/m 7,9 km/h (2 Bft) W-SW 249 0 min 0,000 mm 0,0 UV-I 0 W/m 7,4 C 6,8 C 11,3 km/h (2 Bft) 100,00 %
24.05.2016 05:44 8,0 C 96 % 1009,1 hPa 0,0 l/m 7,5 km/h (2 Bft) W 269 0 min 0,000 mm 0,0 UV-I 0 W/m 7,4 C 7,1 C 11,3 km/h (2 Bft) 96,15 %
24.05.2016 05:45 8,0 C 96 % 1009,1 hPa 0,0 l/m 8,7 km/h (2 Bft) W-SW 240 0 min 0,000 mm 0,0 UV-I 0 W/m 7,4 C 6,2 C 14,5 km/h (3 Bft) 100,00 %
24.05.2016 05:46 8,0 C 96 % 1009,1 hPa 0,0 l/m 12,1 km/h (2 Bft) SW 234 0 min 0,000 mm 0,0 UV-I 0 W/m 7,4 C 4,2 C 16,1 km/h (3 Bft) 92,31 %
24.05.2016 05:47 8,0 C 96 % 1009,1 hPa 0,0 l/m 8,7 km/h (2 Bft) S-SW 213 0 min 0,000 mm 0,0 UV-I 0 W/m 7,4 C 6,2 C 14,5 km/h (3 Bft) 100,00 %
24.05.2016 05:48 8,0 C 96 % 1009,1 hPa 0,0 l/m 10,2 km/h (2 Bft) W 280 0 min 0,000 mm 0,0 UV-I 0 W/m 7,4 C 5,3 C 14,5 km/h (3 Bft) 95,65 %
24.05.2016 05:49 8,0 C 96 % 1009,1 hPa 0,0 l/m 8,4 km/h (2 Bft) W-SW 241 0 min 0,000 mm 0,0 UV-I 0 W/m 7,4 C 6,5 C 14,5 km/h (3 Bft) 95,83 %
24.05.2016 05:50 8,0 C 96 % 1009,1 hPa 0,0 l/m 12,0 km/h (2 Bft) S-SW 205 0 min 0,000 mm 0,0 UV-I 0 W/m 7,4 C 4,2 C 17,7 km/h (3 Bft) 92,86 %
24.05.2016 05:51 8,0 C 96 % 1009,0 hPa 0,0 l/m 11,6 km/h (2 Bft) SW 232 0 min 0,000 mm 0,0 UV-I 0 W/m 7,4 C 4,4 C 17,7 km/h (3 Bft) 92,86 %
24.05.2016 05:52 8,0 C 96 % 1009,0 hPa 0,0 l/m 10,1 km/h (2 Bft) W-SW 255 0 min 0,000 mm 0,0 UV-I 0 W/m 7,4 C 5,3 C 14,5 km/h (3 Bft) 100,00 %
24.05.2016 05:53 8,0 C 96 % 1009,1 hPa 0,0 l/m 8,6 km/h (2 Bft) W-SW 252 0 min 0,000 mm 0,0 UV-I 2 W/m 7,4 C 6,3 C 11,3 km/h (2 Bft) 96,97 %
24.05.2016 05:54 8,0 C 96 % 1009,1 hPa 0,0 l/m 11,0 km/h (2 Bft) W-SW 241 0 min 0,000 mm 0,0 UV-I 5 W/m 7,4 C 4,8 C 12,9 km/h (3 Bft) 100,00 %
24.05.2016 05:55 8,0 C 96 % 1009,1 hPa 0,0 l/m 14,1 km/h (3 Bft) W-SW 247 0 min 0,000 mm 0,0 UV-I 5 W/m 7,4 C 3,1 C 19,3 km/h (3 Bft) 96,30 %
24.05.2016 05:56 8,0 C 96 % 1009,0 hPa 0,0 l/m 12,0 km/h (2 Bft) W-SW 240 0 min 0,000 mm 0,0 UV-I 5 W/m 7,4 C 4,2 C 20,9 km/h (4 Bft) 96,15 %
24.05.2016 05:57 8,1 C 96 % 1009,1 hPa 0,0 l/m 9,3 km/h (2 Bft) SW 234 0 min 0,000 mm 0,0 UV-I 5 W/m 7,5 C 5,9 C 16,1 km/h (3 Bft) 98,48 %
24.05.2016 05:58 8,0 C 96 % 1009,0 hPa 0,0 l/m 11,5 km/h (2 Bft) W 268 0 min 0,000 mm 0,0 UV-I 5 W/m 7,4 C 4,5 C 17,7 km/h (3 Bft) 95,12 %
24.05.2016 05:59 8,0 C 96 % 1009,0 hPa 0,0 l/m 11,7 km/h (2 Bft) W-SW 248 0 min 0,000 mm 0,0 UV-I 5 W/m 7,4 C 4,4 C 16,1 km/h (3 Bft) 100,00 %
24.05.2016 06:00 8,1 C 96 % 1009,0 hPa 0,0 l/m 12,8 km/h (3 Bft) SW 215 0 min 0,000 mm 0,0 UV-I 5 W/m 7,5 C 3,9 C 16,1 km/h (3 Bft) 98,45 %
24.05.2016 06:02 8,1 C 95 % 1009,0 hPa 0,0 l/m 13,2 km/h (3 Bft) SW 235 0 min 0,000 mm 0,0 UV-I 6 W/m 7,3 C 3,7 C 19,3 km/h (3 Bft) 96,77 %
24.05.2016 06:03 8,1 C 95 % 1009,0 hPa 0,0 l/m 12,2 km/h (2 Bft) SW 231 0 min 0,000 mm 0,0 UV-I 7 W/m 7,3 C 4,2 C 16,1 km/h (3 Bft) 100,00 %
24.05.2016 06:04 8,1 C 95 % 1009,0 hPa 0,0 l/m 11,1 km/h (2 Bft) W-SW 242 0 min 0,000 mm 0,0 UV-I 7 W/m 7,3 C 4,8 C 14,5 km/h (3 Bft) 96,88 %
24.05.2016 06:05 8,1 C 95 % 1009,0 hPa 0,0 l/m 14,6 km/h (3 Bft) W-NW 282 0 min 0,000 mm 0,0 UV-I 7 W/m 7,3 C 3,0 C 19,3 km/h (3 Bft) 100,00 %
24.05.2016 06:06 8,1 C 95 % 1009,0 hPa 0,0 l/m 14,1 km/h (3 Bft) W-SW 242 0 min 0,000 mm 0,0 UV-I 5 W/m 7,3 C 3,3 C 19,3 km/h (3 Bft) 96,30 %
24.05.2016 06:07 8,1 C 95 % 1009,0 hPa 0,0 l/m 12,2 km/h (2 Bft) W-SW 244 0 min 0,000 mm 0,0 UV-I 5 W/m 7,3 C 4,2 C 17,7 km/h (3 Bft) 96,15 %
24.05.2016 06:08 8,1 C 95 % 1009,0 hPa 0,2 l/m 9,1 km/h (2 Bft) W-SW 242 0 min 0,000 mm 0,0 UV-I 5 W/m 7,3 C 6,1 C 14,5 km/h (3 Bft) 100,00 %
24.05.2016 06:09 8,1 C 96 % 1009,0 hPa 0,0 l/m 9,8 km/h (2 Bft) W-SW 238 0 min 0,000 mm 0,0 UV-I 7 W/m 7,5 C 5,6 C 17,7 km/h (3 Bft) 95,65 %
24.05.2016 06:10 8,1 C 96 % 1009,0 hPa 0,0 l/m 11,4 km/h (2 Bft) SW 236 0 min 0,000 mm 0,0 UV-I 7 W/m 7,5 C 4,7 C 16,1 km/h (3 Bft) 100,00 %
24.05.2016 06:11 8,1 C 96 % 1009,0 hPa 0,0 l/m 12,6 km/h (3 Bft) W-SW 250 0 min 0,000 mm 0,0 UV-I 7 W/m 7,5 C 4,0 C 17,7 km/h (3 Bft) 91,30 %
24.05.2016 06:12 8,1 C 95 % 1009,0 hPa 0,0 l/m 16,5 km/h (3 Bft) W-SW 250 0 min 0,000 mm 0,0 UV-I 7 W/m 7,3 C 2,2 C 20,9 km/h (4 Bft) 100,00 %
24.05.2016 06:13 8,1 C 95 % 1009,0 hPa 0,0 l/m 16,1 km/h (3 Bft) W 276 0 min 0,000 mm 0,0 UV-I 7 W/m 7,3 C 2,3 C 19,3 km/h (3 Bft) 96,15 %
24.05.2016 06:14 8,1 C 95 % 1009,0 hPa 0,0 l/m 12,1 km/h (2 Bft) W-NW 296 0 min 0,000 mm 0,0 UV-I 7 W/m 7,3 C 4,3 C 19,3 km/h (3 Bft) 100,00 %
24.05.2016 06:15 8,1 C 96 % 1009,0 hPa 0,0 l/m 9,9 km/h (2 Bft) S-SW 206 0 min 0,000 mm 0,0 UV-I 7 W/m 7,5 C 5,6 C 12,9 km/h (3 Bft) 96,15 %
24.05.2016 06:16 8,1 C 96 % 1009,1 hPa 0,0 l/m 10,1 km/h (2 Bft) W-SW 246 0 min 0,000 mm 0,0 UV-I 7 W/m 7,5 C 5,4 C 14,5 km/h (3 Bft) 100,00 %
24.05.2016 06:17 8,1 C 96 % 1009,0 hPa 0,0 l/m 15,4 km/h (3 Bft) SW 225 0 min 0,000 mm 0,0 UV-I 7 W/m 7,5 C 2,7 C 20,9 km/h (4 Bft) 98,33 %
24.05.2016 06:18 8,1 C 96 % 1009,0 hPa 0,0 l/m 14,2 km/h (3 Bft) SW 220 0 min 0,000 mm 0,0 UV-I 7 W/m 7,5 C 3,2 C 17,7 km/h (3 Bft) 100,00 %
24.05.2016 06:19 8,1 C 96 % 1009,0 hPa 0,0 l/m 8,7 km/h (2 Bft) W 269 0 min 0,000 mm 0,0 UV-I 7 W/m 7,5 C 6,4 C 12,9 km/h (3 Bft) 100,00 %
24.05.2016 06:20 8,1 C 95 % 1009,0 hPa 0,0 l/m 15,4 km/h (3 Bft) W-SW 257 0 min 0,000 mm 0,0 UV-I 7 W/m 7,3 C 2,7 C 20,9 km/h (4 Bft) 100,00 %
24.05.2016 06:21 8,1 C 95 % 1009,1 hPa 0,0 l/m 11,9 km/h (2 Bft) W-SW 246 0 min 0,000 mm 0,0 UV-I 9 W/m 7,3 C 4,4 C 20,9 km/h (4 Bft) 100,00 %
24.05.2016 06:22 8,1 C 95 % 1009,1 hPa 0,0 l/m 9,2 km/h (2 Bft) W-SW 244 0 min 0,000 mm 0,0 UV-I 9 W/m 7,3 C 6,0 C 14,5 km/h (3 Bft) 100,00 %
24.05.2016 06:23 8,1 C 95 % 1009,1 hPa 0,0 l/m 14,0 km/h (3 Bft) SW 235 0 min 0,000 mm 0,0 UV-I 9 W/m 7,3 C 3,3 C 20,9 km/h (4 Bft) 93,10 %
24.05.2016 06:24 8,1 C 95 % 1009,2 hPa 0,0 l/m 10,1 km/h (2 Bft) SW 226 0 min 0,000 mm 0,0 UV-I 9 W/m 7,3 C 5,4 C 12,9 km/h (3 Bft) 100,00 %
24.05.2016 06:25 8,1 C 95 % 1009,1 hPa 0,0 l/m 13,3 km/h (3 Bft) SW 229 0 min 0,000 mm 0,0 UV-I 9 W/m 7,3 C 3,6 C 19,3 km/h (3 Bft) 100,00 %
24.05.2016 06:26 8,1 C 95 % 1009,1 hPa 0,0 l/m 12,5 km/h (3 Bft) W-SW 252 0 min 0,000 mm 0,0 UV-I 11 W/m 7,3 C 4,1 C 17,7 km/h (3 Bft) 100,00 %
24.05.2016 06:27 8,1 C 95 % 1009,1 hPa 0,0 l/m 13,0 km/h (3 Bft) SW 217 0 min 0,000 mm 0,0 UV-I 11 W/m 7,3 C 3,8 C 17,7 km/h (3 Bft) 96,30 %
24.05.2016 06:28 8,1 C 95 % 1009,0 hPa 0,0 l/m 12,5 km/h (3 Bft) W-SW 240 0 min 0,000 mm 0,0 UV-I 11 W/m 7,3 C 4,1 C 19,3 km/h (3 Bft) 100,00 %
24.05.2016 06:29 8,1 C 96 % 1009,1 hPa 0,2 l/m 8,5 km/h (2 Bft) W 268 0 min 0,000 mm 0,0 UV-I 12 W/m 7,5 C 6,5 C 14,5 km/h (3 Bft) 100,00 %
24.05.2016 06:30 8,1 C 95 % 1009,1 hPa 0,0 l/m 11,7 km/h (2 Bft) W 273 0 min 0,000 mm 0,0 UV-I 12 W/m 7,3 C 4,5 C 17,7 km/h (3 Bft) 95,65 %
24.05.2016 06:31 8,1 C 96 % 1009,0 hPa 0,0 l/m 10,5 km/h (2 Bft) SW 226 0 min 0,000 mm 0,0 UV-I 12 W/m 7,5 C 5,2 C 14,5 km/h (3 Bft) 100,00 %
24.05.2016 06:32 8,1 C 95 % 1009,1 hPa 0,0 l/m 12,7 km/h (3 Bft) SW 236 0 min 0,000 mm 0,0 UV-I 12 W/m 7,3 C 4,0 C 16,1 km/h (3 Bft) 100,00 %
24.05.2016 06:33 8,1 C 95 % 1009,1 hPa 0,0 l/m 16,7 km/h (3 Bft) W-SW 254 0 min 0,000 mm 0,0 UV-I 14 W/m 7,3 C 2,1 C 24,1 km/h (4 Bft) 100,00 %
24.05.2016 06:34 8,1 C 96 % 1009,1 hPa 0,0 l/m 14,2 km/h (3 Bft) S-SW 209 0 min 0,000 mm 0,0 UV-I 14 W/m 7,5 C 3,2 C 19,3 km/h (3 Bft) 96,15 %
24.05.2016 06:35 8,1 C 96 % 1009,1 hPa 0,0 l/m 12,9 km/h (3 Bft) SW 230 0 min 0,000 mm 0,0 UV-I 15 W/m 7,5 C 3,8 C 17,7 km/h (3 Bft) 100,00 %
24.05.2016 06:36 8,1 C 96 % 1009,0 hPa 0,0 l/m 14,1 km/h (3 Bft) SW 236 0 min 0,000 mm 0,0 UV-I 16 W/m 7,5 C 3,3 C 20,9 km/h (4 Bft) 100,00 %
24.05.2016 06:37 8,1 C 96 % 1009,0 hPa 0,0 l/m 14,8 km/h (3 Bft) W-SW 241 0 min 0,000 mm 0,0 UV-I 16 W/m 7,5 C 2,9 C 22,5 km/h (4 Bft) 100,00 %
24.05.2016 06:38 8,1 C 96 % 1009,0 hPa 0,0 l/m 14,4 km/h (3 Bft) W-SW 246 0 min 0,000 mm 0,0 UV-I 16 W/m 7,5 C 3,1 C 25,7 km/h (4 Bft) 100,00 %
24.05.2016 06:39 8,1 C 96 % 1009,0 hPa 0,0 l/m 17,0 km/h (3 Bft) W 269 0 min 0,000 mm 0,0 UV-I 17 W/m 7,5 C 2,0 C 19,3 km/h (3 Bft) 100,00 %
24.05.2016 06:40 8,1 C 96 % 1009,0 hPa 0,0 l/m 14,6 km/h (3 Bft) W 260 0 min 0,000 mm 0,0 UV-I 18 W/m 7,5 C 3,0 C 19,3 km/h (3 Bft) 100,00 %
24.05.2016 06:41 8,1 C 96 % 1009,1 hPa 0,0 l/m 16,7 km/h (3 Bft) W-SW 238 0 min 0,000 mm 0,0 UV-I 18 W/m 7,5 C 2,1 C 24,1 km/h (4 Bft) 96,30 %
24.05.2016 06:42 8,1 C 96 % 1009,0 hPa 0,0 l/m 16,6 km/h (3 Bft) W-NW 289 0 min 0,000 mm 0,0 UV-I 18 W/m 7,5 C 2,1 C 19,3 km/h (3 Bft) 100,00 %
24.05.2016 06:43 8,1 C 96 % 1009,1 hPa 0,0 l/m 11,1 km/h (2 Bft) SW 236 0 min 0,000 mm 0,0 UV-I 18 W/m 7,5 C 4,8 C 14,5 km/h (3 Bft) 94,44 %
24.05.2016 06:44 8,2 C 96 % 1009,1 hPa 0,0 l/m 18,7 km/h (3 Bft) W 259 0 min 0,000 mm 0,0 UV-I 19 W/m 7,6 C 1,4 C 22,5 km/h (4 Bft) 100,00 %
24.05.2016 06:45 8,2 C 96 % 1009,1 hPa 0,0 l/m 13,6 km/h (3 Bft) W-NW 290 0 min 0,000 mm 0,0 UV-I 19 W/m 7,6 C 3,6 C 19,3 km/h (3 Bft) 96,55 %
24.05.2016 06:46 8,2 C 96 % 1009,1 hPa 0,0 l/m 13,9 km/h (3 Bft) W-SW 252 0 min 0,000 mm 0,0 UV-I 19 W/m 7,6 C 3,5 C 20,9 km/h (4 Bft) 100,00 %
24.05.2016 06:47 8,2 C 96 % 1009,1 hPa 0,0 l/m 15,6 km/h (3 Bft) W-SW 254 0 min 0,000 mm 0,0 UV-I 20 W/m 7,6 C 2,7 C 22,5 km/h (4 Bft) 100,00 %
24.05.2016 06:48 8,2 C 96 % 1009,1 hPa 0,0 l/m 16,0 km/h (3 Bft) W-SW 244 0 min 0,000 mm 0,0 UV-I 21 W/m 7,6 C 2,5 C 20,9 km/h (4 Bft) 95,83 %
24.05.2016 06:49 8,2 C 96 % 1009,1 hPa 0,0 l/m 17,4 km/h (3 Bft) W 263 0 min 0,000 mm 0,0 UV-I 21 W/m 7,6 C 1,9 C 24,1 km/h (4 Bft) 100,00 %
24.05.2016 06:50 8,2 C 96 % 1009,1 hPa 0,0 l/m 8,7 km/h (2 Bft) W 270 0 min 0,000 mm 0,0 UV-I 21 W/m 7,6 C 6,5 C 16,1 km/h (3 Bft) 100,00 %
24.05.2016 06:51 8,2 C 96 % 1009,0 hPa 0,0 l/m 12,8 km/h (3 Bft) W-SW 250 0 min 0,000 mm 0,0 UV-I 21 W/m 7,6 C 4,0 C 20,9 km/h (4 Bft) 100,00 %
24.05.2016 06:52 8,2 C 96 % 1009,0 hPa 0,0 l/m 18,1 km/h (3 Bft) SW 234 0 min 0,000 mm 0,0 UV-I 20 W/m 7,6 C 1,7 C 24,1 km/h (4 Bft) 100,00 %
24.05.2016 06:53 8,2 C 96 % 1009,0 hPa 0,0 l/m 15,7 km/h (3 Bft) W 261 0 min 0,000 mm 0,0 UV-I 18 W/m 7,6 C 2,6 C 20,9 km/h (4 Bft) 100,00 %
24.05.2016 06:54 8,2 C 96 % 1009,0 hPa 0,0 l/m 13,4 km/h (3 Bft) SW 219 0 min 0,000 mm 0,0 UV-I 18 W/m 7,6 C 3,7 C 22,5 km/h (4 Bft) 100,00 %
24.05.2016 06:55 8,2 C 96 % 1009,0 hPa 0,0 l/m 15,6 km/h (3 Bft) W 265 0 min 0,000 mm 0,0 UV-I 18 W/m 7,6 C 2,7 C 17,7 km/h (3 Bft) 100,00 %
24.05.2016 06:56 8,2 C 96 % 1009,0 hPa 0,0 l/m 11,2 km/h (2 Bft) W-SW 238 0 min 0,000 mm 0,0 UV-I 18 W/m 7,6 C 4,9 C 16,1 km/h (3 Bft) 96,30 %
24.05.2016 06:57 8,2 C 95 % 1009,1 hPa 0,0 l/m 10,3 km/h (2 Bft) W-SW 240 0 min 0,000 mm 0,0 UV-I 18 W/m 7,4 C 5,4 C 14,5 km/h (3 Bft) 100,00 %
24.05.2016 06:58 8,2 C 95 % 1009,0 hPa 0,0 l/m 14,6 km/h (3 Bft) W-SW 254 0 min 0,000 mm 0,0 UV-I 18 W/m 7,4 C 3,1 C 19,3 km/h (3 Bft) 100,00 %
24.05.2016 06:59 8,3 C 96 % 1009,0 hPa 0,0 l/m 13,6 km/h (3 Bft) W-SW 238 0 min 0,000 mm 0,0 UV-I 18 W/m 7,7 C 3,7 C 17,7 km/h (3 Bft) 100,00 %
24.05.2016 07:00 8,2 C 96 % 1009,0 hPa 0,0 l/m 14,5 km/h (3 Bft) W 263 0 min 0,000 mm 0,0 UV-I 18 W/m 7,6 C 3,2 C 19,3 km/h (3 Bft) 100,00 %
24.05.2016 07:01 8,2 C 95 % 1009,0 hPa 0,0 l/m 13,6 km/h (3 Bft) W-SW 238 0 min 0,000 mm 0,0 UV-I 18 W/m 7,4 C 3,6 C 17,7 km/h (3 Bft) 96,15 %
24.05.2016 07:02 8,3 C 95 % 1009,0 hPa 0,0 l/m 15,5 km/h (3 Bft) W-SW 247 0 min 0,000 mm 0,0 UV-I 18 W/m 7,5 C 2,9 C 20,9 km/h (4 Bft) 100,00 %
24.05.2016 07:03 8,2 C 95 % 1009,0 hPa 0,0 l/m 11,1 km/h (2 Bft) W-NW 293 0 min 0,000 mm 0,0 UV-I 18 W/m 7,4 C 4,9 C 14,5 km/h (3 Bft) 100,00 %
24.05.2016 07:04 8,2 C 95 % 1009,0 hPa 0,0 l/m 12,1 km/h (2 Bft) SW 232 0 min 0,000 mm 0,0 UV-I 18 W/m 7,4 C 4,4 C 16,1 km/h (3 Bft) 96,55 %
24.05.2016 07:05 8,2 C 95 % 1009,0 hPa 0,0 l/m 14,7 km/h (3 Bft) W-SW 251 0 min 0,000 mm 0,0 UV-I 19 W/m 7,4 C 3,1 C 17,7 km/h (3 Bft) 100,00 %
24.05.2016 07:06 8,3 C 95 % 1009,0 hPa 0,0 l/m 8,5 km/h (2 Bft) W 266 0 min 0,000 mm 0,0 UV-I 19 W/m 7,5 C 6,7 C 12,9 km/h (3 Bft) 100,00 %
24.05.2016 07:07 8,3 C 95 % 1009,1 hPa 0,0 l/m 12,6 km/h (3 Bft) S-SW 202 0 min 0,000 mm 0,0 UV-I 21 W/m 7,5 C 4,2 C 17,7 km/h (3 Bft) 100,00 %
24.05.2016 07:08 8,2 C 95 % 1009,1 hPa 0,0 l/m 13,1 km/h (3 Bft) W-SW 241 0 min 0,000 mm 0,0 UV-I 22 W/m 7,4 C 3,9 C 19,3 km/h (3 Bft) 100,00 %
24.05.2016 07:09 8,3 C 95 % 1009,1 hPa 0,0 l/m 14,9 km/h (3 Bft) W-SW 252 0 min 0,000 mm 0,0 UV-I 23 W/m 7,5 C 3,1 C 22,5 km/h (4 Bft) 100,00 %
24.05.2016 07:10 8,3 C 95 % 1009,1 hPa 0,0 l/m 13,5 km/h (3 Bft) W 262 0 min 0,000 mm 0,0 UV-I 23 W/m 7,5 C 3,8 C 16,1 km/h (3 Bft) 100,00 %
24.05.2016 07:11 8,3 C 95 % 1009,1 hPa 0,0 l/m 17,6 km/h (3 Bft) W-SW 240 0 min 0,000 mm 0,0 UV-I 23 W/m 7,5 C 2,0 C 22,5 km/h (4 Bft) 96,30 %
24.05.2016 07:12 8,3 C 95 % 1009,1 hPa 0,0 l/m 15,6 km/h (3 Bft) SW 227 0 min 0,000 mm 0,0 UV-I 23 W/m 7,5 C 2,8 C 22,5 km/h (4 Bft) 100,00 %
24.05.2016 07:13 8,3 C 95 % 1009,1 hPa 0,0 l/m 8,4 km/h (2 Bft) W 269 0 min 0,000 mm 0,0 UV-I 23 W/m 7,5 C 6,8 C 12,9 km/h (3 Bft) 100,00 %
24.05.2016 07:14 8,3 C 95 % 1009,1 hPa 0,0 l/m 13,0 km/h (3 Bft) W-SW 246 0 min 0,000 mm 0,0 UV-I 23 W/m 7,5 C 4,0 C 19,3 km/h (3 Bft) 100,00 %
24.05.2016 07:15 8,3 C 95 % 1009,1 hPa 0,0 l/m 18,0 km/h (3 Bft) SW 229 0 min 0,000 mm 0,0 UV-I 23 W/m 7,5 C 1,8 C 25,7 km/h (4 Bft) 100,00 %
24.05.2016 07:16 8,3 C 95 % 1009,1 hPa 0,0 l/m 12,9 km/h (3 Bft) W-SW 244 0 min 0,000 mm 0,0 UV-I 23 W/m 7,5 C 4,1 C 20,9 km/h (4 Bft) 100,00 %
24.05.2016 07:17 8,3 C 95 % 1009,1 hPa 0,0 l/m 13,1 km/h (3 Bft) W-SW 238 0 min 0,000 mm 0,0 UV-I 23 W/m 7,5 C 4,0 C 20,9 km/h (4 Bft) 100,00 %
24.05.2016 07:18 8,3 C 95 % 1009,1 hPa 0,0 l/m 12,0 km/h (2 Bft) W-SW 240 0 min 0,000 mm 0,0 UV-I 21 W/m 7,5 C 4,6 C 16,1 km/h (3 Bft) 92,59 %
24.05.2016 07:19 8,3 C 95 % 1009,1 hPa 0,0 l/m 12,6 km/h (3 Bft) S-SW 208 0 min 0,000 mm 0,0 UV-I 21 W/m 7,5 C 4,2 C 17,7 km/h (3 Bft) 100,00 %
24.05.2016 07:20 8,3 C 95 % 1009,1 hPa 0,0 l/m 11,9 km/h (2 Bft) W-SW 242 0 min 0,000 mm 0,0 UV-I 21 W/m 7,5 C 4,6 C 16,1 km/h (3 Bft) 100,00 %
24.05.2016 07:21 8,3 C 95 % 1009,2 hPa 0,0 l/m 11,8 km/h (2 Bft) S-SW 208 0 min 0,000 mm 0,0 UV-I 20 W/m 7,5 C 4,7 C 16,1 km/h (3 Bft) 96,15 %
24.05.2016 07:22 8,3 C 95 % 1009,2 hPa 0,0 l/m 14,5 km/h (3 Bft) SW 218 0 min 0,000 mm 0,0 UV-I 19 W/m 7,5 C 3,3 C 19,3 km/h (3 Bft) 100,00 %
24.05.2016 07:23 8,3 C 95 % 1009,2 hPa 0,0 l/m 13,6 km/h (3 Bft) W-SW 252 0 min 0,000 mm 0,0 UV-I 19 W/m 7,5 C 3,7 C 17,7 km/h (3 Bft) 100,00 %
24.05.2016 07:24 8,3 C 95 % 1009,2 hPa 0,0 l/m 11,3 km/h (2 Bft) SW 236 0 min 0,000 mm 0,0 UV-I 18 W/m 7,5 C 4,9 C 16,1 km/h (3 Bft) 96,15 %
24.05.2016 07:25 8,3 C 95 % 1009,2 hPa 0,0 l/m 10,1 km/h (2 Bft) SW 227 0 min 0,000 mm 0,0 UV-I 18 W/m 7,5 C 5,7 C 14,5 km/h (3 Bft) 91,67 %
24.05.2016 07:26 8,3 C 95 % 1009,2 hPa 0,0 l/m 11,5 km/h (2 Bft) W-SW 243 0 min 0,000 mm 0,0 UV-I 18 W/m 7,5 C 4,8 C 16,1 km/h (3 Bft) 100,00 %
24.05.2016 07:27 8,3 C 95 % 1009,2 hPa 0,0 l/m 15,2 km/h (3 Bft) W-SW 238 0 min 0,000 mm 0,0 UV-I 18 W/m 7,5 C 3,0 C 20,9 km/h (4 Bft) 96,55 %
24.05.2016 07:28 8,3 C 95 % 1009,2 hPa 0,0 l/m 9,7 km/h (2 Bft) W-SW 242 0 min 0,000 mm 0,0 UV-I 19 W/m 7,5 C 5,9 C 12,9 km/h (3 Bft) 100,00 %
24.05.2016 07:29 8,3 C 95 % 1009,2 hPa 0,0 l/m 10,5 km/h (2 Bft) W-SW 240 0 min 0,000 mm 0,0 UV-I 21 W/m 7,5 C 5,4 C 14,5 km/h (3 Bft) 100,00 %
24.05.2016 07:30 8,3 C 95 % 1009,2 hPa 0,0 l/m 10,2 km/h (2 Bft) SW 234 0 min 0,000 mm 0,0 UV-I 21 W/m 7,5 C 5,6 C 16,1 km/h (3 Bft) 100,00 %
24.05.2016 07:31 8,3 C 95 % 1009,2 hPa 0,0 l/m 14,1 km/h (3 Bft) SW 225 0 min 0,000 mm 0,0 UV-I 23 W/m 7,5 C 3,5 C 17,7 km/h (3 Bft) 100,00 %
24.05.2016 07:32 8,4 C 95 % 1009,2 hPa 0,0 l/m 12,9 km/h (3 Bft) SW 218 0 min 0,000 mm 0,0 UV-I 23 W/m 7,6 C 4,2 C 17,7 km/h (3 Bft) 100,00 %
24.05.2016 07:33 8,3 C 95 % 1009,2 hPa 0,0 l/m 11,6 km/h (2 Bft) SW 223 0 min 0,000 mm 0,0 UV-I 24 W/m 7,5 C 4,8 C 16,1 km/h (3 Bft) 100,00 %
24.05.2016 07:34 8,3 C 95 % 1009,2 hPa 0,0 l/m 7,8 km/h (2 Bft) W-SW 240 0 min 0,000 mm 0,0 UV-I 25 W/m 7,5 C 7,2 C 11,3 km/h (2 Bft) 100,00 %
24.05.2016 07:35 8,3 C 95 % 1009,2 hPa 0,0 l/m 11,3 km/h (2 Bft) W-SW 240 0 min 0,000 mm 0,0 UV-I 26 W/m 7,5 C 4,9 C 19,3 km/h (3 Bft) 100,00 %
24.05.2016 07:36 8,3 C 95 % 1009,2 hPa 0,0 l/m 13,6 km/h (3 Bft) W-SW 257 0 min 0,000 mm 0,0 UV-I 28 W/m 7,5 C 3,7 C 20,9 km/h (4 Bft) 92,59 %
24.05.2016 07:37 8,4 C 95 % 1009,3 hPa 0,0 l/m 12,6 km/h (3 Bft) W-SW 247 0 min 0,000 mm 0,0 UV-I 30 W/m 7,6 C 4,4 C 14,5 km/h (3 Bft) 100,00 %
24.05.2016 07:38 8,4 C 95 % 1009,3 hPa 0,2 l/m 11,9 km/h (2 Bft) SW 232 0 min 0,000 mm 0,0 UV-I 31 W/m 7,6 C 4,7 C 17,7 km/h (3 Bft) 100,00 %
24.05.2016 07:39 8,4 C 95 % 1009,2 hPa 0,0 l/m 17,2 km/h (3 Bft) W-SW 238 0 min 0,000 mm 0,0 UV-I 32 W/m 7,6 C 2,3 C 22,5 km/h (4 Bft) 100,00 %
24.05.2016 07:40 8,4 C 95 % 1009,2 hPa 0,0 l/m 14,3 km/h (3 Bft) W-SW 258 0 min 0,000 mm 0,0 UV-I 33 W/m 7,6 C 3,5 C 19,3 km/h (3 Bft) 100,00 %
24.05.2016 07:41 8,4 C 95 % 1009,2 hPa 0,0 l/m 15,1 km/h (3 Bft) W-SW 254 0 min 0,000 mm 0,0 UV-I 35 W/m 7,6 C 3,2 C 20,9 km/h (4 Bft) 100,00 %
24.05.2016 07:42 8,4 C 95 % 1009,2 hPa 0,0 l/m 13,4 km/h (3 Bft) W-SW 254 0 min 0,000 mm 0,0 UV-I 37 W/m 7,6 C 3,9 C 20,9 km/h (4 Bft) 100,00 %
24.05.2016 07:43 8,4 C 95 % 1009,2 hPa 0,0 l/m 13,6 km/h (3 Bft) W-SW 243 0 min 0,000 mm 0,0 UV-I 37 W/m 7,6 C 3,9 C 22,5 km/h (4 Bft) 100,00 %
24.05.2016 07:44 8,4 C 95 % 1009,2 hPa 0,0 l/m 16,0 km/h (3 Bft) S-SW 195 0 min 0,000 mm 0,0 UV-I 38 W/m 7,6 C 2,8 C 20,9 km/h (4 Bft) 100,00 %
24.05.2016 07:45 8,4 C 95 % 1009,2 hPa 0,0 l/m 15,8 km/h (3 Bft) S-SW 204 0 min 0,000 mm 0,0 UV-I 39 W/m 7,6 C 2,8 C 19,3 km/h (3 Bft) 100,00 %
24.05.2016 07:46 8,4 C 95 % 1009,2 hPa 0,2 l/m 13,9 km/h (3 Bft) W-SW 248 0 min 0,000 mm 0,0 UV-I 40 W/m 7,6 C 3,7 C 20,9 km/h (4 Bft) 91,67 %
24.05.2016 07:47 8,4 C 96 % 1009,2 hPa 0,0 l/m 11,0 km/h (2 Bft) SW 230 0 min 0,000 mm 0,0 UV-I 42 W/m 7,8 C 5,2 C 14,5 km/h (3 Bft) 100,00 %
24.05.2016 07:48 8,4 C 96 % 1009,2 hPa 0,0 l/m 10,3 km/h (2 Bft) W-SW 243 0 min 0,000 mm 0,0 UV-I 42 W/m 7,8 C 5,6 C 16,1 km/h (3 Bft) 96,15 %
24.05.2016 07:49 8,4 C 96 % 1009,1 hPa 0,0 l/m 13,6 km/h (3 Bft) S 182 0 min 0,000 mm 0,0 UV-I 42 W/m 7,8 C 3,9 C 17,7 km/h (3 Bft) 96,30 %
24.05.2016 07:50 8,4 C 96 % 1009,2 hPa 0,0 l/m 10,5 km/h (2 Bft) W-SW 248 0 min 0,000 mm 0,0 UV-I 43 W/m 7,8 C 5,5 C 14,5 km/h (3 Bft) 100,00 %
24.05.2016 07:51 8,4 C 96 % 1009,2 hPa 0,0 l/m 15,3 km/h (3 Bft) SW 236 0 min 0,000 mm 0,0 UV-I 44 W/m 7,8 C 3,1 C 19,3 km/h (3 Bft) 96,30 %
24.05.2016 07:52 8,4 C 96 % 1009,2 hPa 0,0 l/m 12,9 km/h (3 Bft) W-SW 254 0 min 0,000 mm 0,0 UV-I 46 W/m 7,8 C 4,2 C 17,7 km/h (3 Bft) 100,00 %
24.05.2016 07:53 8,4 C 96 % 1009,2 hPa 0,2 l/m 16,3 km/h (3 Bft) W-SW 253 0 min 0,000 mm 0,0 UV-I 47 W/m 7,8 C 2,6 C 24,1 km/h (4 Bft) 91,67 %
24.05.2016 07:54 8,4 C 96 % 1009,2 hPa 0,0 l/m 14,2 km/h (3 Bft) S-SW 212 0 min 0,000 mm 0,0 UV-I 47 W/m 7,8 C 3,6 C 22,5 km/h (4 Bft) 100,00 %
24.05.2016 07:55 8,4 C 96 % 1009,2 hPa 0,0 l/m 14,2 km/h (3 Bft) SW 233 0 min 0,000 mm 0,0 UV-I 46 W/m 7,8 C 3,6 C 20,9 km/h (4 Bft) 97,56 %
24.05.2016 07:56 8,4 C 96 % 1009,2 hPa 0,0 l/m 12,6 km/h (3 Bft) W-SW 252 0 min 0,000 mm 0,0 UV-I 44 W/m 7,8 C 4,4 C 17,7 km/h (3 Bft) 96,15 %
24.05.2016 07:57 8,4 C 96 % 1009,3 hPa 0,0 l/m 11,4 km/h (2 Bft) SW 227 0 min 0,000 mm 0,0 UV-I 44 W/m 7,8 C 5,0 C 16,1 km/h (3 Bft) 100,00 %
24.05.2016 07:58 8,4 C 96 % 1009,3 hPa 0,0 l/m 14,1 km/h (3 Bft) W-SW 238 0 min 0,000 mm 0,0 UV-I 44 W/m 7,8 C 3,6 C 19,3 km/h (3 Bft) 96,55 %
24.05.2016 07:59 8,4 C 96 % 1009,3 hPa 0,0 l/m 15,1 km/h (3 Bft) SW 228 0 min 0,000 mm 0,0 UV-I 42 W/m 7,8 C 3,2 C 22,5 km/h (4 Bft) 100,00 %
24.05.2016 08:00 8,4 C 96 % 1009,2 hPa 0,2 l/m 14,8 km/h (3 Bft) W-SW 257 0 min 0,025 mm 0,0 UV-I 40 W/m 7,8 C 3,3 C 22,5 km/h (4 Bft) 96,15 %
24.05.2016 08:02 8,4 C 96 % 1009,3 hPa 0,0 l/m 14,5 km/h (3 Bft) SW 221 0 min 0,000 mm 0,0 UV-I 39 W/m 7,8 C 3,4 C 27,4 km/h (4 Bft) 95,56 %
24.05.2016 08:03 8,4 C 96 % 1009,3 hPa 0,0 l/m 13,0 km/h (3 Bft) SW 227 0 min 0,000 mm 0,0 UV-I 39 W/m 7,8 C 4,1 C 17,7 km/h (3 Bft) 100,00 %
24.05.2016 08:04 8,4 C 96 % 1009,2 hPa 0,0 l/m 14,8 km/h (3 Bft) W 260 0 min 0,000 mm 0,0 UV-I 35 W/m 7,8 C 3,3 C 22,5 km/h (4 Bft) 88,89 %
24.05.2016 08:05 8,4 C 96 % 1009,3 hPa 0,0 l/m 17,2 km/h (3 Bft) W-SW 243 0 min 0,000 mm 0,0 UV-I 35 W/m 7,8 C 2,3 C 27,4 km/h (4 Bft) 100,00 %
24.05.2016 08:06 8,4 C 96 % 1009,3 hPa 0,0 l/m 19,1 km/h (3 Bft) W-SW 247 0 min 0,000 mm 0,0 UV-I 35 W/m 7,8 C 1,5 C 29,0 km/h (5 Bft) 96,30 %
24.05.2016 08:07 8,4 C 96 % 1009,3 hPa 0,0 l/m 14,6 km/h (3 Bft) SW 230 0 min 0,000 mm 0,0 UV-I 35 W/m 7,8 C 3,4 C 20,9 km/h (4 Bft) 96,15 %
24.05.2016 08:08 8,5 C 96 % 1009,3 hPa 0,0 l/m 10,4 km/h (2 Bft) SW 236 0 min 0,000 mm 0,0 UV-I 36 W/m 7,9 C 5,7 C 17,7 km/h (3 Bft) 93,33 %
24.05.2016 08:09 8,5 C 96 % 1009,3 hPa 0,0 l/m 12,8 km/h (3 Bft) W-SW 245 0 min 0,000 mm 0,0 UV-I 37 W/m 7,9 C 4,4 C 16,1 km/h (3 Bft) 96,55 %
24.05.2016 08:10 8,5 C 96 % 1009,3 hPa 0,0 l/m 11,3 km/h (2 Bft) S-SW 198 0 min 0,000 mm 0,0 UV-I 37 W/m 7,9 C 5,2 C 14,5 km/h (3 Bft) 100,00 %
24.05.2016 08:11 8,5 C 96 % 1009,3 hPa 0,0 l/m 11,6 km/h (2 Bft) SW 232 0 min 0,000 mm 0,0 UV-I 37 W/m 7,9 C 5,0 C 16,1 km/h (3 Bft) 92,31 %
24.05.2016 08:12 8,5 C 96 % 1009,3 hPa 0,0 l/m 17,3 km/h (3 Bft) SW 233 0 min 0,000 mm 0,0 UV-I 40 W/m 7,9 C 2,3 C 22,5 km/h (4 Bft) 95,83 %
24.05.2016 08:13 8,5 C 96 % 1009,3 hPa 0,0 l/m 12,6 km/h (3 Bft) W-SW 238 0 min 0,000 mm 0,0 UV-I 40 W/m 7,9 C 4,5 C 16,1 km/h (3 Bft) 96,15 %
24.05.2016 08:14 8,5 C 96 % 1009,3 hPa 0,0 l/m 11,5 km/h (2 Bft) SW 227 0 min 0,000 mm 0,0 UV-I 40 W/m 7,9 C 5,1 C 16,1 km/h (3 Bft) 95,83 %
24.05.2016 08:15 8,5 C 96 % 1009,3 hPa 0,0 l/m 9,5 km/h (2 Bft) W-SW 239 0 min 0,000 mm 0,0 UV-I 40 W/m 7,9 C 6,3 C 19,3 km/h (3 Bft) 95,65 %
24.05.2016 08:16 8,5 C 96 % 1009,3 hPa 0,0 l/m 17,2 km/h (3 Bft) SW 227 0 min 0,000 mm 0,0 UV-I 40 W/m 7,9 C 2,4 C 22,5 km/h (4 Bft) 95,83 %
24.05.2016 08:17 8,5 C 96 % 1009,3 hPa 0,2 l/m 18,7 km/h (3 Bft) SW 221 0 min 0,000 mm 0,0 UV-I 40 W/m 7,9 C 1,8 C 24,1 km/h (4 Bft) 100,00 %
24.05.2016 08:18 8,5 C 96 % 1009,3 hPa 0,0 l/m 16,8 km/h (3 Bft) W-SW 238 0 min 0,000 mm 0,0 UV-I 40 W/m 7,9 C 2,5 C 22,5 km/h (4 Bft) 100,00 %
24.05.2016 08:19 8,5 C 96 % 1009,3 hPa 0,0 l/m 13,3 km/h (3 Bft) W 262 0 min 0,000 mm 0,0 UV-I 41 W/m 7,9 C 4,1 C 17,7 km/h (3 Bft) 100,00 %
24.05.2016 08:20 8,5 C 96 % 1009,3 hPa 0,0 l/m 13,8 km/h (3 Bft) S-SW 200 0 min 0,000 mm 0,0 UV-I 42 W/m 7,9 C 3,9 C 19,3 km/h (3 Bft) 95,65 %
24.05.2016 08:21 8,5 C 96 % 1009,3 hPa 0,0 l/m 15,2 km/h (3 Bft) SW 225 0 min 0,000 mm 0,0 UV-I 46 W/m 7,9 C 3,2 C 20,9 km/h (4 Bft) 100,00 %
24.05.2016 08:22 8,6 C 96 % 1009,3 hPa 0,0 l/m 9,4 km/h (2 Bft) SW 221 0 min 0,000 mm 0,0 UV-I 47 W/m 8,0 C 6,4 C 14,5 km/h (3 Bft) 93,33 %
24.05.2016 08:23 8,6 C 96 % 1009,3 hPa 0,0 l/m 9,9 km/h (2 Bft) SW 234 0 min 0,000 mm 0,0 UV-I 49 W/m 8,0 C 6,1 C 19,3 km/h (3 Bft) 100,00 %
24.05.2016 08:24 8,6 C 96 % 1009,3 hPa 0,0 l/m 13,1 km/h (3 Bft) W 265 0 min 0,000 mm 0,0 UV-I 51 W/m 8,0 C 4,3 C 17,7 km/h (3 Bft) 100,00 %
24.05.2016 08:25 8,6 C 96 % 1009,3 hPa 0,0 l/m 9,4 km/h (2 Bft) SW 219 0 min 0,000 mm 0,0 UV-I 50 W/m 8,0 C 6,4 C 14,5 km/h (3 Bft) 100,00 %
24.05.2016 08:26 8,6 C 96 % 1009,3 hPa 0,0 l/m 15,3 km/h (3 Bft) W-SW 246 0 min 0,000 mm 0,0 UV-I 52 W/m 8,0 C 3,3 C 19,3 km/h (3 Bft) 100,00 %
24.05.2016 08:27 8,6 C 96 % 1009,3 hPa 0,0 l/m 10,2 km/h (2 Bft) S 171 0 min 0,000 mm 0,0 UV-I 54 W/m 8,0 C 5,9 C 14,5 km/h (3 Bft) 100,00 %
24.05.2016 08:28 8,6 C 96 % 1009,3 hPa 0,0 l/m 11,7 km/h (2 Bft) W 267 0 min 0,000 mm 0,0 UV-I 53 W/m 8,0 C 5,1 C 20,9 km/h (4 Bft) 100,00 %
24.05.2016 08:29 8,6 C 96 % 1009,3 hPa 0,0 l/m 13,7 km/h (3 Bft) W-SW 243 0 min 0,000 mm 0,0 UV-I 54 W/m 8,0 C 4,0 C 17,7 km/h (3 Bft) 95,83 %
24.05.2016 08:30 8,6 C 96 % 1009,3 hPa 0,0 l/m 13,9 km/h (3 Bft) SW 230 0 min 0,000 mm 0,0 UV-I 56 W/m 8,0 C 3,9 C 17,7 km/h (3 Bft) 100,00 %
24.05.2016 08:31 8,6 C 96 % 1009,3 hPa 0,2 l/m 14,6 km/h (3 Bft) W-SW 250 0 min 0,000 mm 0,0 UV-I 56 W/m 8,0 C 3,6 C 19,3 km/h (3 Bft) 100,00 %
24.05.2016 08:32 8,6 C 96 % 1009,3 hPa 0,0 l/m 13,9 km/h (3 Bft) W-SW 252 0 min 0,000 mm 0,0 UV-I 57 W/m 8,0 C 3,9 C 17,7 km/h (3 Bft) 100,00 %
24.05.2016 08:33 8,6 C 96 % 1009,2 hPa 0,0 l/m 17,2 km/h (3 Bft) W-SW 252 0 min 0,000 mm 0,0 UV-I 61 W/m 8,0 C 2,5 C 22,5 km/h (4 Bft) 95,83 %
24.05.2016 08:34 8,6 C 96 % 1009,2 hPa 0,0 l/m 14,5 km/h (3 Bft) SW 221 0 min 0,000 mm 0,0 UV-I 63 W/m 8,0 C 3,7 C 17,7 km/h (3 Bft) 100,00 %
24.05.2016 08:35 8,6 C 96 % 1009,3 hPa 0,0 l/m 13,4 km/h (3 Bft) W-SW 252 0 min 0,000 mm 0,0 UV-I 66 W/m 8,0 C 4,2 C 16,1 km/h (3 Bft) 100,00 %
24.05.2016 08:36 8,6 C 96 % 1009,3 hPa 0,0 l/m 13,9 km/h (3 Bft) W 261 0 min 0,000 mm 0,0 UV-I 69 W/m 8,0 C 3,9 C 20,9 km/h (4 Bft) 100,00 %
24.05.2016 08:37 8,6 C 96 % 1009,2 hPa 0,0 l/m 14,8 km/h (3 Bft) SW 228 0 min 0,000 mm 0,0 UV-I 69 W/m 8,0 C 3,5 C 19,3 km/h (3 Bft) 100,00 %
24.05.2016 08:38 8,7 C 96 % 1009,3 hPa 0,0 l/m 14,3 km/h (3 Bft) W 260 0 min 0,000 mm 0,0 UV-I 66 W/m 8,1 C 3,9 C 20,9 km/h (4 Bft) 100,00 %
24.05.2016 08:39 8,7 C 96 % 1009,3 hPa 0,0 l/m 14,7 km/h (3 Bft) W-SW 253 0 min 0,000 mm 0,0 UV-I 65 W/m 8,1 C 3,7 C 20,9 km/h (4 Bft) 100,00 %
24.05.2016 08:40 8,7 C 96 % 1009,2 hPa 0,0 l/m 12,8 km/h (3 Bft) W 281 0 min 0,000 mm 0,0 UV-I 69 W/m 8,1 C 4,6 C 17,7 km/h (3 Bft) 100,00 %
24.05.2016 08:41 8,7 C 96 % 1009,3 hPa 0,0 l/m 17,1 km/h (3 Bft) SW 234 0 min 0,000 mm 0,0 UV-I 69 W/m 8,1 C 2,7 C 22,5 km/h (4 Bft) 96,30 %
24.05.2016 08:42 8,7 C 96 % 1009,3 hPa 0,0 l/m 13,6 km/h (3 Bft) W 274 0 min 0,000 mm 0,0 UV-I 69 W/m 8,1 C 4,2 C 17,7 km/h (3 Bft) 100,00 %
24.05.2016 08:43 8,7 C 96 % 1009,3 hPa 0,0 l/m 8,6 km/h (2 Bft) W 263 0 min 0,000 mm 0,0 UV-I 70 W/m 8,1 C 7,1 C 14,5 km/h (3 Bft) 100,00 %
24.05.2016 08:44 8,7 C 96 % 1009,3 hPa 0,0 l/m 14,4 km/h (3 Bft) W-SW 242 0 min 0,000 mm 0,0 UV-I 69 W/m 8,1 C 3,8 C 19,3 km/h (3 Bft) 100,00 %
24.05.2016 08:45 8,7 C 96 % 1009,2 hPa 0,0 l/m 14,8 km/h (3 Bft) W-SW 254 0 min 0,000 mm 0,0 UV-I 70 W/m 8,1 C 3,6 C 22,5 km/h (4 Bft) 100,00 %
24.05.2016 08:46 8,7 C 96 % 1009,2 hPa 0,0 l/m 17,5 km/h (3 Bft) S-SW 209 0 min 0,000 mm 0,0 UV-I 71 W/m 8,1 C 2,5 C 20,9 km/h (4 Bft) 100,00 %
24.05.2016 08:47 8,7 C 96 % 1009,2 hPa 0,0 l/m 16,1 km/h (3 Bft) W-SW 249 0 min 0,000 mm 0,0 UV-I 74 W/m 8,1 C 3,1 C 24,1 km/h (4 Bft) 100,00 %
24.05.2016 08:48 8,7 C 96 % 1009,2 hPa 0,0 l/m 12,9 km/h (3 Bft) W-SW 244 0 min 0,000 mm 0,0 UV-I 70 W/m 8,1 C 4,6 C 16,1 km/h (3 Bft) 100,00 %
24.05.2016 08:49 8,7 C 96 % 1009,2 hPa 0,0 l/m 12,2 km/h (2 Bft) SW 234 0 min 0,000 mm 0,0 UV-I 67 W/m 8,1 C 4,9 C 17,7 km/h (3 Bft) 100,00 %
24.05.2016 08:50 8,7 C 96 % 1009,2 hPa 0,0 l/m 11,2 km/h (2 Bft) W-SW 258 0 min 0,000 mm 0,0 UV-I 67 W/m 8,1 C 5,5 C 17,7 km/h (3 Bft) 100,00 %
24.05.2016 08:51 8,8 C 96 % 1009,2 hPa 0,0 l/m 14,4 km/h (3 Bft) SW 216 0 min 0,000 mm 0,0 UV-I 67 W/m 8,2 C 4,0 C 20,9 km/h (4 Bft) 100,00 %
24.05.2016 08:52 8,7 C 96 % 1009,2 hPa 0,0 l/m 11,3 km/h (2 Bft) W-SW 246 0 min 0,000 mm 0,0 UV-I 69 W/m 8,1 C 5,4 C 14,5 km/h (3 Bft) 100,00 %
24.05.2016 08:53 8,8 C 96 % 1009,2 hPa 0,0 l/m 11,1 km/h (2 Bft) W 259 0 min 0,000 mm 0,0 UV-I 66 W/m 8,2 C 5,6 C 14,5 km/h (3 Bft) 100,00 %
24.05.2016 08:54 8,8 C 96 % 1009,2 hPa 0,0 l/m 10,5 km/h (2 Bft) W 263 0 min 0,000 mm 0,0 UV-I 66 W/m 8,2 C 6,0 C 16,1 km/h (3 Bft) 100,00 %
24.05.2016 08:55 8,8 C 96 % 1009,2 hPa 0,0 l/m 14,0 km/h (3 Bft) W-SW 242 0 min 0,000 mm 0,0 UV-I 61 W/m 8,2 C 4,1 C 20,9 km/h (4 Bft) 100,00 %
24.05.2016 08:56 8,8 C 96 % 1009,2 hPa 0,0 l/m 15,9 km/h (3 Bft) SW 223 0 min 0,000 mm 0,0 UV-I 60 W/m 8,2 C 3,3 C 19,3 km/h (3 Bft) 100,00 %
24.05.2016 08:57 8,8 C 96 % 1009,3 hPa 0,0 l/m 11,2 km/h (2 Bft) W 266 0 min 0,000 mm 0,0 UV-I 57 W/m 8,2 C 5,6 C 14,5 km/h (3 Bft) 98,48 %
24.05.2016 08:58 8,8 C 96 % 1009,2 hPa 0,0 l/m 9,7 km/h (2 Bft) SW 220 0 min 0,000 mm 0,0 UV-I 54 W/m 8,2 C 6,5 C 16,1 km/h (3 Bft) 100,00 %
24.05.2016 08:59 8,8 C 96 % 1009,2 hPa 0,0 l/m 18,1 km/h (3 Bft) W-SW 248 0 min 0,000 mm 0,0 UV-I 53 W/m 8,2 C 2,4 C 24,1 km/h (4 Bft) 100,00 %
24.05.2016 09:00 8,8 C 96 % 1009,3 hPa 0,2 l/m 14,8 km/h (3 Bft) SW 215 0 min 0,000 mm 0,0 UV-I 51 W/m 8,2 C 3,8 C 24,1 km/h (4 Bft) 100,00 %
24.05.2016 09:02 8,8 C 96 % 1009,3 hPa 0,0 l/m 12,5 km/h (3 Bft) W-SW 255 0 min 0,026 mm 0,0 UV-I 51 W/m 8,2 C 4,9 C 19,3 km/h (3 Bft) 100,00 %
24.05.2016 09:03 8,8 C 96 % 1009,3 hPa 0,0 l/m 13,6 km/h (3 Bft) SW 222 0 min 0,000 mm 0,0 UV-I 54 W/m 8,2 C 4,3 C 16,1 km/h (3 Bft) 100,00 %
24.05.2016 09:04 8,8 C 96 % 1009,3 hPa 0,0 l/m 12,8 km/h (3 Bft) W-SW 240 0 min 0,000 mm 0,0 UV-I 55 W/m 8,2 C 4,7 C 20,9 km/h (4 Bft) 100,00 %
24.05.2016 09:05 8,8 C 96 % 1009,3 hPa 0,0 l/m 12,2 km/h (2 Bft) W 261 0 min 0,000 mm 0,0 UV-I 53 W/m 8,2 C 5,0 C 17,7 km/h (3 Bft) 100,00 %
24.05.2016 09:06 8,8 C 96 % 1009,3 hPa 0,0 l/m 10,5 km/h (2 Bft) W-SW 257 0 min 0,000 mm 0,0 UV-I 55 W/m 8,2 C 6,0 C 14,5 km/h (3 Bft) 100,00 %
24.05.2016 09:07 8,8 C 96 % 1009,3 hPa 0,0 l/m 10,4 km/h (2 Bft) W 270 0 min 0,000 mm 0,0 UV-I 60 W/m 8,2 C 6,0 C 14,5 km/h (3 Bft) 100,00 %
24.05.2016 09:08 8,8 C 96 % 1009,2 hPa 0,0 l/m 12,6 km/h (3 Bft) W-SW 250 0 min 0,000 mm 0,0 UV-I 61 W/m 8,2 C 4,8 C 19,3 km/h (3 Bft) 100,00 %
24.05.2016 09:09 8,9 C 96 % 1009,2 hPa 0,0 l/m 11,9 km/h (2 Bft) W-SW 244 0 min 0,000 mm 0,0 UV-I 63 W/m 8,3 C 5,3 C 16,1 km/h (3 Bft) 100,00 %
24.05.2016 09:10 8,9 C 96 % 1009,3 hPa 0,0 l/m 11,0 km/h (2 Bft) W 276 0 min 0,000 mm 0,0 UV-I 60 W/m 8,3 C 5,8 C 16,1 km/h (3 Bft) 95,65 %
24.05.2016 09:11 8,9 C 96 % 1009,3 hPa 0,0 l/m 9,9 km/h (2 Bft) SW 217 0 min 0,000 mm 0,0 UV-I 58 W/m 8,3 C 6,4 C 12,9 km/h (3 Bft) 100,00 %
24.05.2016 09:12 8,9 C 96 % 1009,3 hPa 0,0 l/m 10,5 km/h (2 Bft) W 261 0 min 0,000 mm 0,0 UV-I 60 W/m 8,3 C 6,1 C 14,5 km/h (3 Bft) 91,30 %
24.05.2016 09:13 8,9 C 96 % 1009,3 hPa 0,0 l/m 13,3 km/h (3 Bft) SW 230 0 min 0,000 mm 0,0 UV-I 61 W/m 8,3 C 4,6 C 19,3 km/h (3 Bft) 100,00 %
24.05.2016 09:14 8,9 C 96 % 1009,3 hPa 0,0 l/m 16,7 km/h (3 Bft) W 261 0 min 0,000 mm 0,0 UV-I 58 W/m 8,3 C 3,1 C 22,5 km/h (4 Bft) 100,00 %
24.05.2016 09:15 8,9 C 96 % 1009,3 hPa 0,0 l/m 10,3 km/h (2 Bft) W-SW 254 0 min 0,000 mm 0,0 UV-I 56 W/m 8,3 C 6,2 C 16,1 km/h (3 Bft) 100,00 %
24.05.2016 09:16 8,9 C 96 % 1009,3 hPa 0,0 l/m 13,7 km/h (3 Bft) W-SW 250 0 min 0,000 mm 0,0 UV-I 56 W/m 8,3 C 4,4 C 17,7 km/h (3 Bft) 100,00 %
24.05.2016 09:17 8,9 C 96 % 1009,3 hPa 0,0 l/m 14,1 km/h (3 Bft) W-SW 257 0 min 0,000 mm 0,0 UV-I 55 W/m 8,3 C 4,2 C 19,3 km/h (3 Bft) 100,00 %
24.05.2016 09:18 8,9 C 96 % 1009,3 hPa 0,0 l/m 13,2 km/h (3 Bft) W-SW 257 0 min 0,000 mm 0,0 UV-I 52 W/m 8,3 C 4,6 C 19,3 km/h (3 Bft) 100,00 %
24.05.2016 09:19 8,9 C 96 % 1009,4 hPa 0,0 l/m 10,7 km/h (2 Bft) W 265 0 min 0,000 mm 0,0 UV-I 52 W/m 8,3 C 6,0 C 16,1 km/h (3 Bft) 100,00 %
24.05.2016 09:20 8,9 C 96 % 1009,3 hPa 0,0 l/m 13,5 km/h (3 Bft) W-SW 250 0 min 0,000 mm 0,0 UV-I 54 W/m 8,3 C 4,5 C 19,3 km/h (3 Bft) 96,30 %
24.05.2016 09:21 8,9 C 96 % 1009,3 hPa 0,0 l/m 8,6 km/h (2 Bft) SW 231 0 min 0,000 mm 0,0 UV-I 58 W/m 8,3 C 7,3 C 14,5 km/h (3 Bft) 100,00 %
24.05.2016 09:22 9,0 C 96 % 1009,3 hPa 0,0 l/m 12,0 km/h (2 Bft) SW 236 0 min 0,000 mm 0,0 UV-I 58 W/m 8,4 C 5,4 C 14,5 km/h (3 Bft) 100,00 %
24.05.2016 09:23 9,0 C 96 % 1009,3 hPa 0,0 l/m 10,7 km/h (2 Bft) SW 229 0 min 0,000 mm 0,0 UV-I 55 W/m 8,4 C 6,1 C 14,5 km/h (3 Bft) 100,00 %
24.05.2016 09:24 9,0 C 96 % 1009,4 hPa 0,0 l/m 9,6 km/h (2 Bft) W 268 0 min 0,000 mm 0,0 UV-I 52 W/m 8,4 C 6,7 C 14,5 km/h (3 Bft) 100,00 %
24.05.2016 09:25 9,1 C 96 % 1009,4 hPa 0,0 l/m 10,3 km/h (2 Bft) SW 234 0 min 0,000 mm 0,0 UV-I 52 W/m 8,5 C 6,4 C 14,5 km/h (3 Bft) 96,55 %
24.05.2016 09:26 9,1 C 96 % 1009,4 hPa 0,2 l/m 12,9 km/h (3 Bft) W-SW 257 0 min 0,000 mm 0,0 UV-I 57 W/m 8,5 C 5,0 C 19,3 km/h (3 Bft) 100,00 %
24.05.2016 09:27 9,1 C 96 % 1009,4 hPa 0,0 l/m 11,3 km/h (2 Bft) W-SW 244 0 min 0,000 mm 0,0 UV-I 63 W/m 8,5 C 5,9 C 14,5 km/h (3 Bft) 100,00 %
24.05.2016 09:28 9,1 C 96 % 1009,4 hPa 0,0 l/m 10,1 km/h (2 Bft) W-SW 252 0 min 0,000 mm 0,0 UV-I 62 W/m 8,5 C 6,5 C 14,5 km/h (3 Bft) 95,83 %
24.05.2016 09:29 9,1 C 96 % 1009,4 hPa 0,0 l/m 9,0 km/h (2 Bft) W-SW 245 0 min 0,000 mm 0,0 UV-I 61 W/m 8,5 C 7,2 C 14,5 km/h (3 Bft) 100,00 %
24.05.2016 09:30 9,1 C 96 % 1009,4 hPa 0,0 l/m 11,7 km/h (2 Bft) S-SW 208 0 min 0,000 mm 0,0 UV-I 63 W/m 8,5 C 5,6 C 17,7 km/h (3 Bft) 95,24 %
24.05.2016 09:31 9,1 C 96 % 1009,3 hPa 0,0 l/m 10,2 km/h (2 Bft) W 273 0 min 0,000 mm 0,0 UV-I 65 W/m 8,5 C 6,5 C 22,5 km/h (4 Bft) 95,65 %
24.05.2016 09:32 9,1 C 96 % 1009,3 hPa 0,0 l/m 12,2 km/h (2 Bft) SW 223 0 min 0,000 mm 0,0 UV-I 63 W/m 8,5 C 5,4 C 16,1 km/h (3 Bft) 100,00 %
24.05.2016 09:33 9,1 C 96 % 1009,4 hPa 0,0 l/m 13,4 km/h (3 Bft) W-SW 245 0 min 0,000 mm 0,0 UV-I 66 W/m 8,5 C 4,8 C 16,1 km/h (3 Bft) 100,00 %
24.05.2016 09:34 9,1 C 96 % 1009,4 hPa 0,0 l/m 8,3 km/h (2 Bft) W 261 0 min 0,000 mm 0,0 UV-I 71 W/m 8,5 C 7,7 C 12,9 km/h (3 Bft) 100,00 %
24.05.2016 09:35 9,1 C 96 % 1009,4 hPa 0,0 l/m 9,2 km/h (2 Bft) SW 235 0 min 0,000 mm 0,0 UV-I 72 W/m 8,5 C 7,1 C 16,1 km/h (3 Bft) 100,00 %
24.05.2016 09:36 9,1 C 96 % 1009,4 hPa 0,0 l/m 8,5 km/h (2 Bft) S-SW 207 0 min 0,000 mm 0,0 UV-I 65 W/m 8,5 C 7,6 C 12,9 km/h (3 Bft) 100,00 %
24.05.2016 09:37 9,1 C 96 % 1009,4 hPa 0,0 l/m 11,0 km/h (2 Bft) W 265 0 min 0,000 mm 0,0 UV-I 62 W/m 8,5 C 6,0 C 16,1 km/h (3 Bft) 94,12 %
24.05.2016 09:38 9,2 C 96 % 1009,4 hPa 0,0 l/m 16,3 km/h (3 Bft) W-SW 250 0 min 0,000 mm 0,0 UV-I 62 W/m 8,6 C 3,6 C 22,5 km/h (4 Bft) 100,00 %
24.05.2016 09:39 9,2 C 96 % 1009,4 hPa 0,0 l/m 14,2 km/h (3 Bft) SW 219 0 min 0,000 mm 0,0 UV-I 60 W/m 8,6 C 4,5 C 19,3 km/h (3 Bft) 93,33 %
24.05.2016 09:40 9,2 C 96 % 1009,4 hPa 0,0 l/m 7,4 km/h (2 Bft) S-SW 210 0 min 0,000 mm 0,0 UV-I 57 W/m 8,6 C 8,4 C 17,7 km/h (3 Bft) 100,00 %
24.05.2016 09:41 9,2 C 96 % 1009,4 hPa 0,0 l/m 10,3 km/h (2 Bft) SW 219 0 min 0,000 mm 0,0 UV-I 57 W/m 8,6 C 6,5 C 16,1 km/h (3 Bft) 100,00 %
24.05.2016 09:42 9,2 C 96 % 1009,5 hPa 0,0 l/m 10,2 km/h (2 Bft) SW 235 0 min 0,000 mm 0,0 UV-I 58 W/m 8,6 C 6,6 C 19,3 km/h (3 Bft) 95,83 %
24.05.2016 09:43 9,2 C 96 % 1009,5 hPa 0,0 l/m 12,8 km/h (3 Bft) W-SW 240 0 min 0,000 mm 0,0 UV-I 61 W/m 8,6 C 5,2 C 17,7 km/h (3 Bft) 100,00 %
24.05.2016 09:44 9,2 C 96 % 1009,5 hPa 0,2 l/m 8,0 km/h (2 Bft) W-SW 242 0 min 0,000 mm 0,0 UV-I 60 W/m 8,6 C 8,0 C 11,3 km/h (2 Bft) 100,00 %
24.05.2016 09:45 9,2 C 96 % 1009,5 hPa 0,0 l/m 10,3 km/h (2 Bft) SW 215 0 min 0,000 mm 0,0 UV-I 56 W/m 8,6 C 6,5 C 17,7 km/h (3 Bft) 100,00 %
24.05.2016 09:46 9,2 C 96 % 1009,4 hPa 0,0 l/m 9,7 km/h (2 Bft) SW 231 0 min 0,000 mm 0,0 UV-I 57 W/m 8,6 C 6,9 C 14,5 km/h (3 Bft) 95,65 %
24.05.2016 09:47 9,2 C 96 % 1009,5 hPa 0,0 l/m 13,2 km/h (3 Bft) SW 219 0 min 0,000 mm 0,0 UV-I 59 W/m 8,6 C 5,0 C 20,9 km/h (4 Bft) 100,00 %
24.05.2016 09:48 9,2 C 96 % 1009,5 hPa 0,0 l/m 12,4 km/h (3 Bft) W-SW 248 0 min 0,000 mm 0,0 UV-I 62 W/m 8,6 C 5,4 C 17,7 km/h (3 Bft) 95,65 %
24.05.2016 09:49 9,2 C 96 % 1009,5 hPa 0,0 l/m 13,3 km/h (3 Bft) W-SW 244 0 min 0,000 mm 0,0 UV-I 62 W/m 8,6 C 4,9 C 17,7 km/h (3 Bft) 100,00 %
24.05.2016 09:50 9,2 C 96 % 1009,5 hPa 0,0 l/m 9,1 km/h (2 Bft) SW 217 0 min 0,000 mm 0,0 UV-I 60 W/m 8,6 C 7,3 C 14,5 km/h (3 Bft) 92,31 %
24.05.2016 09:51 9,2 C 96 % 1009,7 hPa 0,0 l/m 13,6 km/h (3 Bft) S-SW 213 0 min 0,000 mm 0,0 UV-I 62 W/m 8,6 C 4,8 C 17,7 km/h (3 Bft) 100,00 %
24.05.2016 09:52 9,2 C 96 % 1009,7 hPa 0,0 l/m 12,1 km/h (2 Bft) S-SW 213 0 min 0,000 mm 0,0 UV-I 58 W/m 8,6 C 5,5 C 17,7 km/h (3 Bft) 92,31 %
24.05.2016 09:53 9,2 C 96 % 1009,7 hPa 0,0 l/m 12,2 km/h (2 Bft) S 190 0 min 0,000 mm 0,0 UV-I 58 W/m 8,6 C 5,5 C 17,7 km/h (3 Bft) 96,30 %
24.05.2016 09:54 9,2 C 96 % 1009,8 hPa 0,0 l/m 10,9 km/h (2 Bft) W-SW 254 0 min 0,000 mm 0,0 UV-I 58 W/m 8,6 C 6,2 C 16,1 km/h (3 Bft) 100,00 %
24.05.2016 09:55 9,2 C 96 % 1009,8 hPa 0,0 l/m 11,7 km/h (2 Bft) W-SW 248 0 min 0,000 mm 0,0 UV-I 59 W/m 8,6 C 5,8 C 16,1 km/h (3 Bft) 91,67 %
24.05.2016 09:56 9,2 C 96 % 1009,8 hPa 0,0 l/m 16,3 km/h (3 Bft) W-SW 245 0 min 0,000 mm 0,0 UV-I 60 W/m 8,6 C 3,6 C 20,9 km/h (4 Bft) 100,00 %
24.05.2016 09:57 9,2 C 96 % 1009,7 hPa 0,0 l/m 16,8 km/h (3 Bft) W-SW 250 0 min 0,000 mm 0,0 UV-I 62 W/m 8,6 C 3,4 C 20,9 km/h (4 Bft) 96,30 %
24.05.2016 09:58 9,2 C 96 % 1009,7 hPa 0,0 l/m 12,0 km/h (2 Bft) S-SW 213 0 min 0,000 mm 0,0 UV-I 61 W/m 8,6 C 5,6 C 19,3 km/h (3 Bft) 100,00 %
24.05.2016 09:59 9,3 C 96 % 1009,7 hPa 0,0 l/m 13,5 km/h (3 Bft) W-NW 284 0 min 0,000 mm 0,0 UV-I 64 W/m 8,7 C 5,0 C 17,7 km/h (3 Bft) 95,83 %
24.05.2016 10:00 9,3 C 96 % 1009,7 hPa 0,2 l/m 11,5 km/h (2 Bft) W-SW 250 0 min 0,025 mm 0,0 UV-I 66 W/m 8,7 C 6,0 C 14,5 km/h (3 Bft) 91,30 %
24.05.2016 10:01 9,3 C 96 % 1009,8 hPa 0,0 l/m 17,0 km/h (3 Bft) W 263 0 min 0,000 mm 0,0 UV-I 67 W/m 8,7 C 3,5 C 22,5 km/h (4 Bft) 100,00 %
24.05.2016 10:02 9,3 C 96 % 1009,7 hPa 0,0 l/m 11,8 km/h (2 Bft) W-SW 241 0 min 0,000 mm 0,0 UV-I 70 W/m 8,7 C 5,8 C 16,1 km/h (3 Bft) 96,15 %
24.05.2016 10:03 9,3 C 96 % 1009,7 hPa 0,0 l/m 9,7 km/h (2 Bft) SW 230 0 min 0,000 mm 0,0 UV-I 71 W/m 8,7 C 7,0 C 14,5 km/h (3 Bft) 91,67 %
24.05.2016 10:04 9,3 C 96 % 1009,7 hPa 0,0 l/m 11,2 km/h (2 Bft) W-SW 243 0 min 0,000 mm 0,0 UV-I 70 W/m 8,7 C 6,1 C 14,5 km/h (3 Bft) 96,67 %
24.05.2016 10:05 9,3 C 96 % 1009,7 hPa 0,0 l/m 9,3 km/h (2 Bft) W-SW 249 0 min 0,000 mm 0,0 UV-I 63 W/m 8,7 C 7,3 C 12,9 km/h (3 Bft) 100,00 %
24.05.2016 10:06 9,3 C 96 % 1009,7 hPa 0,0 l/m 13,3 km/h (3 Bft) SW 227 0 min 0,000 mm 0,0 UV-I 60 W/m 8,7 C 5,1 C 16,1 km/h (3 Bft) 96,30 %
24.05.2016 10:07 9,3 C 96 % 1009,7 hPa 0,0 l/m 13,8 km/h (3 Bft) SW 223 0 min 0,000 mm 0,0 UV-I 70 W/m 8,7 C 4,8 C 22,5 km/h (4 Bft) 100,00 %
24.05.2016 10:08 9,3 C 96 % 1009,7 hPa 0,0 l/m 12,6 km/h (3 Bft) W 267 0 min 0,000 mm 0,0 UV-I 78 W/m 8,7 C 5,4 C 19,3 km/h (3 Bft) 96,30 %
24.05.2016 10:09 9,3 C 96 % 1009,7 hPa 0,0 l/m 10,3 km/h (2 Bft) W-SW 253 0 min 0,000 mm 0,0 UV-I 77 W/m 8,7 C 6,6 C 16,1 km/h (3 Bft) 96,15 %
24.05.2016 10:10 9,3 C 96 % 1009,7 hPa 0,0 l/m 10,2 km/h (2 Bft) W 260 0 min 0,000 mm 0,0 UV-I 74 W/m 8,7 C 6,7 C 12,9 km/h (3 Bft) 100,00 %
24.05.2016 10:11 9,3 C 96 % 1009,7 hPa 0,0 l/m 5,9 km/h (2 Bft) W 271 0 min 0,000 mm 0,0 UV-I 70 W/m 8,7 C 9,3 C 9,7 km/h (2 Bft) 96,15 %
24.05.2016 10:12 9,3 C 96 % 1009,8 hPa 0,0 l/m 7,9 km/h (2 Bft) SW 236 0 min 0,000 mm 0,0 UV-I 65 W/m 8,7 C 8,2 C 11,3 km/h (2 Bft) 100,00 %
24.05.2016 10:13 9,4 C 96 % 1009,8 hPa 0,0 l/m 9,1 km/h (2 Bft) SW 232 0 min 0,000 mm 0,0 UV-I 59 W/m 8,8 C 7,5 C 12,9 km/h (3 Bft) 96,15 %
24.05.2016 10:14 9,4 C 96 % 1009,8 hPa 0,0 l/m 10,0 km/h (2 Bft) W 271 0 min 0,000 mm 0,0 UV-I 58 W/m 8,8 C 6,9 C 12,9 km/h (3 Bft) 100,00 %
24.05.2016 10:15 9,4 C 96 % 1009,8 hPa 0,0 l/m 9,8 km/h (2 Bft) W-SW 251 0 min 0,000 mm 0,0 UV-I 56 W/m 8,8 C 7,1 C 14,5 km/h (3 Bft) 86,96 %
24.05.2016 10:16 9,4 C 96 % 1009,8 hPa 0,0 l/m 9,6 km/h (2 Bft) W-SW 250 0 min 0,000 mm 0,0 UV-I 57 W/m 8,8 C 7,2 C 14,5 km/h (3 Bft) 95,83 %
24.05.2016 10:17 9,4 C 96 % 1009,8 hPa 0,0 l/m 6,8 km/h (2 Bft) W-SW 242 0 min 0,000 mm 0,0 UV-I 53 W/m 8,8 C 9,1 C 12,9 km/h (3 Bft) 100,00 %
24.05.2016 10:18 9,4 C 96 % 1009,9 hPa 0,2 l/m 8,1 km/h (2 Bft) SW 229 0 min 0,000 mm 0,0 UV-I 49 W/m 8,8 C 8,2 C 12,9 km/h (3 Bft) 93,10 %
24.05.2016 10:19 9,4 C 96 % 1009,9 hPa 0,0 l/m 8,2 km/h (2 Bft) W 270 0 min 0,000 mm 0,0 UV-I 47 W/m 8,8 C 8,1 C 14,5 km/h (3 Bft) 100,00 %
24.05.2016 10:20 9,4 C 96 % 1009,9 hPa 0,0 l/m 9,3 km/h (2 Bft) SW 217 0 min 0,000 mm 0,0 UV-I 46 W/m 8,8 C 7,4 C 14,5 km/h (3 Bft) 100,00 %
24.05.2016 10:21 9,4 C 96 % 1010,0 hPa 0,0 l/m 7,0 km/h (2 Bft) W-SW 252 0 min 0,000 mm 0,0 UV-I 46 W/m 8,8 C 9,0 C 11,3 km/h (2 Bft) 93,33 %
24.05.2016 10:22 9,4 C 96 % 1010,0 hPa 0,0 l/m 4,7 km/h (1 Bft) W-SW 239 0 min 0,000 mm 0,0 UV-I 41 W/m 8,8 C 9,4 C 8,0 km/h (2 Bft) 100,00 %
24.05.2016 10:23 9,4 C 96 % 1010,0 hPa 0,0 l/m 6,4 km/h (2 Bft) W-SW 254 0 min 0,000 mm 0,0 UV-I 40 W/m 8,8 C 9,4 C 9,7 km/h (2 Bft) 100,00 %
24.05.2016 10:24 9,4 C 96 % 1010,0 hPa 0,0 l/m 6,8 km/h (2 Bft) SW 230 0 min 0,000 mm 0,0 UV-I 40 W/m 8,8 C 9,1 C 9,7 km/h (2 Bft) 100,00 %
24.05.2016 10:25 9,4 C 96 % 1010,0 hPa 0,0 l/m 8,0 km/h (2 Bft) S-SW 212 0 min 0,000 mm 0,0 UV-I 44 W/m 8,8 C 8,2 C 11,3 km/h (2 Bft) 96,30 %
24.05.2016 10:26 9,4 C 96 % 1010,0 hPa 0,0 l/m 12,0 km/h (2 Bft) S-SW 212 0 min 0,000 mm 0,0 UV-I 48 W/m 8,8 C 5,8 C 17,7 km/h (3 Bft) 100,00 %
24.05.2016 10:27 9,4 C 96 % 1010,0 hPa 0,0 l/m 12,7 km/h (3 Bft) W 266 0 min 0,000 mm 0,0 UV-I 55 W/m 8,8 C 5,5 C 19,3 km/h (3 Bft) 100,00 %
24.05.2016 10:28 9,4 C 96 % 1010,0 hPa 0,2 l/m 13,9 km/h (3 Bft) SW 229 0 min 0,000 mm 0,0 UV-I 54 W/m 8,8 C 4,9 C 22,5 km/h (4 Bft) 95,65 %
24.05.2016 10:29 9,4 C 96 % 1010,0 hPa 0,0 l/m 15,3 km/h (3 Bft) SW 229 0 min 0,000 mm 0,0 UV-I 50 W/m 8,8 C 4,3 C 19,3 km/h (3 Bft) 100,00 %
24.05.2016 10:30 9,3 C 96 % 1010,0 hPa 0,0 l/m 12,4 km/h (3 Bft) SW 216 0 min 0,000 mm 0,0 UV-I 49 W/m 8,7 C 5,5 C 16,1 km/h (3 Bft) 100,00 %
24.05.2016 10:31 9,4 C 96 % 1010,0 hPa 0,0 l/m 14,7 km/h (3 Bft) SW 219 0 min 0,000 mm 0,0 UV-I 47 W/m 8,8 C 4,5 C 19,3 km/h (3 Bft) 100,00 %
24.05.2016 10:32 9,3 C 96 % 1010,0 hPa 0,0 l/m 10,2 km/h (2 Bft) SW 229 0 min 0,000 mm 0,0 UV-I 47 W/m 8,7 C 6,7 C 19,3 km/h (3 Bft) 100,00 %
24.05.2016 10:33 9,4 C 96 % 1010,0 hPa 0,0 l/m 12,2 km/h (2 Bft) W-SW 240 0 min 0,000 mm 0,0 UV-I 51 W/m 8,8 C 5,7 C 20,9 km/h (4 Bft) 100,00 %
24.05.2016 10:34 9,4 C 96 % 1010,0 hPa 0,0 l/m 9,0 km/h (2 Bft) W 275 0 min 0,000 mm 0,0 UV-I 60 W/m 8,8 C 7,6 C 12,9 km/h (3 Bft) 100,00 %
24.05.2016 10:35 9,4 C 96 % 1010,0 hPa 0,0 l/m 9,9 km/h (2 Bft) W-SW 242 0 min 0,000 mm 0,0 UV-I 68 W/m 8,8 C 7,0 C 12,9 km/h (3 Bft) 96,30 %
24.05.2016 10:36 9,4 C 96 % 1010,0 hPa 0,0 l/m 10,2 km/h (2 Bft) S-SW 193 0 min 0,000 mm 0,0 UV-I 74 W/m 8,8 C 6,8 C 16,1 km/h (3 Bft) 100,00 %
24.05.2016 10:37 9,4 C 96 % 1010,0 hPa 0,2 l/m 9,3 km/h (2 Bft) S-SW 200 0 min 0,000 mm 0,3 UV-I 76 W/m 8,8 C 7,4 C 16,1 km/h (3 Bft) 96,30 %
24.05.2016 10:38 9,4 C 96 % 1010,0 hPa 0,0 l/m 13,3 km/h (3 Bft) SW 227 0 min 0,000 mm 0,0 UV-I 71 W/m 8,8 C 5,2 C 19,3 km/h (3 Bft) 100,00 %
24.05.2016 10:39 9,4 C 96 % 1010,0 hPa 0,0 l/m 17,5 km/h (3 Bft) W-SW 240 0 min 0,000 mm 0,0 UV-I 67 W/m 8,8 C 3,4 C 22,5 km/h (4 Bft) 100,00 %
24.05.2016 10:40 9,4 C 96 % 1010,0 hPa 0,0 l/m 14,5 km/h (3 Bft) W-SW 242 0 min 0,000 mm 0,2 UV-I 71 W/m 8,8 C 4,6 C 20,9 km/h (4 Bft) 100,00 %
24.05.2016 10:41 9,4 C 96 % 1010,0 hPa 0,2 l/m 10,4 km/h (2 Bft) W-SW 240 0 min 0,000 mm 0,5 UV-I 76 W/m 8,8 C 6,7 C 14,5 km/h (3 Bft) 100,00 %
24.05.2016 10:42 9,4 C 96 % 1010,0 hPa 0,0 l/m 13,6 km/h (3 Bft) S-SW 208 0 min 0,000 mm 0,2 UV-I 71 W/m 8,8 C 5,0 C 20,9 km/h (4 Bft) 100,00 %
24.05.2016 10:43 9,4 C 96 % 1010,0 hPa 0,0 l/m 15,3 km/h (3 Bft) SW 236 0 min 0,000 mm 0,0 UV-I 66 W/m 8,8 C 4,3 C 20,9 km/h (4 Bft) 100,00 %
24.05.2016 10:44 9,4 C 96 % 1010,0 hPa 0,0 l/m 14,5 km/h (3 Bft) SW 234 0 min 0,000 mm 0,0 UV-I 73 W/m 8,8 C 4,6 C 19,3 km/h (3 Bft) 100,00 %
24.05.2016 10:45 9,4 C 96 % 1010,0 hPa 0,0 l/m 14,9 km/h (3 Bft) SW 217 0 min 0,000 mm 0,0 UV-I 74 W/m 8,8 C 4,5 C 22,5 km/h (4 Bft) 96,55 %
24.05.2016 10:46 9,4 C 96 % 1010,0 hPa 0,2 l/m 14,4 km/h (3 Bft) SW 225 0 min 0,000 mm 0,2 UV-I 75 W/m 8,8 C 4,7 C 19,3 km/h (3 Bft) 100,00 %
24.05.2016 10:47 9,4 C 96 % 1010,0 hPa 0,0 l/m 11,7 km/h (2 Bft) SW 221 0 min 0,000 mm 0,5 UV-I 78 W/m 8,8 C 6,0 C 17,7 km/h (3 Bft) 100,00 %
24.05.2016 10:48 9,4 C 96 % 1010,0 hPa 0,0 l/m 12,6 km/h (3 Bft) SW 220 0 min 0,000 mm 0,5 UV-I 77 W/m 8,8 C 5,5 C 17,7 km/h (3 Bft) 100,00 %
24.05.2016 10:49 9,4 C 96 % 1010,0 hPa 0,0 l/m 9,3 km/h (2 Bft) S-SW 207 0 min 0,000 mm 0,5 UV-I 83 W/m 8,8 C 7,4 C 14,5 km/h (3 Bft) 100,00 %
24.05.2016 10:50 9,4 C 96 % 1010,1 hPa 0,2 l/m 10,2 km/h (2 Bft) SW 219 0 min 0,000 mm 0,0 UV-I 73 W/m 8,8 C 6,8 C 12,9 km/h (3 Bft) 100,00 %
24.05.2016 10:51 9,4 C 96 % 1010,1 hPa 0,0 l/m 13,1 km/h (3 Bft) SW 228 0 min 0,000 mm 0,0 UV-I 66 W/m 8,8 C 5,3 C 17,7 km/h (3 Bft) 96,55 %
24.05.2016 10:52 9,4 C 96 % 1010,1 hPa 0,0 l/m 11,9 km/h (2 Bft) W-SW 243 0 min 0,000 mm 0,0 UV-I 65 W/m 8,8 C 5,9 C 16,1 km/h (3 Bft) 100,00 %
24.05.2016 10:53 9,4 C 96 % 1010,0 hPa 0,0 l/m 13,0 km/h (3 Bft) W 263 0 min 0,000 mm 0,0 UV-I 67 W/m 8,8 C 5,3 C 17,7 km/h (3 Bft) 100,00 %
24.05.2016 10:54 9,4 C 96 % 1010,1 hPa 0,0 l/m 13,4 km/h (3 Bft) SW 227 0 min 0,000 mm 0,0 UV-I 70 W/m 8,8 C 5,1 C 24,1 km/h (4 Bft) 96,30 %
24.05.2016 10:55 9,4 C 96 % 1010,0 hPa 0,0 l/m 13,4 km/h (3 Bft) S-SW 212 0 min 0,000 mm 0,0 UV-I 72 W/m 8,8 C 5,1 C 16,1 km/h (3 Bft) 100,00 %
24.05.2016 10:56 9,4 C 96 % 1010,1 hPa 0,2 l/m 16,2 km/h (3 Bft) SW 230 0 min 0,000 mm 0,0 UV-I 73 W/m 8,8 C 3,9 C 24,1 km/h (4 Bft) 100,00 %
24.05.2016 10:57 9,4 C 96 % 1010,1 hPa 0,0 l/m 16,3 km/h (3 Bft) SW 227 0 min 0,000 mm 0,1 UV-I 71 W/m 8,8 C 3,9 C 25,7 km/h (4 Bft) 100,00 %
24.05.2016 10:58 9,4 C 96 % 1010,1 hPa 0,0 l/m 14,9 km/h (3 Bft) S 185 0 min 0,000 mm 0,5 UV-I 77 W/m 8,8 C 4,5 C 19,3 km/h (3 Bft) 100,00 %
24.05.2016 10:59 9,4 C 96 % 1010,1 hPa 0,0 l/m 17,5 km/h (3 Bft) SW 225 0 min 0,000 mm 0,2 UV-I 78 W/m 8,8 C 3,4 C 24,1 km/h (4 Bft) 100,00 %
24.05.2016 11:00 9,4 C 96 % 1010,1 hPa 0,0 l/m 15,5 km/h (3 Bft) SW 214 0 min 0,026 mm 0,3 UV-I 76 W/m 8,8 C 4,2 C 20,9 km/h (4 Bft) 90,91 %
24.05.2016 11:02 9,4 C 96 % 1010,2 hPa 0,0 l/m 9,2 km/h (2 Bft) W-SW 244 0 min 0,000 mm 0,2 UV-I 74 W/m 8,8 C 7,4 C 16,1 km/h (3 Bft) 100,00 %
24.05.2016 11:03 9,4 C 96 % 1010,2 hPa 0,0 l/m 8,8 km/h (2 Bft) SW 225 0 min 0,000 mm 0,2 UV-I 73 W/m 8,8 C 7,7 C 14,5 km/h (3 Bft) 100,00 %
24.05.2016 11:04 9,5 C 96 % 1010,2 hPa 0,2 l/m 12,3 km/h (3 Bft) SW 230 0 min 0,000 mm 0,3 UV-I 75 W/m 8,9 C 5,8 C 16,1 km/h (3 Bft) 100,00 %
24.05.2016 11:05 9,5 C 96 % 1010,2 hPa 0,0 l/m 9,2 km/h (2 Bft) SW 234 0 min 0,000 mm 0,3 UV-I 76 W/m 8,9 C 7,5 C 16,1 km/h (3 Bft) 100,00 %
24.05.2016 11:06 9,5 C 96 % 1010,2 hPa 0,0 l/m 12,1 km/h (2 Bft) W-SW 246 0 min 0,000 mm 0,5 UV-I 77 W/m 8,9 C 5,9 C 17,7 km/h (3 Bft) 100,00 %
24.05.2016 11:07 9,5 C 96 % 1010,2 hPa 0,0 l/m 10,7 km/h (2 Bft) S-SW 197 0 min 0,000 mm 0,1 UV-I 75 W/m 8,9 C 6,6 C 14,5 km/h (3 Bft) 100,00 %
24.05.2016 11:08 9,5 C 96 % 1010,2 hPa 0,0 l/m 14,8 km/h (3 Bft) SW 235 0 min 0,000 mm 0,1 UV-I 76 W/m 8,9 C 4,6 C 17,7 km/h (3 Bft) 100,00 %
24.05.2016 11:09 9,5 C 96 % 1010,2 hPa 0,0 l/m 16,3 km/h (3 Bft) W-SW 238 0 min 0,000 mm 0,5 UV-I 83 W/m 8,9 C 4,0 C 24,1 km/h (4 Bft) 100,00 %
24.05.2016 11:10 9,5 C 96 % 1010,2 hPa 0,0 l/m 15,6 km/h (3 Bft) S-SW 196 0 min 0,000 mm 0,5 UV-I 86 W/m 8,9 C 4,3 C 22,5 km/h (4 Bft) 100,00 %
24.05.2016 11:11 9,5 C 96 % 1010,2 hPa 0,0 l/m 10,2 km/h (2 Bft) SW 223 0 min 0,000 mm 0,5 UV-I 89 W/m 8,9 C 6,9 C 14,5 km/h (3 Bft) 100,00 %
24.05.2016 11:12 9,5 C 96 % 1010,2 hPa 0,0 l/m 15,9 km/h (3 Bft) W-SW 243 0 min 0,000 mm 0,6 UV-I 91 W/m 8,9 C 4,2 C 19,3 km/h (3 Bft) 100,00 %
24.05.2016 11:13 9,5 C 96 % 1010,2 hPa 0,0 l/m 12,0 km/h (2 Bft) SW 225 0 min 0,000 mm 0,6 UV-I 94 W/m 8,9 C 5,9 C 19,3 km/h (3 Bft) 100,00 %
24.05.2016 11:14 9,5 C 96 % 1010,2 hPa 0,0 l/m 15,5 km/h (3 Bft) W-SW 250 0 min 0,000 mm 0,6 UV-I 100 W/m 8,9 C 4,3 C 20,9 km/h (4 Bft) 100,00 %
24.05.2016 11:15 9,6 C 96 % 1010,3 hPa 0,2 l/m 10,9 km/h (2 Bft) W 259 0 min 0,000 mm 0,6 UV-I 104 W/m 9,0 C 6,6 C 14,5 km/h (3 Bft) 100,00 %
24.05.2016 11:16 9,6 C 96 % 1010,3 hPa 0,0 l/m 11,8 km/h (2 Bft) SW 236 0 min 0,000 mm 0,6 UV-I 102 W/m 9,0 C 6,2 C 17,7 km/h (3 Bft) 100,00 %
24.05.2016 11:17 9,6 C 96 % 1010,2 hPa 0,0 l/m 13,2 km/h (3 Bft) SW 221 0 min 0,000 mm 0,6 UV-I 105 W/m 9,0 C 5,5 C 20,9 km/h (4 Bft) 93,33 %
24.05.2016 11:18 9,6 C 96 % 1010,3 hPa 0,0 l/m 17,2 km/h (3 Bft) SW 231 0 min 0,000 mm 0,6 UV-I 102 W/m 9,0 C 3,8 C 20,9 km/h (4 Bft) 100,00 %
24.05.2016 11:19 9,6 C 96 % 1010,3 hPa 0,0 l/m 15,0 km/h (3 Bft) W-SW 244 0 min 0,000 mm 0,6 UV-I 95 W/m 9,0 C 4,6 C 22,5 km/h (4 Bft) 100,00 %
24.05.2016 11:20 9,6 C 96 % 1010,3 hPa 0,0 l/m 16,2 km/h (3 Bft) SW 215 0 min 0,000 mm 0,6 UV-I 95 W/m 9,0 C 4,2 C 20,9 km/h (4 Bft) 100,00 %
24.05.2016 11:21 9,6 C 96 % 1010,3 hPa 0,0 l/m 15,0 km/h (3 Bft) SW 219 0 min 0,000 mm 0,6 UV-I 93 W/m 9,0 C 4,6 C 20,9 km/h (4 Bft) 100,00 %
24.05.2016 11:22 9,6 C 96 % 1010,3 hPa 0,0 l/m 11,9 km/h (2 Bft) SW 233 0 min 0,000 mm 0,6 UV-I 91 W/m 9,0 C 6,1 C 17,7 km/h (3 Bft) 100,00 %
24.05.2016 11:23 9,6 C 96 % 1010,3 hPa 0,0 l/m 11,4 km/h (2 Bft) S-SW 205 0 min 0,000 mm 0,5 UV-I 87 W/m 9,0 C 6,4 C 17,7 km/h (3 Bft) 100,00 %
24.05.2016 11:24 9,6 C 96 % 1010,3 hPa 0,0 l/m 10,1 km/h (2 Bft) W-SW 241 0 min 0,000 mm 0,5 UV-I 89 W/m 9,0 C 7,1 C 14,5 km/h (3 Bft) 93,33 %
24.05.2016 11:25 9,6 C 96 % 1010,4 hPa 0,0 l/m 12,0 km/h (2 Bft) W-NW 298 0 min 0,000 mm 0,6 UV-I 92 W/m 9,0 C 6,1 C 16,1 km/h (3 Bft) 96,15 %
24.05.2016 11:26 9,6 C 96 % 1010,3 hPa 0,2 l/m 14,8 km/h (3 Bft) W-SW 248 0 min 0,000 mm 0,5 UV-I 86 W/m 9,0 C 4,7 C 20,9 km/h (4 Bft) 100,00 %
24.05.2016 11:27 9,6 C 96 % 1010,4 hPa 0,0 l/m 12,9 km/h (3 Bft) W 261 0 min 0,000 mm 0,5 UV-I 87 W/m 9,0 C 5,6 C 17,7 km/h (3 Bft) 100,00 %
24.05.2016 11:28 9,6 C 96 % 1010,3 hPa 0,0 l/m 18,2 km/h (3 Bft) W 267 0 min 0,000 mm 0,6 UV-I 87 W/m 9,0 C 3,4 C 24,1 km/h (4 Bft) 100,00 %
24.05.2016 11:29 9,6 C 96 % 1010,3 hPa 0,0 l/m 17,3 km/h (3 Bft) W-SW 239 0 min 0,000 mm 0,5 UV-I 81 W/m 9,0 C 3,7 C 22,5 km/h (4 Bft) 100,00 %
24.05.2016 11:30 9,6 C 96 % 1010,3 hPa 0,0 l/m 14,0 km/h (3 Bft) SW 226 0 min 0,000 mm 0,5 UV-I 79 W/m 9,0 C 5,1 C 20,9 km/h (4 Bft) 100,00 %
24.05.2016 11:31 9,6 C 96 % 1010,3 hPa 0,0 l/m 15,5 km/h (3 Bft) W-SW 238 0 min 0,000 mm 0,5 UV-I 77 W/m 9,0 C 4,4 C 20,9 km/h (4 Bft) 100,00 %
24.05.2016 11:32 9,6 C 96 % 1010,3 hPa 0,0 l/m 17,9 km/h (3 Bft) SW 214 0 min 0,000 mm 0,5 UV-I 80 W/m 9,0 C 3,5 C 24,1 km/h (4 Bft) 97,56 %
24.05.2016 11:33 9,6 C 95 % 1010,3 hPa 0,0 l/m 17,5 km/h (3 Bft) SW 219 0 min 0,000 mm 0,5 UV-I 86 W/m 8,8 C 3,6 C 25,7 km/h (4 Bft) 100,00 %
24.05.2016 11:34 9,6 C 95 % 1010,3 hPa 0,0 l/m 16,2 km/h (3 Bft) SW 233 0 min 0,000 mm 0,6 UV-I 96 W/m 8,8 C 4,2 C 20,9 km/h (4 Bft) 100,00 %
24.05.2016 11:35 9,6 C 95 % 1010,3 hPa 0,0 l/m 15,6 km/h (3 Bft) SW 231 0 min 0,000 mm 0,6 UV-I 98 W/m 8,8 C 4,4 C 22,5 km/h (4 Bft) 100,00 %
24.05.2016 11:36 9,6 C 95 % 1010,3 hPa 0,0 l/m 16,3 km/h (3 Bft) SW 227 0 min 0,000 mm 0,6 UV-I 100 W/m 8,8 C 4,1 C 25,7 km/h (4 Bft) 96,30 %
24.05.2016 11:37 9,6 C 95 % 1010,3 hPa 0,0 l/m 16,2 km/h (3 Bft) W-SW 254 0 min 0,000 mm 0,6 UV-I 100 W/m 8,8 C 4,2 C 20,9 km/h (4 Bft) 98,52 %
24.05.2016 11:38 9,7 C 95 % 1010,3 hPa 0,0 l/m 13,9 km/h (3 Bft) W-SW 244 0 min 0,000 mm 0,6 UV-I 104 W/m 8,9 C 5,3 C 19,3 km/h (3 Bft) 97,56 %
24.05.2016 11:39 9,7 C 95 % 1010,3 hPa 0,0 l/m 14,0 km/h (3 Bft) W-SW 253 0 min 0,000 mm 0,7 UV-I 112 W/m 8,9 C 5,2 C 20,9 km/h (4 Bft) 100,00 %
24.05.2016 11:40 9,7 C 95 % 1010,3 hPa 0,0 l/m 13,7 km/h (3 Bft) W-SW 252 0 min 0,000 mm 0,7 UV-I 113 W/m 8,9 C 5,3 C 20,9 km/h (4 Bft) 100,00 %
24.05.2016 11:41 9,7 C 95 % 1010,3 hPa 0,0 l/m 22,0 km/h (4 Bft) W-SW 245 0 min 0,000 mm 0,7 UV-I 111 W/m 8,9 C 2,3 C 29,0 km/h (5 Bft) 100,00 %
24.05.2016 11:42 9,7 C 95 % 1010,3 hPa 0,0 l/m 17,4 km/h (3 Bft) SW 227 0 min 0,000 mm 0,7 UV-I 109 W/m 8,9 C 3,8 C 25,7 km/h (4 Bft) 100,00 %
24.05.2016 11:43 9,7 C 95 % 1010,2 hPa 0,0 l/m 18,9 km/h (3 Bft) SW 219 0 min 0,000 mm 0,7 UV-I 110 W/m 8,9 C 3,3 C 30,6 km/h (5 Bft) 100,00 %
24.05.2016 11:44 9,7 C 95 % 1010,2 hPa 0,0 l/m 17,5 km/h (3 Bft) W 263 0 min 0,000 mm 0,7 UV-I 115 W/m 8,9 C 3,8 C 24,1 km/h (4 Bft) 100,00 %
24.05.2016 11:45 9,7 C 95 % 1010,3 hPa 0,0 l/m 13,4 km/h (3 Bft) W-SW 252 0 min 0,000 mm 0,8 UV-I 126 W/m 8,9 C 5,5 C 20,9 km/h (4 Bft) 100,00 %
24.05.2016 11:46 9,7 C 95 % 1010,2 hPa 0,0 l/m 16,3 km/h (3 Bft) W-SW 242 0 min 0,000 mm 0,8 UV-I 129 W/m 8,9 C 4,2 C 22,5 km/h (4 Bft) 100,00 %
24.05.2016 11:47 9,7 C 95 % 1010,2 hPa 0,0 l/m 12,4 km/h (3 Bft) SW 236 0 min 0,000 mm 0,8 UV-I 121 W/m 8,9 C 6,0 C 16,1 km/h (3 Bft) 100,00 %
24.05.2016 11:48 9,8 C 96 % 1010,2 hPa 0,0 l/m 13,5 km/h (3 Bft) SW 232 0 min 0,000 mm 0,8 UV-I 118 W/m 9,2 C 5,6 C 17,7 km/h (3 Bft) 95,65 %
24.05.2016 11:49 9,8 C 96 % 1010,2 hPa 0,0 l/m 16,2 km/h (3 Bft) S-SW 205 0 min 0,000 mm 0,8 UV-I 123 W/m 9,2 C 4,4 C 20,9 km/h (4 Bft) 100,00 %
24.05.2016 11:50 9,8 C 96 % 1010,2 hPa 0,0 l/m 14,7 km/h (3 Bft) S-SW 212 0 min 0,000 mm 0,8 UV-I 127 W/m 9,2 C 5,0 C 20,9 km/h (4 Bft) 96,15 %
24.05.2016 11:51 9,8 C 95 % 1010,2 hPa 0,0 l/m 11,3 km/h (2 Bft) S-SW 207 0 min 0,000 mm 0,8 UV-I 129 W/m 9,0 C 6,6 C 17,7 km/h (3 Bft) 96,30 %
24.05.2016 11:52 9,8 C 95 % 1010,2 hPa 0,0 l/m 17,5 km/h (3 Bft) W-SW 239 0 min 0,000 mm 0,9 UV-I 144 W/m 9,0 C 3,9 C 24,1 km/h (4 Bft) 100,00 %
24.05.2016 11:53 9,8 C 95 % 1010,2 hPa 0,0 l/m 14,5 km/h (3 Bft) SW 232 0 min 0,000 mm 0,9 UV-I 149 W/m 9,0 C 5,1 C 20,9 km/h (4 Bft) 96,67 %
24.05.2016 11:54 9,8 C 96 % 1010,2 hPa 0,0 l/m 14,9 km/h (3 Bft) SW 228 0 min 0,000 mm 0,9 UV-I 146 W/m 9,2 C 4,9 C 22,5 km/h (4 Bft) 100,00 %
24.05.2016 11:55 9,8 C 96 % 1010,2 hPa 0,0 l/m 15,0 km/h (3 Bft) SW 219 0 min 0,000 mm 0,9 UV-I 148 W/m 9,2 C 4,9 C 20,9 km/h (4 Bft) 95,83 %
24.05.2016 11:56 9,8 C 96 % 1010,2 hPa 0,0 l/m 14,6 km/h (3 Bft) SW 223 0 min 0,000 mm 1,0 UV-I 147 W/m 9,2 C 5,1 C 24,1 km/h (4 Bft) 100,00 %
24.05.2016 11:57 9,8 C 95 % 1010,2 hPa 0,0 l/m 20,6 km/h (4 Bft) S-SW 211 0 min 0,000 mm 0,9 UV-I 142 W/m 9,0 C 2,8 C 29,0 km/h (5 Bft) 96,15 %
24.05.2016 11:58 9,8 C 95 % 1010,4 hPa 0,0 l/m 19,9 km/h (4 Bft) W-SW 240 0 min 0,000 mm 0,9 UV-I 139 W/m 9,0 C 3,1 C 29,0 km/h (5 Bft) 100,00 %
24.05.2016 11:59 9,8 C 95 % 1010,2 hPa 0,0 l/m 12,3 km/h (3 Bft) SW 233 0 min 0,000 mm 0,9 UV-I 138 W/m 9,0 C 6,1 C 17,7 km/h (3 Bft) 95,65 %
24.05.2016 12:00 9,8 C 95 % 1010,3 hPa 0,0 l/m 15,4 km/h (3 Bft) W-SW 253 0 min 0,000 mm 0,9 UV-I 144 W/m 9,0 C 4,7 C 25,7 km/h (4 Bft) 96,88 %
24.05.2016 12:02 9,9 C 95 % 1010,3 hPa 0,0 l/m 16,3 km/h (3 Bft) W 260 0 min 0,050 mm 0,9 UV-I 144 W/m 9,1 C 4,5 C 25,7 km/h (4 Bft) 97,44 %
24.05.2016 12:03 9,9 C 95 % 1010,3 hPa 0,0 l/m 18,3 km/h (3 Bft) W-SW 238 0 min 0,000 mm 0,9 UV-I 144 W/m 9,1 C 3,7 C 24,1 km/h (4 Bft) 100,00 %
24.05.2016 12:04 9,9 C 95 % 1010,3 hPa 0,0 l/m 17,7 km/h (3 Bft) S-SW 209 0 min 0,000 mm 0,9 UV-I 139 W/m 9,1 C 4,0 C 24,1 km/h (4 Bft) 98,51 %
24.05.2016 12:05 9,9 C 95 % 1010,3 hPa 0,0 l/m 16,7 km/h (3 Bft) W-SW 240 0 min 0,000 mm 0,9 UV-I 132 W/m 9,1 C 4,3 C 20,9 km/h (4 Bft) 97,56 %
24.05.2016 12:06 9,9 C 95 % 1010,4 hPa 0,0 l/m 15,1 km/h (3 Bft) SW 220 0 min 0,000 mm 0,9 UV-I 127 W/m 9,1 C 5,0 C 20,9 km/h (4 Bft) 96,30 %
24.05.2016 12:07 9,9 C 95 % 1010,3 hPa 0,0 l/m 14,1 km/h (3 Bft) SW 214 0 min 0,000 mm 0,8 UV-I 126 W/m 9,1 C 5,4 C 19,3 km/h (3 Bft) 96,15 %
24.05.2016 12:08 9,9 C 95 % 1010,4 hPa 0,0 l/m 19,6 km/h (3 Bft) W-SW 238 0 min 0,000 mm 0,9 UV-I 128 W/m 9,1 C 3,3 C 25,7 km/h (4 Bft) 95,83 %
24.05.2016 12:09 9,9 C 95 % 1010,4 hPa 0,0 l/m 19,5 km/h (3 Bft) W-SW 238 0 min 0,000 mm 0,8 UV-I 123 W/m 9,1 C 3,3 C 24,1 km/h (4 Bft) 100,00 %
24.05.2016 12:10 9,9 C 95 % 1010,4 hPa 0,0 l/m 11,0 km/h (2 Bft) SW 220 0 min 0,000 mm 0,8 UV-I 121 W/m 9,1 C 6,9 C 16,1 km/h (3 Bft) 95,83 %
24.05.2016 12:11 9,9 C 95 % 1010,4 hPa 0,0 l/m 14,8 km/h (3 Bft) SW 221 0 min 0,000 mm 0,8 UV-I 118 W/m 9,1 C 5,1 C 22,5 km/h (4 Bft) 95,65 %
24.05.2016 12:12 9,9 C 95 % 1010,4 hPa 0,0 l/m 17,2 km/h (3 Bft) W-SW 247 0 min 0,000 mm 0,8 UV-I 116 W/m 9,1 C 4,1 C 20,9 km/h (4 Bft) 100,00 %
24.05.2016 12:13 9,9 C 95 % 1010,4 hPa 0,0 l/m 14,6 km/h (3 Bft) W-SW 239 0 min 0,000 mm 0,7 UV-I 112 W/m 9,1 C 5,2 C 22,5 km/h (4 Bft) 92,31 %
24.05.2016 12:14 9,9 C 95 % 1010,4 hPa 0,0 l/m 18,1 km/h (3 Bft) W-SW 238 0 min 0,000 mm 0,8 UV-I 113 W/m 9,1 C 3,8 C 24,1 km/h (4 Bft) 100,00 %
24.05.2016 12:15 9,9 C 95 % 1010,4 hPa 0,0 l/m 13,9 km/h (3 Bft) S-SW 202 0 min 0,000 mm 0,8 UV-I 116 W/m 9,1 C 5,5 C 17,7 km/h (3 Bft) 96,55 %
24.05.2016 12:16 9,9 C 95 % 1010,4 hPa 0,0 l/m 16,5 km/h (3 Bft) W-SW 244 0 min 0,000 mm 0,8 UV-I 116 W/m 9,1 C 4,4 C 24,1 km/h (4 Bft) 96,30 %
24.05.2016 12:17 9,9 C 95 % 1010,4 hPa 0,0 l/m 18,5 km/h (3 Bft) W-SW 238 0 min 0,000 mm 0,8 UV-I 119 W/m 9,1 C 3,7 C 22,5 km/h (4 Bft) 100,00 %
24.05.2016 12:18 9,9 C 95 % 1010,4 hPa 0,0 l/m 23,8 km/h (4 Bft) SW 231 0 min 0,000 mm 0,9 UV-I 127 W/m 9,1 C 2,0 C 29,0 km/h (5 Bft) 95,65 %
24.05.2016 12:19 9,9 C 95 % 1010,5 hPa 0,0 l/m 19,5 km/h (3 Bft) W 259 0 min 0,000 mm 0,9 UV-I 133 W/m 9,1 C 3,3 C 29,0 km/h (5 Bft) 91,67 %
24.05.2016 12:20 9,9 C 95 % 1010,5 hPa 0,0 l/m 17,9 km/h (3 Bft) SW 216 0 min 0,000 mm 0,9 UV-I 133 W/m 9,1 C 3,9 C 25,7 km/h (4 Bft) 100,00 %
24.05.2016 12:21 9,9 C 95 % 1010,5 hPa 0,0 l/m 20,5 km/h (4 Bft) W 259 0 min 0,000 mm 0,9 UV-I 138 W/m 9,1 C 3,0 C 25,7 km/h (4 Bft) 100,00 %
24.05.2016 12:22 9,9 C 95 % 1010,5 hPa 0,0 l/m 16,8 km/h (3 Bft) SW 220 0 min 0,000 mm 1,0 UV-I 141 W/m 9,1 C 4,3 C 22,5 km/h (4 Bft) 94,12 %
24.05.2016 12:23 9,9 C 95 % 1010,5 hPa 0,0 l/m 19,5 km/h (3 Bft) SW 215 0 min 0,000 mm 0,9 UV-I 133 W/m 9,1 C 3,3 C 27,4 km/h (4 Bft) 100,00 %
24.05.2016 12:24 10,0 C 95 % 1010,5 hPa 0,0 l/m 19,0 km/h (3 Bft) SW 235 0 min 0,000 mm 0,8 UV-I 124 W/m 9,2 C 3,6 C 29,0 km/h (5 Bft) 100,00 %
24.05.2016 12:25 10,0 C 95 % 1010,6 hPa 0,0 l/m 17,2 km/h (3 Bft) SW 234 0 min 0,000 mm 0,9 UV-I 123 W/m 9,2 C 4,3 C 22,5 km/h (4 Bft) 100,00 %
24.05.2016 12:26 10,0 C 95 % 1010,6 hPa 0,0 l/m 25,0 km/h (4 Bft) W-SW 242 0 min 0,000 mm 0,8 UV-I 118 W/m 9,2 C 1,8 C 32,2 km/h (5 Bft) 100,00 %
24.05.2016 12:27 10,0 C 95 % 1010,5 hPa 0,0 l/m 16,3 km/h (3 Bft) SW 235 0 min 0,000 mm 0,8 UV-I 114 W/m 9,2 C 4,6 C 20,9 km/h (4 Bft) 100,00 %
24.05.2016 12:28 10,0 C 95 % 1010,6 hPa 0,2 l/m 15,7 km/h (3 Bft) SW 218 0 min 0,000 mm 0,8 UV-I 113 W/m 9,2 C 4,8 C 22,5 km/h (4 Bft) 100,00 %
24.05.2016 12:29 10,0 C 95 % 1010,6 hPa 0,0 l/m 19,7 km/h (3 Bft) SW 216 0 min 0,000 mm 0,8 UV-I 111 W/m 9,2 C 3,4 C 29,0 km/h (5 Bft) 100,00 %
24.05.2016 12:30 10,0 C 95 % 1010,5 hPa 0,0 l/m 17,1 km/h (3 Bft) W-SW 239 0 min 0,000 mm 0,8 UV-I 113 W/m 9,2 C 4,3 C 22,5 km/h (4 Bft) 100,00 %
24.05.2016 12:31 10,0 C 94 % 1010,6 hPa 0,0 l/m 19,1 km/h (3 Bft) SW 214 0 min 0,000 mm 0,8 UV-I 113 W/m 9,1 C 3,6 C 29,0 km/h (5 Bft) 96,30 %
24.05.2016 12:32 10,0 C 94 % 1010,6 hPa 0,0 l/m 16,7 km/h (3 Bft) W-SW 255 0 min 0,000 mm 0,8 UV-I 114 W/m 9,1 C 4,5 C 24,1 km/h (4 Bft) 100,00 %
24.05.2016 12:33 10,0 C 95 % 1010,6 hPa 0,0 l/m 13,8 km/h (3 Bft) SW 234 0 min 0,000 mm 0,8 UV-I 118 W/m 9,2 C 5,7 C 22,5 km/h (4 Bft) 100,00 %
24.05.2016 12:34 10,0 C 95 % 1010,6 hPa 0,0 l/m 15,6 km/h (3 Bft) SW 232 0 min 0,000 mm 0,7 UV-I 114 W/m 9,2 C 4,9 C 24,1 km/h (4 Bft) 100,00 %
24.05.2016 12:35 10,0 C 95 % 1010,6 hPa 0,0 l/m 16,2 km/h (3 Bft) S 191 0 min 0,000 mm 0,8 UV-I 115 W/m 9,2 C 4,6 C 25,7 km/h (4 Bft) 100,00 %
24.05.2016 12:36 10,0 C 95 % 1010,6 hPa 0,0 l/m 10,8 km/h (2 Bft) SW 221 0 min 0,000 mm 0,8 UV-I 119 W/m 9,2 C 7,1 C 16,1 km/h (3 Bft) 100,00 %
24.05.2016 12:37 10,0 C 95 % 1010,6 hPa 0,0 l/m 19,1 km/h (3 Bft) SW 221 0 min 0,000 mm 0,8 UV-I 117 W/m 9,2 C 3,6 C 27,4 km/h (4 Bft) 100,00 %
24.05.2016 12:38 10,0 C 95 % 1010,6 hPa 0,0 l/m 15,0 km/h (3 Bft) W-SW 245 0 min 0,000 mm 0,7 UV-I 106 W/m 9,2 C 5,1 C 19,3 km/h (3 Bft) 98,49 %
24.05.2016 12:39 10,0 C 95 % 1010,6 hPa 0,0 l/m 14,7 km/h (3 Bft) W-SW 237 0 min 0,000 mm 0,6 UV-I 98 W/m 9,2 C 5,3 C 19,3 km/h (3 Bft) 100,00 %
24.05.2016 12:40 10,0 C 95 % 1010,6 hPa 0,0 l/m 13,5 km/h (3 Bft) S-SW 211 0 min 0,000 mm 0,7 UV-I 97 W/m 9,2 C 5,8 C 17,7 km/h (3 Bft) 100,00 %
24.05.2016 12:41 10,0 C 95 % 1010,6 hPa 0,0 l/m 16,3 km/h (3 Bft) SW 217 0 min 0,000 mm 0,6 UV-I 96 W/m 9,2 C 4,6 C 25,7 km/h (4 Bft) 91,67 %
24.05.2016 12:42 10,0 C 95 % 1010,6 hPa 0,0 l/m 18,8 km/h (3 Bft) W-SW 245 0 min 0,000 mm 0,6 UV-I 91 W/m 9,2 C 3,7 C 27,4 km/h (4 Bft) 100,00 %
24.05.2016 12:43 10,1 C 95 % 1010,7 hPa 0,0 l/m 14,5 km/h (3 Bft) W-SW 237 0 min 0,000 mm 0,6 UV-I 87 W/m 9,3 C 5,5 C 19,3 km/h (3 Bft) 100,00 %
24.05.2016 12:44 10,0 C 95 % 1010,6 hPa 0,0 l/m 12,7 km/h (3 Bft) W-SW 257 0 min 0,000 mm 0,6 UV-I 87 W/m 9,2 C 6,2 C 16,1 km/h (3 Bft) 100,00 %
24.05.2016 12:45 10,0 C 95 % 1010,6 hPa 0,0 l/m 20,5 km/h (4 Bft) SW 225 0 min 0,000 mm 0,6 UV-I 92 W/m 9,2 C 3,1 C 30,6 km/h (5 Bft) 100,00 %
24.05.2016 12:46 10,0 C 95 % 1010,6 hPa 0,0 l/m 17,0 km/h (3 Bft) S-SW 211 0 min 0,000 mm 0,7 UV-I 98 W/m 9,2 C 4,3 C 22,5 km/h (4 Bft) 100,00 %
24.05.2016 12:47 10,1 C 95 % 1010,6 hPa 0,0 l/m 17,1 km/h (3 Bft) W-SW 237 0 min 0,000 mm 0,7 UV-I 106 W/m 9,3 C 4,4 C 30,6 km/h (5 Bft) 95,65 %
24.05.2016 12:48 10,0 C 94 % 1010,5 hPa 0,0 l/m 14,5 km/h (3 Bft) S-SW 195 0 min 0,000 mm 0,7 UV-I 111 W/m 9,1 C 5,3 C 19,3 km/h (3 Bft) 93,33 %
24.05.2016 12:49 10,0 C 94 % 1010,6 hPa 0,0 l/m 16,7 km/h (3 Bft) W-SW 238 0 min 0,000 mm 0,7 UV-I 113 W/m 9,1 C 4,5 C 22,5 km/h (4 Bft) 100,00 %
24.05.2016 12:50 10,1 C 95 % 1010,6 hPa 0,0 l/m 18,9 km/h (3 Bft) W-SW 238 0 min 0,000 mm 0,8 UV-I 114 W/m 9,3 C 3,8 C 29,0 km/h (5 Bft) 96,30 %
24.05.2016 12:51 10,1 C 94 % 1010,6 hPa 0,0 l/m 18,4 km/h (3 Bft) SW 236 0 min 0,000 mm 0,8 UV-I 119 W/m 9,2 C 4,0 C 25,7 km/h (4 Bft) 96,15 %
24.05.2016 12:52 10,1 C 95 % 1010,5 hPa 0,0 l/m 15,8 km/h (3 Bft) S-SW 211 0 min 0,000 mm 0,8 UV-I 125 W/m 9,3 C 4,9 C 24,1 km/h (4 Bft) 100,00 %
24.05.2016 12:53 10,1 C 95 % 1010,6 hPa 0,0 l/m 15,0 km/h (3 Bft) W 263 0 min 0,000 mm 0,9 UV-I 130 W/m 9,3 C 5,3 C 19,3 km/h (3 Bft) 100,00 %
24.05.2016 12:54 10,1 C 94 % 1010,6 hPa 0,0 l/m 16,3 km/h (3 Bft) SW 215 0 min 0,000 mm 0,9 UV-I 135 W/m 9,2 C 4,7 C 20,9 km/h (4 Bft) 100,00 %
24.05.2016 12:55 10,1 C 95 % 1010,6 hPa 0,0 l/m 17,2 km/h (3 Bft) SW 225 0 min 0,000 mm 0,9 UV-I 135 W/m 9,3 C 4,4 C 22,5 km/h (4 Bft) 100,00 %
24.05.2016 12:56 10,1 C 94 % 1010,6 hPa 0,2 l/m 18,8 km/h (3 Bft) SW 232 0 min 0,000 mm 0,9 UV-I 131 W/m 9,2 C 3,8 C 24,1 km/h (4 Bft) 100,00 %
24.05.2016 12:57 10,1 C 94 % 1010,6 hPa 0,0 l/m 20,8 km/h (4 Bft) W-SW 238 0 min 0,000 mm 0,9 UV-I 128 W/m 9,2 C 3,2 C 27,4 km/h (4 Bft) 91,30 %
24.05.2016 12:58 10,1 C 94 % 1010,6 hPa 0,0 l/m 18,3 km/h (3 Bft) SW 236 0 min 0,000 mm 0,9 UV-I 128 W/m 9,2 C 4,0 C 25,7 km/h (4 Bft) 95,83 %
24.05.2016 12:59 10,1 C 94 % 1010,6 hPa 0,0 l/m 21,7 km/h (4 Bft) SW 224 0 min 0,000 mm 0,9 UV-I 135 W/m 9,2 C 2,9 C 27,4 km/h (4 Bft) 100,00 %
24.05.2016 13:00 10,1 C 94 % 1010,6 hPa 0,0 l/m 24,1 km/h (4 Bft) SW 223 0 min 0,077 mm 1,0 UV-I 139 W/m 9,2 C 2,2 C 32,2 km/h (5 Bft) 100,00 %
24.05.2016 13:02 10,2 C 94 % 1010,6 hPa 0,0 l/m 20,8 km/h (4 Bft) S-SW 206 0 min 0,000 mm 1,0 UV-I 145 W/m 9,3 C 3,3 C 33,8 km/h (5 Bft) 100,00 %
24.05.2016 13:03 10,2 C 94 % 1010,5 hPa 0,0 l/m 20,1 km/h (4 Bft) W-SW 240 0 min 0,000 mm 1,1 UV-I 155 W/m 9,3 C 3,5 C 24,1 km/h (4 Bft) 100,00 %
24.05.2016 13:04 10,2 C 94 % 1010,6 hPa 0,0 l/m 19,2 km/h (3 Bft) SW 216 0 min 0,000 mm 1,0 UV-I 154 W/m 9,3 C 3,8 C 24,1 km/h (4 Bft) 100,00 %
24.05.2016 13:05 10,2 C 94 % 1010,5 hPa 0,0 l/m 19,7 km/h (3 Bft) S-SW 202 0 min 0,000 mm 1,1 UV-I 158 W/m 9,3 C 3,6 C 25,7 km/h (4 Bft) 100,00 %
24.05.2016 13:06 10,2 C 94 % 1010,5 hPa 0,0 l/m 15,8 km/h (3 Bft) SW 234 0 min 0,000 mm 1,1 UV-I 164 W/m 9,3 C 5,1 C 25,7 km/h (4 Bft) 96,55 %
24.05.2016 13:07 10,2 C 94 % 1010,5 hPa 0,0 l/m 16,7 km/h (3 Bft) S-SW 211 0 min 0,000 mm 1,2 UV-I 169 W/m 9,3 C 4,7 C 30,6 km/h (5 Bft) 100,00 %
24.05.2016 13:08 10,2 C 94 % 1010,6 hPa 0,0 l/m 21,5 km/h (4 Bft) SW 235 0 min 0,000 mm 1,2 UV-I 170 W/m 9,3 C 3,1 C 33,8 km/h (5 Bft) 100,00 %
24.05.2016 13:09 10,2 C 94 % 1010,6 hPa 0,0 l/m 16,9 km/h (3 Bft) S-SW 202 0 min 0,000 mm 1,2 UV-I 172 W/m 9,3 C 4,6 C 24,1 km/h (4 Bft) 100,00 %
24.05.2016 13:10 10,3 C 94 % 1010,6 hPa 0,0 l/m 15,2 km/h (3 Bft) SW 227 0 min 0,000 mm 1,3 UV-I 185 W/m 9,4 C 5,4 C 24,1 km/h (4 Bft) 100,00 %
24.05.2016 13:11 10,3 C 94 % 1010,6 hPa 0,0 l/m 22,7 km/h (4 Bft) S-SW 212 0 min 0,000 mm 1,3 UV-I 192 W/m 9,4 C 2,9 C 33,8 km/h (5 Bft) 100,00 %
24.05.2016 13:12 10,3 C 94 % 1010,6 hPa 0,0 l/m 21,7 km/h (4 Bft) W-SW 248 0 min 0,000 mm 1,3 UV-I 185 W/m 9,4 C 3,1 C 35,4 km/h (5 Bft) 100,00 %
24.05.2016 13:13 10,3 C 94 % 1010,6 hPa 0,0 l/m 13,3 km/h (3 Bft) W-SW 240 0 min 0,000 mm 1,2 UV-I 175 W/m 9,4 C 6,2 C 25,7 km/h (4 Bft) 100,00 %
24.05.2016 13:14 10,3 C 94 % 1010,6 hPa 0,0 l/m 21,7 km/h (4 Bft) S-SW 205 0 min 0,000 mm 1,2 UV-I 172 W/m 9,4 C 3,1 C 37,0 km/h (5 Bft) 100,00 %
24.05.2016 13:15 10,3 C 94 % 1010,6 hPa 0,0 l/m 18,7 km/h (3 Bft) SW 217 0 min 0,000 mm 1,3 UV-I 175 W/m 9,4 C 4,1 C 32,2 km/h (5 Bft) 100,00 %
24.05.2016 13:16 10,3 C 94 % 1010,6 hPa 0,0 l/m 17,1 km/h (3 Bft) S-SW 209 0 min 0,000 mm 1,2 UV-I 173 W/m 9,4 C 4,7 C 22,5 km/h (4 Bft) 92,31 %
24.05.2016 13:17 10,3 C 94 % 1010,6 hPa 0,0 l/m 17,2 km/h (3 Bft) SW 223 0 min 0,000 mm 1,1 UV-I 163 W/m 9,4 C 4,6 C 29,0 km/h (5 Bft) 100,00 %
24.05.2016 13:18 10,4 C 94 % 1010,6 hPa 0,0 l/m 14,2 km/h (3 Bft) W-SW 242 0 min 0,000 mm 1,1 UV-I 161 W/m 9,5 C 6,0 C 20,9 km/h (4 Bft) 100,00 %
24.05.2016 13:19 10,4 C 94 % 1010,7 hPa 0,0 l/m 19,6 km/h (3 Bft) W-SW 241 0 min 0,000 mm 1,1 UV-I 157 W/m 9,5 C 3,9 C 27,4 km/h (4 Bft) 96,30 %
24.05.2016 13:20 10,4 C 94 % 1010,7 hPa 0,0 l/m 19,2 km/h (3 Bft) SW 217 0 min 0,000 mm 1,0 UV-I 150 W/m 9,5 C 4,1 C 24,1 km/h (4 Bft) 100,00 %
24.05.2016 13:21 10,4 C 94 % 1010,7 hPa 0,0 l/m 16,3 km/h (3 Bft) SW 230 0 min 0,000 mm 1,0 UV-I 142 W/m 9,5 C 5,1 C 22,5 km/h (4 Bft) 100,00 %
24.05.2016 13:22 10,4 C 94 % 1010,7 hPa 0,0 l/m 19,2 km/h (3 Bft) W-SW 239 0 min 0,000 mm 1,0 UV-I 137 W/m 9,5 C 4,1 C 27,4 km/h (4 Bft) 100,00 %
24.05.2016 13:23 10,4 C 94 % 1010,7 hPa 0,0 l/m 18,1 km/h (3 Bft) SW 232 0 min 0,000 mm 0,9 UV-I 130 W/m 9,5 C 4,4 C 25,7 km/h (4 Bft) 100,00 %
24.05.2016 13:24 10,4 C 93 % 1010,7 hPa 0,0 l/m 17,5 km/h (3 Bft) SW 236 0 min 0,000 mm 0,9 UV-I 130 W/m 9,3 C 4,7 C 25,7 km/h (4 Bft) 100,00 %
24.05.2016 13:25 10,4 C 94 % 1010,7 hPa 0,0 l/m 20,9 km/h (4 Bft) SW 223 0 min 0,000 mm 0,9 UV-I 133 W/m 9,5 C 3,5 C 33,8 km/h (5 Bft) 100,00 %
24.05.2016 13:26 10,4 C 93 % 1010,7 hPa 0,0 l/m 18,0 km/h (3 Bft) SW 236 0 min 0,000 mm 1,0 UV-I 140 W/m 9,3 C 4,5 C 29,0 km/h (5 Bft) 100,00 %
24.05.2016 13:27 10,3 C 93 % 1010,7 hPa 0,0 l/m 14,6 km/h (3 Bft) SW 229 0 min 0,000 mm 1,0 UV-I 151 W/m 9,2 C 5,7 C 29,0 km/h (5 Bft) 100,00 %
24.05.2016 13:28 10,4 C 94 % 1010,7 hPa 0,0 l/m 15,1 km/h (3 Bft) W-SW 246 0 min 0,000 mm 1,1 UV-I 161 W/m 9,5 C 5,6 C 19,3 km/h (3 Bft) 100,00 %
24.05.2016 13:29 10,4 C 94 % 1010,6 hPa 0,0 l/m 12,4 km/h (3 Bft) W 265 0 min 0,000 mm 1,1 UV-I 167 W/m 9,5 C 6,8 C 19,3 km/h (3 Bft) 100,00 %
24.05.2016 13:30 10,4 C 94 % 1010,7 hPa 0,0 l/m 14,6 km/h (3 Bft) W 263 0 min 0,000 mm 1,2 UV-I 167 W/m 9,5 C 5,8 C 19,3 km/h (3 Bft) 100,00 %
24.05.2016 13:31 10,4 C 94 % 1010,7 hPa 0,0 l/m 12,2 km/h (2 Bft) SW 228 0 min 0,000 mm 1,1 UV-I 156 W/m 9,5 C 6,9 C 25,7 km/h (4 Bft) 100,00 %
24.05.2016 13:32 10,4 C 94 % 1010,6 hPa 0,0 l/m 12,4 km/h (3 Bft) SW 223 0 min 0,000 mm 1,1 UV-I 154 W/m 9,5 C 6,8 C 16,1 km/h (3 Bft) 100,00 %
24.05.2016 13:33 10,4 C 94 % 1010,6 hPa 0,0 l/m 23,1 km/h (4 Bft) SW 223 0 min 0,000 mm 1,1 UV-I 158 W/m 9,5 C 2,9 C 30,6 km/h (5 Bft) 100,00 %
24.05.2016 13:34 10,4 C 94 % 1010,6 hPa 0,0 l/m 22,9 km/h (4 Bft) SW 223 0 min 0,000 mm 1,1 UV-I 161 W/m 9,5 C 2,9 C 29,0 km/h (5 Bft) 100,00 %
24.05.2016 13:35 10,4 C 94 % 1010,6 hPa 0,0 l/m 14,6 km/h (3 Bft) W-NW 292 0 min 0,000 mm 1,1 UV-I 165 W/m 9,5 C 5,8 C 19,3 km/h (3 Bft) 96,30 %
24.05.2016 13:36 10,4 C 94 % 1010,6 hPa 0,0 l/m 22,9 km/h (4 Bft) W 269 0 min 0,000 mm 1,1 UV-I 165 W/m 9,5 C 2,9 C 30,6 km/h (5 Bft) 100,00 %
24.05.2016 13:37 10,4 C 94 % 1010,6 hPa 0,0 l/m 17,4 km/h (3 Bft) SW 228 0 min 0,000 mm 1,1 UV-I 168 W/m 9,5 C 4,7 C 24,1 km/h (4 Bft) 100,00 %
24.05.2016 13:38 10,4 C 94 % 1010,6 hPa 0,0 l/m 16,6 km/h (3 Bft) SW 226 0 min 0,000 mm 1,1 UV-I 166 W/m 9,5 C 5,0 C 22,5 km/h (4 Bft) 100,00 %
24.05.2016 13:39 10,4 C 94 % 1010,6 hPa 0,0 l/m 17,4 km/h (3 Bft) SW 227 0 min 0,000 mm 1,1 UV-I 158 W/m 9,5 C 4,7 C 20,9 km/h (4 Bft) 100,00 %
24.05.2016 13:40 10,5 C 94 % 1010,6 hPa 0,0 l/m 18,8 km/h (3 Bft) W-SW 242 0 min 0,000 mm 1,1 UV-I 159 W/m 9,6 C 4,3 C 24,1 km/h (4 Bft) 100,00 %
24.05.2016 13:41 10,5 C 94 % 1010,6 hPa 0,0 l/m 19,8 km/h (3 Bft) W 259 0 min 0,000 mm 1,1 UV-I 167 W/m 9,6 C 4,0 C 25,7 km/h (4 Bft) 100,00 %
24.05.2016 13:42 10,5 C 94 % 1010,6 hPa 0,0 l/m 22,3 km/h (4 Bft) W-SW 239 0 min 0,000 mm 1,2 UV-I 176 W/m 9,6 C 3,2 C 29,0 km/h (5 Bft) 100,00 %
24.05.2016 13:43 10,5 C 94 % 1010,6 hPa 0,0 l/m 27,0 km/h (4 Bft) SW 229 0 min 0,000 mm 1,2 UV-I 178 W/m 9,6 C 2,0 C 38,6 km/h (5 Bft) 100,00 %
24.05.2016 13:44 10,4 C 93 % 1010,5 hPa 0,0 l/m 27,2 km/h (4 Bft) W-SW 237 0 min 0,000 mm 1,2 UV-I 176 W/m 9,3 C 1,8 C 33,8 km/h (5 Bft) 100,00 %
24.05.2016 13:45 10,5 C 93 % 1010,5 hPa 0,0 l/m 22,0 km/h (4 Bft) S-SW 192 0 min 0,000 mm 1,1 UV-I 166 W/m 9,4 C 3,3 C 27,4 km/h (4 Bft) 100,00 %
24.05.2016 13:46 10,4 C 93 % 1010,5 hPa 0,0 l/m 22,4 km/h (4 Bft) SW 229 0 min 0,000 mm 1,1 UV-I 172 W/m 9,3 C 3,1 C 32,2 km/h (5 Bft) 96,15 %
24.05.2016 13:47 10,5 C 93 % 1010,5 hPa 0,0 l/m 20,4 km/h (4 Bft) W 265 0 min 0,000 mm 1,2 UV-I 181 W/m 9,4 C 3,8 C 30,6 km/h (5 Bft) 100,00 %
24.05.2016 13:48 10,5 C 94 % 1010,4 hPa 0,0 l/m 19,1 km/h (3 Bft) S-SW 197 0 min 0,000 mm 1,2 UV-I 181 W/m 9,6 C 4,2 C 25,7 km/h (4 Bft) 90,91 %
24.05.2016 13:49 10,5 C 94 % 1010,4 hPa 0,0 l/m 24,3 km/h (4 Bft) S-SW 201 0 min 0,000 mm 1,2 UV-I 178 W/m 9,6 C 2,7 C 33,8 km/h (5 Bft) 100,00 %
24.05.2016 13:50 10,5 C 94 % 1010,5 hPa 0,0 l/m 22,4 km/h (4 Bft) S-SW 201 0 min 0,000 mm 1,2 UV-I 179 W/m 9,6 C 3,2 C 29,0 km/h (5 Bft) 96,15 %
24.05.2016 13:51 10,5 C 94 % 1010,5 hPa 0,0 l/m 20,0 km/h (4 Bft) W 261 0 min 0,000 mm 1,2 UV-I 183 W/m 9,6 C 3,9 C 30,6 km/h (5 Bft) 100,00 %
24.05.2016 13:52 10,5 C 93 % 1010,6 hPa 0,0 l/m 26,4 km/h (4 Bft) SW 219 0 min 0,000 mm 1,2 UV-I 186 W/m 9,4 C 2,2 C 35,4 km/h (5 Bft) 95,83 %
24.05.2016 13:53 10,5 C 93 % 1010,4 hPa 0,0 l/m 15,8 km/h (3 Bft) W-SW 252 0 min 0,000 mm 1,3 UV-I 191 W/m 9,4 C 5,4 C 20,9 km/h (4 Bft) 100,00 %
24.05.2016 13:54 10,6 C 94 % 1010,4 hPa 0,0 l/m 20,0 km/h (4 Bft) SW 225 0 min 0,000 mm 1,3 UV-I 200 W/m 9,7 C 4,1 C 30,6 km/h (5 Bft) 96,55 %
24.05.2016 13:55 10,6 C 94 % 1010,4 hPa 0,0 l/m 20,0 km/h (4 Bft) SW 228 0 min 0,000 mm 1,3 UV-I 204 W/m 9,7 C 4,1 C 32,2 km/h (5 Bft) 96,30 %
24.05.2016 13:56 10,6 C 94 % 1010,4 hPa 0,0 l/m 16,7 km/h (3 Bft) SW 236 0 min 0,000 mm 1,3 UV-I 195 W/m 9,7 C 5,2 C 20,9 km/h (4 Bft) 100,00 %
24.05.2016 13:57 10,6 C 93 % 1010,4 hPa 0,0 l/m 18,4 km/h (3 Bft) W-SW 248 0 min 0,000 mm 1,3 UV-I 190 W/m 9,5 C 4,6 C 24,1 km/h (4 Bft) 95,65 %
24.05.2016 13:58 10,6 C 94 % 1010,5 hPa 0,0 l/m 22,9 km/h (4 Bft) SW 234 0 min 0,000 mm 1,3 UV-I 188 W/m 9,7 C 3,2 C 35,4 km/h (5 Bft) 100,00 %
24.05.2016 13:59 10,6 C 93 % 1010,5 hPa 0,0 l/m 23,7 km/h (4 Bft) SW 227 0 min 0,000 mm 1,2 UV-I 183 W/m 9,5 C 3,0 C 33,8 km/h (5 Bft) 95,65 %
24.05.2016 14:00 10,6 C 93 % 1010,5 hPa 0,0 l/m 27,1 km/h (4 Bft) SW 215 0 min 0,000 mm 1,2 UV-I 124 W/m 9,5 C 2,1 C 37,0 km/h (5 Bft) 100,00 %
24.05.2016 14:02 10,6 C 93 % 1010,4 hPa 0,0 l/m 21,5 km/h (4 Bft) SW 223 0 min 0,101 mm 1,2 UV-I 168 W/m 9,5 C 3,6 C 29,0 km/h (5 Bft) 97,37 %
24.05.2016 14:03 10,6 C 93 % 1010,4 hPa 0,0 l/m 21,3 km/h (4 Bft) SW 217 0 min 0,000 mm 1,3 UV-I 185 W/m 9,5 C 3,7 C 30,6 km/h (5 Bft) 96,15 %
24.05.2016 14:04 10,6 C 93 % 1010,5 hPa 0,0 l/m 16,6 km/h (3 Bft) W-SW 243 0 min 0,000 mm 1,3 UV-I 189 W/m 9,5 C 5,2 C 29,0 km/h (5 Bft) 96,30 %
24.05.2016 14:05 10,7 C 93 % 1010,4 hPa 0,0 l/m 17,7 km/h (3 Bft) SW 229 0 min 0,000 mm 1,3 UV-I 194 W/m 9,6 C 5,0 C 22,5 km/h (4 Bft) 100,00 %
24.05.2016 14:06 10,6 C 93 % 1010,4 hPa 0,0 l/m 20,9 km/h (4 Bft) SW 217 0 min 0,000 mm 1,3 UV-I 200 W/m 9,5 C 3,8 C 29,0 km/h (5 Bft) 96,67 %
24.05.2016 14:07 10,6 C 93 % 1010,4 hPa 0,0 l/m 21,3 km/h (4 Bft) W-SW 243 0 min 0,000 mm 1,4 UV-I 200 W/m 9,5 C 3,7 C 29,0 km/h (5 Bft) 100,00 %
24.05.2016 14:08 10,6 C 93 % 1010,4 hPa 0,0 l/m 16,6 km/h (3 Bft) S 189 0 min 0,000 mm 1,3 UV-I 192 W/m 9,5 C 5,2 C 22,5 km/h (4 Bft) 96,30 %
24.05.2016 14:09 10,7 C 93 % 1010,4 hPa 0,0 l/m 11,0 km/h (2 Bft) SW 225 0 min 0,000 mm 1,3 UV-I 185 W/m 9,6 C 7,8 C 19,3 km/h (3 Bft) 98,53 %
24.05.2016 14:10 10,7 C 93 % 1010,4 hPa 0,0 l/m 26,2 km/h (4 Bft) W 277 0 min 0,000 mm 1,3 UV-I 184 W/m 9,6 C 2,5 C 37,0 km/h (5 Bft) 97,73 %
24.05.2016 14:11 10,7 C 93 % 1010,4 hPa 0,0 l/m 28,4 km/h (4 Bft) SW 223 0 min 0,000 mm 1,3 UV-I 181 W/m 9,6 C 2,0 C 37,0 km/h (5 Bft) 95,65 %
24.05.2016 14:12 10,7 C 93 % 1010,4 hPa 0,0 l/m 24,9 km/h (4 Bft) W-SW 237 0 min 0,000 mm 1,2 UV-I 178 W/m 9,6 C 2,8 C 32,2 km/h (5 Bft) 100,00 %
24.05.2016 14:13 10,7 C 93 % 1010,4 hPa 0,0 l/m 17,9 km/h (3 Bft) SW 225 0 min 0,000 mm 1,3 UV-I 180 W/m 9,6 C 4,9 C 27,4 km/h (4 Bft) 96,88 %
24.05.2016 14:14 10,7 C 93 % 1010,4 hPa 0,0 l/m 14,6 km/h (3 Bft) W 263 0 min 0,000 mm 1,2 UV-I 174 W/m 9,6 C 6,1 C 17,7 km/h (3 Bft) 100,00 %
24.05.2016 14:15 10,7 C 93 % 1010,5 hPa 0,0 l/m 16,7 km/h (3 Bft) W-SW 254 0 min 0,000 mm 1,2 UV-I 173 W/m 9,6 C 5,3 C 24,1 km/h (4 Bft) 98,52 %
24.05.2016 14:16 10,7 C 93 % 1010,4 hPa 0,0 l/m 19,0 km/h (3 Bft) W-SW 246 0 min 0,000 mm 1,2 UV-I 174 W/m 9,6 C 4,5 C 27,4 km/h (4 Bft) 97,73 %
24.05.2016 14:17 10,7 C 93 % 1010,4 hPa 0,0 l/m 23,9 km/h (4 Bft) SW 221 0 min 0,000 mm 1,2 UV-I 176 W/m 9,6 C 3,1 C 30,6 km/h (5 Bft) 96,15 %
24.05.2016 14:18 10,7 C 93 % 1010,4 hPa 0,0 l/m 18,7 km/h (3 Bft) SW 225 0 min 0,000 mm 1,1 UV-I 172 W/m 9,6 C 4,6 C 27,4 km/h (4 Bft) 100,00 %
24.05.2016 14:19 10,7 C 93 % 1010,4 hPa 0,0 l/m 23,6 km/h (4 Bft) SW 227 0 min 0,000 mm 1,1 UV-I 163 W/m 9,6 C 3,1 C 30,6 km/h (5 Bft) 96,30 %
24.05.2016 14:20 10,7 C 93 % 1010,4 hPa 0,0 l/m 16,3 km/h (3 Bft) W-SW 247 0 min 0,000 mm 1,0 UV-I 147 W/m 9,6 C 5,5 C 25,7 km/h (4 Bft) 100,00 %
24.05.2016 14:21 10,7 C 93 % 1010,5 hPa 0,0 l/m 18,8 km/h (3 Bft) W-SW 258 0 min 0,000 mm 0,9 UV-I 138 W/m 9,6 C 4,6 C 29,0 km/h (5 Bft) 100,00 %
24.05.2016 14:22 10,7 C 93 % 1010,5 hPa 0,0 l/m 23,1 km/h (4 Bft) SW 230 0 min 0,000 mm 0,9 UV-I 136 W/m 9,6 C 3,3 C 30,6 km/h (5 Bft) 100,00 %
24.05.2016 14:23 10,7 C 93 % 1010,5 hPa 0,0 l/m 18,2 km/h (3 Bft) SW 225 0 min 0,000 mm 0,9 UV-I 130 W/m 9,6 C 4,8 C 24,1 km/h (4 Bft) 100,00 %
24.05.2016 14:24 10,7 C 93 % 1010,5 hPa 0,0 l/m 21,6 km/h (4 Bft) SW 234 0 min 0,000 mm 0,8 UV-I 128 W/m 9,6 C 3,7 C 27,4 km/h (4 Bft) 100,00 %
24.05.2016 14:25 10,7 C 93 % 1010,5 hPa 0,0 l/m 20,1 km/h (4 Bft) S-SW 213 0 min 0,000 mm 0,8 UV-I 122 W/m 9,6 C 4,2 C 29,0 km/h (5 Bft) 100,00 %
24.05.2016 14:26 10,7 C 93 % 1010,5 hPa 0,0 l/m 16,5 km/h (3 Bft) W-SW 240 0 min 0,000 mm 0,8 UV-I 121 W/m 9,6 C 5,4 C 27,4 km/h (4 Bft) 95,65 %
24.05.2016 14:27 10,7 C 93 % 1010,6 hPa 0,0 l/m 23,9 km/h (4 Bft) SO 130 0 min 0,000 mm 0,8 UV-I 122 W/m 9,6 C 3,1 C 32,2 km/h (5 Bft) 95,83 %
24.05.2016 14:28 10,7 C 93 % 1010,5 hPa 0,0 l/m 27,3 km/h (4 Bft) W-SW 240 0 min 0,000 mm 0,8 UV-I 120 W/m 9,6 C 2,2 C 38,6 km/h (5 Bft) 100,00 %
24.05.2016 14:29 10,7 C 92 % 1010,6 hPa 0,0 l/m 24,6 km/h (4 Bft) SW 227 0 min 0,000 mm 0,8 UV-I 119 W/m 9,5 C 2,9 C 30,6 km/h (5 Bft) 100,00 %
24.05.2016 14:30 10,7 C 93 % 1010,6 hPa 0,0 l/m 16,9 km/h (3 Bft) SW 231 0 min 0,000 mm 0,8 UV-I 121 W/m 9,6 C 5,2 C 30,6 km/h (5 Bft) 100,00 %
24.05.2016 14:31 10,7 C 93 % 1010,6 hPa 0,0 l/m 18,0 km/h (3 Bft) SW 235 0 min 0,000 mm 0,7 UV-I 114 W/m 9,6 C 4,9 C 27,4 km/h (4 Bft) 100,00 %
24.05.2016 14:32 10,6 C 93 % 1010,6 hPa 0,0 l/m 23,1 km/h (4 Bft) W-SW 243 0 min 0,000 mm 0,7 UV-I 105 W/m 9,5 C 3,1 C 29,0 km/h (5 Bft) 100,00 %
24.05.2016 14:33 10,6 C 93 % 1010,6 hPa 0,0 l/m 20,3 km/h (4 Bft) S-SW 199 0 min 0,000 mm 0,6 UV-I 98 W/m 9,5 C 4,0 C 32,2 km/h (5 Bft) 96,15 %
24.05.2016 14:34 10,6 C 93 % 1010,5 hPa 0,0 l/m 19,1 km/h (3 Bft) W-SW 246 0 min 0,000 mm 0,6 UV-I 97 W/m 9,5 C 4,4 C 32,2 km/h (5 Bft) 100,00 %
24.05.2016 14:35 10,6 C 93 % 1010,5 hPa 0,0 l/m 19,7 km/h (3 Bft) SW 227 0 min 0,000 mm 0,6 UV-I 98 W/m 9,5 C 4,2 C 32,2 km/h (5 Bft) 100,00 %
24.05.2016 14:36 10,6 C 93 % 1010,6 hPa 0,0 l/m 22,5 km/h (4 Bft) SW 229 0 min 0,000 mm 0,6 UV-I 97 W/m 9,5 C 3,3 C 35,4 km/h (5 Bft) 100,00 %
24.05.2016 14:37 10,6 C 92 % 1010,6 hPa 0,0 l/m 21,9 km/h (4 Bft) S 175 0 min 0,000 mm 0,6 UV-I 92 W/m 9,4 C 3,5 C 29,0 km/h (5 Bft) 95,83 %
24.05.2016 14:38 10,6 C 93 % 1010,6 hPa 0,0 l/m 20,9 km/h (4 Bft) W-SW 247 0 min 0,000 mm 0,6 UV-I 90 W/m 9,5 C 3,8 C 30,6 km/h (5 Bft) 100,00 %
24.05.2016 14:39 10,6 C 93 % 1010,6 hPa 0,0 l/m 25,5 km/h (4 Bft) SW 232 0 min 0,000 mm 0,6 UV-I 89 W/m 9,5 C 2,5 C 38,6 km/h (5 Bft) 96,15 %
24.05.2016 14:40 10,6 C 92 % 1010,6 hPa 0,0 l/m 18,9 km/h (3 Bft) SW 217 0 min 0,000 mm 0,5 UV-I 84 W/m 9,4 C 4,4 C 30,6 km/h (5 Bft) 100,00 %
24.05.2016 14:41 10,6 C 93 % 1010,6 hPa 0,0 l/m 17,2 km/h (3 Bft) W-SW 244 0 min 0,000 mm 0,5 UV-I 82 W/m 9,5 C 5,0 C 22,5 km/h (4 Bft) 100,00 %
24.05.2016 14:42 10,6 C 92 % 1010,6 hPa 0,0 l/m 21,4 km/h (4 Bft) W-SW 254 0 min 0,000 mm 0,5 UV-I 78 W/m 9,4 C 3,6 C 25,7 km/h (4 Bft) 100,00 %
24.05.2016 14:43 10,6 C 92 % 1010,6 hPa 0,0 l/m 22,9 km/h (4 Bft) SW 233 0 min 0,000 mm 0,5 UV-I 77 W/m 9,4 C 3,2 C 33,8 km/h (5 Bft) 100,00 %
24.05.2016 14:44 10,6 C 92 % 1010,6 hPa 0,0 l/m 19,5 km/h (3 Bft) W-SW 242 0 min 0,000 mm 0,5 UV-I 78 W/m 9,4 C 4,2 C 25,7 km/h (4 Bft) 100,00 %
24.05.2016 14:45 10,6 C 92 % 1010,6 hPa 0,0 l/m 17,8 km/h (3 Bft) S-SW 209 0 min 0,000 mm 0,5 UV-I 81 W/m 9,4 C 4,8 C 25,7 km/h (4 Bft) 100,00 %
24.05.2016 14:46 10,6 C 92 % 1010,6 hPa 0,0 l/m 20,6 km/h (4 Bft) SW 226 0 min 0,000 mm 0,5 UV-I 84 W/m 9,4 C 3,9 C 30,6 km/h (5 Bft) 100,00 %
24.05.2016 14:47 10,5 C 92 % 1010,6 hPa 0,0 l/m 25,3 km/h (4 Bft) SW 229 0 min 0,000 mm 0,5 UV-I 80 W/m 9,3 C 2,4 C 35,4 km/h (5 Bft) 100,00 %
24.05.2016 14:48 10,6 C 92 % 1010,6 hPa 0,0 l/m 23,3 km/h (4 Bft) SW 214 0 min 0,000 mm 0,5 UV-I 77 W/m 9,4 C 3,1 C 29,0 km/h (5 Bft) 100,00 %
24.05.2016 14:49 10,5 C 92 % 1010,6 hPa 0,0 l/m 20,4 km/h (4 Bft) SW 220 0 min 0,000 mm 0,5 UV-I 76 W/m 9,3 C 3,8 C 27,4 km/h (4 Bft) 100,00 %
24.05.2016 14:50 10,6 C 92 % 1010,6 hPa 0,0 l/m 25,3 km/h (4 Bft) SW 215 0 min 0,000 mm 0,5 UV-I 73 W/m 9,4 C 2,6 C 38,6 km/h (5 Bft) 100,00 %
24.05.2016 14:51 10,5 C 92 % 1010,6 hPa 0,0 l/m 19,5 km/h (3 Bft) SW 226 0 min 0,000 mm 0,0 UV-I 70 W/m 9,3 C 4,1 C 25,7 km/h (4 Bft) 95,65 %
24.05.2016 14:52 10,5 C 92 % 1010,7 hPa 0,0 l/m 21,7 km/h (4 Bft) SW 217 0 min 0,000 mm 0,0 UV-I 69 W/m 9,3 C 3,4 C 27,4 km/h (4 Bft) 100,00 %
24.05.2016 14:53 10,6 C 92 % 1010,7 hPa 0,0 l/m 17,1 km/h (3 Bft) SW 230 0 min 0,000 mm 0,0 UV-I 66 W/m 9,4 C 5,0 C 24,1 km/h (4 Bft) 100,00 %
24.05.2016 14:54 10,6 C 92 % 1010,7 hPa 0,0 l/m 14,5 km/h (3 Bft) W 259 0 min 0,000 mm 0,0 UV-I 68 W/m 9,4 C 6,1 C 20,9 km/h (4 Bft) 100,00 %
24.05.2016 14:55 10,5 C 92 % 1010,6 hPa 0,0 l/m 21,3 km/h (4 Bft) W-SW 243 0 min 0,000 mm 0,0 UV-I 67 W/m 9,3 C 3,5 C 30,6 km/h (5 Bft) 95,65 %
24.05.2016 14:56 10,6 C 92 % 1010,6 hPa 0,0 l/m 20,1 km/h (4 Bft) SW 231 0 min 0,000 mm 0,0 UV-I 62 W/m 9,4 C 4,0 C 25,7 km/h (4 Bft) 100,00 %
24.05.2016 14:57 10,6 C 92 % 1010,7 hPa 0,0 l/m 18,8 km/h (3 Bft) S-SW 200 0 min 0,000 mm 0,0 UV-I 58 W/m 9,4 C 4,5 C 29,0 km/h (5 Bft) 100,00 %
24.05.2016 14:58 10,5 C 92 % 1010,6 hPa 0,0 l/m 23,3 km/h (4 Bft) W-SW 248 0 min 0,000 mm 0,0 UV-I 59 W/m 9,3 C 3,0 C 30,6 km/h (5 Bft) 100,00 %
24.05.2016 14:59 10,5 C 92 % 1010,7 hPa 0,0 l/m 25,8 km/h (4 Bft) SW 229 0 min 0,000 mm 0,0 UV-I 58 W/m 9,3 C 2,3 C 30,6 km/h (5 Bft) 100,00 %
24.05.2016 15:00 10,5 C 92 % 1010,6 hPa 0,0 l/m 20,3 km/h (4 Bft) S-SO 168 0 min 0,000 mm 0,0 UV-I 61 W/m 9,3 C 3,8 C 29,0 km/h (5 Bft) 96,15 %
24.05.2016 15:02 10,5 C 92 % 1010,7 hPa 0,0 l/m 16,8 km/h (3 Bft) SW 236 0 min 0,076 mm 0,0 UV-I 61 W/m 9,3 C 5,0 C 24,1 km/h (4 Bft) 97,56 %
24.05.2016 15:03 10,5 C 92 % 1010,8 hPa 0,0 l/m 13,7 km/h (3 Bft) SW 214 0 min 0,000 mm 0,0 UV-I 57 W/m 9,3 C 6,3 C 19,3 km/h (3 Bft) 100,00 %
24.05.2016 15:04 10,5 C 92 % 1010,8 hPa 0,0 l/m 13,4 km/h (3 Bft) SW 221 0 min 0,000 mm 0,0 UV-I 56 W/m 9,3 C 6,4 C 17,7 km/h (3 Bft) 96,15 %
24.05.2016 15:05 10,5 C 92 % 1010,7 hPa 0,0 l/m 13,5 km/h (3 Bft) W-SW 250 0 min 0,000 mm 0,0 UV-I 57 W/m 9,3 C 6,4 C 19,3 km/h (3 Bft) 100,00 %
24.05.2016 15:06 10,5 C 92 % 1010,8 hPa 0,0 l/m 12,8 km/h (3 Bft) SW 214 0 min 0,000 mm 0,0 UV-I 56 W/m 9,3 C 6,7 C 19,3 km/h (3 Bft) 100,00 %
24.05.2016 15:07 10,6 C 92 % 1010,8 hPa 0,0 l/m 15,0 km/h (3 Bft) S-SW 210 0 min 0,000 mm 0,0 UV-I 56 W/m 9,4 C 5,9 C 22,5 km/h (4 Bft) 100,00 %
24.05.2016 15:08 10,5 C 93 % 1010,8 hPa 0,0 l/m 18,1 km/h (3 Bft) S 173 0 min 0,000 mm 0,0 UV-I 55 W/m 9,4 C 4,6 C 27,4 km/h (4 Bft) 100,00 %
24.05.2016 15:09 10,6 C 92 % 1010,7 hPa 0,0 l/m 16,8 km/h (3 Bft) W-SW 240 0 min 0,000 mm 0,0 UV-I 59 W/m 9,4 C 5,2 C 24,1 km/h (4 Bft) 100,00 %
24.05.2016 15:10 10,5 C 92 % 1010,8 hPa 0,0 l/m 18,5 km/h (3 Bft) SW 221 0 min 0,000 mm 0,0 UV-I 62 W/m 9,3 C 4,4 C 30,6 km/h (5 Bft) 100,00 %
24.05.2016 15:11 10,5 C 92 % 1010,7 hPa 0,0 l/m 16,4 km/h (3 Bft) W-SW 243 0 min 0,000 mm 0,0 UV-I 63 W/m 9,3 C 5,2 C 24,1 km/h (4 Bft) 100,00 %
24.05.2016 15:12 10,6 C 92 % 1010,8 hPa 0,0 l/m 20,5 km/h (4 Bft) W-SW 239 0 min 0,000 mm 0,0 UV-I 65 W/m 9,4 C 3,9 C 29,0 km/h (5 Bft) 100,00 %
24.05.2016 15:13 10,6 C 92 % 1010,8 hPa 0,0 l/m 17,7 km/h (3 Bft) SW 229 0 min 0,000 mm 0,0 UV-I 65 W/m 9,4 C 4,8 C 25,7 km/h (4 Bft) 100,00 %
24.05.2016 15:14 10,6 C 93 % 1010,8 hPa 0,0 l/m 18,4 km/h (3 Bft) SW 234 0 min 0,000 mm 0,0 UV-I 63 W/m 9,5 C 4,6 C 24,1 km/h (4 Bft) 100,00 %
24.05.2016 15:15 10,6 C 93 % 1010,8 hPa 0,0 l/m 21,7 km/h (4 Bft) SW 215 0 min 0,000 mm 0,0 UV-I 62 W/m 9,5 C 3,5 C 29,0 km/h (5 Bft) 100,00 %
24.05.2016 15:16 10,6 C 92 % 1010,8 hPa 0,0 l/m 21,9 km/h (4 Bft) SW 232 0 min 0,000 mm 0,0 UV-I 62 W/m 9,4 C 3,5 C 30,6 km/h (5 Bft) 100,00 %
24.05.2016 15:17 10,6 C 92 % 1010,8 hPa 0,0 l/m 18,7 km/h (3 Bft) SW 231 0 min 0,000 mm 0,0 UV-I 61 W/m 9,4 C 4,5 C 29,0 km/h (5 Bft) 98,58 %
24.05.2016 15:18 10,6 C 92 % 1010,8 hPa 0,0 l/m 17,4 km/h (3 Bft) SW 219 0 min 0,000 mm 0,0 UV-I 58 W/m 9,4 C 4,9 C 22,5 km/h (4 Bft) 100,00 %
24.05.2016 15:19 10,6 C 93 % 1010,8 hPa 0,0 l/m 18,2 km/h (3 Bft) SW 223 0 min 0,000 mm 0,0 UV-I 54 W/m 9,5 C 4,7 C 25,7 km/h (4 Bft) 100,00 %
24.05.2016 15:20 10,6 C 92 % 1010,8 hPa 0,0 l/m 19,9 km/h (4 Bft) SW 225 0 min 0,000 mm 0,0 UV-I 57 W/m 9,4 C 4,1 C 27,4 km/h (4 Bft) 100,00 %
24.05.2016 15:21 10,6 C 92 % 1010,8 hPa 0,0 l/m 20,0 km/h (4 Bft) SW 229 0 min 0,000 mm 0,0 UV-I 61 W/m 9,4 C 4,1 C 27,4 km/h (4 Bft) 100,00 %
24.05.2016 15:22 10,6 C 92 % 1010,8 hPa 0,0 l/m 23,2 km/h (4 Bft) S-SW 198 0 min 0,000 mm 0,0 UV-I 66 W/m 9,4 C 3,1 C 29,0 km/h (5 Bft) 100,00 %
24.05.2016 15:23 10,6 C 92 % 1010,7 hPa 0,0 l/m 21,8 km/h (4 Bft) W-SW 241 0 min 0,000 mm 0,3 UV-I 73 W/m 9,4 C 3,5 C 29,0 km/h (5 Bft) 100,00 %
24.05.2016 15:24 10,6 C 92 % 1010,8 hPa 0,0 l/m 20,7 km/h (4 Bft) SW 216 0 min 0,000 mm 0,5 UV-I 75 W/m 9,4 C 3,8 C 29,0 km/h (5 Bft) 100,00 %
24.05.2016 15:25 10,6 C 92 % 1010,8 hPa 0,0 l/m 21,1 km/h (4 Bft) W-SW 238 0 min 0,000 mm 0,0 UV-I 71 W/m 9,4 C 3,7 C 37,0 km/h (5 Bft) 100,00 %
24.05.2016 15:26 10,6 C 92 % 1010,7 hPa 0,0 l/m 20,7 km/h (4 Bft) W 262 0 min 0,000 mm 0,1 UV-I 72 W/m 9,4 C 3,8 C 30,6 km/h (5 Bft) 100,00 %
24.05.2016 15:27 10,6 C 92 % 1010,7 hPa 0,0 l/m 16,5 km/h (3 Bft) SW 224 0 min 0,000 mm 0,5 UV-I 80 W/m 9,4 C 5,3 C 25,7 km/h (4 Bft) 100,00 %
24.05.2016 15:28 10,6 C 92 % 1010,8 hPa 0,0 l/m 22,5 km/h (4 Bft) SW 231 0 min 0,000 mm 0,5 UV-I 83 W/m 9,4 C 3,3 C 30,6 km/h (5 Bft) 100,00 %
24.05.2016 15:29 10,6 C 92 % 1010,8 hPa 0,0 l/m 22,5 km/h (4 Bft) W-SW 248 0 min 0,000 mm 0,5 UV-I 82 W/m 9,4 C 3,3 C 33,8 km/h (5 Bft) 100,00 %
24.05.2016 15:30 10,7 C 92 % 1010,8 hPa 0,0 l/m 15,1 km/h (3 Bft) SW 224 0 min 0,000 mm 0,5 UV-I 84 W/m 9,5 C 5,9 C 19,3 km/h (3 Bft) 100,00 %
24.05.2016 15:31 10,7 C 92 % 1010,8 hPa 0,0 l/m 19,2 km/h (3 Bft) S-SW 198 0 min 0,000 mm 0,5 UV-I 90 W/m 9,5 C 4,4 C 25,7 km/h (4 Bft) 96,15 %
24.05.2016 15:32 10,7 C 92 % 1010,7 hPa 0,0 l/m 21,0 km/h (4 Bft) W-SW 254 0 min 0,000 mm 0,5 UV-I 87 W/m 9,5 C 3,9 C 25,7 km/h (4 Bft) 100,00 %
24.05.2016 15:33 10,7 C 92 % 1010,7 hPa 0,0 l/m 19,5 km/h (3 Bft) W-SW 239 0 min 0,000 mm 0,5 UV-I 83 W/m 9,5 C 4,4 C 24,1 km/h (4 Bft) 100,00 %
24.05.2016 15:34 10,7 C 92 % 1010,8 hPa 0,0 l/m 18,7 km/h (3 Bft) SW 218 0 min 0,000 mm 0,5 UV-I 80 W/m 9,5 C 4,6 C 29,0 km/h (5 Bft) 100,00 %
24.05.2016 15:35 10,7 C 92 % 1010,7 hPa 0,0 l/m 20,5 km/h (4 Bft) SW 236 0 min 0,000 mm 0,2 UV-I 77 W/m 9,5 C 4,0 C 32,2 km/h (5 Bft) 100,00 %
24.05.2016 15:36 10,7 C 92 % 1010,7 hPa 0,0 l/m 15,6 km/h (3 Bft) W-SW 238 0 min 0,000 mm 0,3 UV-I 79 W/m 9,5 C 5,7 C 27,4 km/h (4 Bft) 100,00 %
24.05.2016 15:37 10,7 C 92 % 1010,8 hPa 0,0 l/m 16,9 km/h (3 Bft) S-SW 207 0 min 0,000 mm 0,0 UV-I 77 W/m 9,5 C 5,2 C 24,1 km/h (4 Bft) 96,15 %
24.05.2016 15:38 10,7 C 92 % 1010,8 hPa 0,0 l/m 15,8 km/h (3 Bft) SW 220 0 min 0,000 mm 0,0 UV-I 76 W/m 9,5 C 5,7 C 24,1 km/h (4 Bft) 100,00 %
24.05.2016 15:39 10,7 C 92 % 1010,8 hPa 0,0 l/m 17,7 km/h (3 Bft) S-SW 213 0 min 0,000 mm 0,0 UV-I 72 W/m 9,5 C 5,0 C 25,7 km/h (4 Bft) 100,00 %
24.05.2016 15:40 10,7 C 92 % 1010,8 hPa 0,0 l/m 18,5 km/h (3 Bft) W-SW 244 0 min 0,000 mm 0,0 UV-I 69 W/m 9,5 C 4,7 C 25,7 km/h (4 Bft) 100,00 %
24.05.2016 15:41 10,7 C 92 % 1010,8 hPa 0,0 l/m 20,6 km/h (4 Bft) S-SW 203 0 min 0,000 mm 0,0 UV-I 70 W/m 9,5 C 4,0 C 27,4 km/h (4 Bft) 100,00 %
24.05.2016 15:42 10,7 C 92 % 1010,8 hPa 0,0 l/m 22,5 km/h (4 Bft) SW 232 0 min 0,000 mm 0,0 UV-I 70 W/m 9,5 C 3,4 C 27,4 km/h (4 Bft) 100,00 %
24.05.2016 15:43 10,7 C 92 % 1010,8 hPa 0,0 l/m 22,1 km/h (4 Bft) SW 219 0 min 0,000 mm 0,0 UV-I 71 W/m 9,5 C 3,6 C 30,6 km/h (5 Bft) 100,00 %
24.05.2016 15:44 10,7 C 92 % 1010,8 hPa 0,0 l/m 23,4 km/h (4 Bft) S-SW 200 0 min 0,000 mm 0,0 UV-I 70 W/m 9,5 C 3,2 C 33,8 km/h (5 Bft) 100,00 %
24.05.2016 15:45 10,7 C 92 % 1010,8 hPa 0,2 l/m 16,8 km/h (3 Bft) S-SW 212 0 min 0,000 mm 0,0 UV-I 68 W/m 9,5 C 5,3 C 20,9 km/h (4 Bft) 96,97 %
24.05.2016 15:46 10,7 C 92 % 1010,8 hPa 0,0 l/m 16,8 km/h (3 Bft) W-SW 248 0 min 0,000 mm 0,0 UV-I 67 W/m 9,5 C 5,3 C 30,6 km/h (5 Bft) 96,15 %
24.05.2016 15:47 10,6 C 93 % 1010,8 hPa 0,0 l/m 22,1 km/h (4 Bft) SW 236 0 min 0,000 mm 0,0 UV-I 67 W/m 9,5 C 3,4 C 30,6 km/h (5 Bft) 98,61 %
24.05.2016 15:48 10,6 C 93 % 1010,9 hPa 0,0 l/m 16,8 km/h (3 Bft) W-SW 248 0 min 0,000 mm 0,0 UV-I 67 W/m 9,5 C 5,2 C 27,4 km/h (4 Bft) 94,74 %
24.05.2016 15:49 10,6 C 93 % 1010,9 hPa 0,0 l/m 18,6 km/h (3 Bft) SW 236 0 min 0,000 mm 0,0 UV-I 67 W/m 9,5 C 4,5 C 35,4 km/h (5 Bft) 100,00 %
24.05.2016 15:50 10,6 C 93 % 1010,9 hPa 0,0 l/m 20,1 km/h (4 Bft) SW 220 0 min 0,000 mm 0,0 UV-I 64 W/m 9,5 C 4,0 C 27,4 km/h (4 Bft) 95,65 %
24.05.2016 15:51 10,6 C 93 % 1010,9 hPa 0,0 l/m 20,3 km/h (4 Bft) S-SW 207 0 min 0,000 mm 0,0 UV-I 68 W/m 9,5 C 4,0 C 29,0 km/h (5 Bft) 100,00 %
24.05.2016 15:52 10,6 C 93 % 1010,8 hPa 0,0 l/m 20,0 km/h (4 Bft) W-SW 242 0 min 0,000 mm 0,0 UV-I 69 W/m 9,5 C 4,1 C 29,0 km/h (5 Bft) 92,31 %
24.05.2016 15:53 10,6 C 93 % 1010,9 hPa 0,0 l/m 20,3 km/h (4 Bft) SW 219 0 min 0,000 mm 0,0 UV-I 67 W/m 9,5 C 4,0 C 29,0 km/h (5 Bft) 100,00 %
24.05.2016 15:54 10,6 C 93 % 1010,9 hPa 0,0 l/m 25,6 km/h (4 Bft) SW 217 0 min 0,000 mm 0,0 UV-I 63 W/m 9,5 C 2,5 C 35,4 km/h (5 Bft) 83,33 %
24.05.2016 15:55 10,6 C 93 % 1011,0 hPa 0,0 l/m 15,6 km/h (3 Bft) W-SW 242 0 min 0,000 mm 0,0 UV-I 62 W/m 9,5 C 5,6 C 25,7 km/h (4 Bft) 97,56 %
24.05.2016 15:56 10,6 C 93 % 1010,9 hPa 0,0 l/m 20,3 km/h (4 Bft) SW 236 0 min 0,000 mm 0,0 UV-I 62 W/m 9,5 C 4,0 C 27,4 km/h (4 Bft) 100,00 %
24.05.2016 15:57 10,5 C 93 % 1011,0 hPa 0,2 l/m 23,5 km/h (4 Bft) SW 236 0 min 0,000 mm 0,0 UV-I 63 W/m 9,4 C 2,9 C 29,0 km/h (5 Bft) 93,33 %
24.05.2016 15:58 10,5 C 93 % 1010,9 hPa 0,0 l/m 21,1 km/h (4 Bft) SW 214 0 min 0,000 mm 0,0 UV-I 68 W/m 9,4 C 3,6 C 29,0 km/h (5 Bft) 100,00 %
24.05.2016 15:59 10,5 C 94 % 1010,9 hPa 0,0 l/m 20,2 km/h (4 Bft) SW 235 0 min 0,000 mm 0,4 UV-I 78 W/m 9,6 C 3,9 C 25,7 km/h (4 Bft) 86,96 %
24.05.2016 16:00 10,5 C 93 % 1010,9 hPa 0,0 l/m 22,5 km/h (4 Bft) S-SW 192 0 min 0,000 mm 0,1 UV-I 76 W/m 9,4 C 3,2 C 29,0 km/h (5 Bft) 100,00 %
24.05.2016 16:01 10,5 C 93 % 1011,0 hPa 0,0 l/m 23,6 km/h (4 Bft) W-SW 242 0 min 0,051 mm 0,1 UV-I 77 W/m 9,4 C 2,9 C 37,0 km/h (5 Bft) 94,12 %
24.05.2016 16:02 10,5 C 93 % 1010,9 hPa 0,0 l/m 19,5 km/h (3 Bft) W-SW 240 0 min 0,000 mm 0,5 UV-I 81 W/m 9,4 C 4,1 C 32,2 km/h (5 Bft) 100,00 %
24.05.2016 16:03 10,5 C 93 % 1011,0 hPa 0,0 l/m 18,0 km/h (3 Bft) SW 221 0 min 0,000 mm 0,5 UV-I 83 W/m 9,4 C 4,6 C 27,4 km/h (4 Bft) 96,15 %
24.05.2016 16:04 10,5 C 94 % 1010,9 hPa 0,0 l/m 20,0 km/h (4 Bft) S-SO 160 0 min 0,000 mm 0,5 UV-I 93 W/m 9,6 C 3,9 C 29,0 km/h (5 Bft) 96,30 %
24.05.2016 16:05 10,5 C 94 % 1010,9 hPa 0,0 l/m 13,5 km/h (3 Bft) W-SW 240 0 min 0,000 mm 0,5 UV-I 98 W/m 9,6 C 6,4 C 24,1 km/h (4 Bft) 96,15 %
24.05.2016 16:06 10,5 C 94 % 1010,9 hPa 0,0 l/m 20,2 km/h (4 Bft) W-SW 238 0 min 0,000 mm 0,5 UV-I 101 W/m 9,6 C 3,9 C 24,1 km/h (4 Bft) 91,67 %
24.05.2016 16:07 10,5 C 94 % 1010,9 hPa 0,0 l/m 22,5 km/h (4 Bft) SW 223 0 min 0,000 mm 0,6 UV-I 110 W/m 9,6 C 3,2 C 30,6 km/h (5 Bft) 100,00 %
24.05.2016 16:08 10,5 C 94 % 1011,0 hPa 0,0 l/m 18,2 km/h (3 Bft) SW 227 0 min 0,000 mm 0,6 UV-I 111 W/m 9,6 C 4,5 C 30,6 km/h (5 Bft) 91,67 %
24.05.2016 16:09 10,5 C 94 % 1011,0 hPa 0,0 l/m 21,4 km/h (4 Bft) W-SW 246 0 min 0,000 mm 0,6 UV-I 116 W/m 9,6 C 3,5 C 33,8 km/h (5 Bft) 100,00 %
24.05.2016 16:10 10,5 C 94 % 1010,9 hPa 0,0 l/m 22,0 km/h (4 Bft) S-SW 198 0 min 0,000 mm 0,7 UV-I 120 W/m 9,6 C 3,3 C 27,4 km/h (4 Bft) 96,67 %
24.05.2016 16:11 10,5 C 94 % 1011,0 hPa 0,0 l/m 15,0 km/h (3 Bft) SW 223 0 min 0,000 mm 0,7 UV-I 120 W/m 9,6 C 5,7 C 22,5 km/h (4 Bft) 86,96 %
24.05.2016 16:12 10,5 C 94 % 1010,9 hPa 0,0 l/m 18,0 km/h (3 Bft) SW 214 0 min 0,000 mm 0,7 UV-I 124 W/m 9,6 C 4,6 C 27,4 km/h (4 Bft) 100,00 %
24.05.2016 16:13 10,5 C 94 % 1011,0 hPa 0,0 l/m 22,4 km/h (4 Bft) S-SW 194 0 min 0,000 mm 0,7 UV-I 126 W/m 9,6 C 3,2 C 32,2 km/h (5 Bft) 96,30 %
24.05.2016 16:14 10,5 C 94 % 1011,0 hPa 0,0 l/m 20,2 km/h (4 Bft) SW 229 0 min 0,000 mm 0,6 UV-I 126 W/m 9,6 C 3,9 C 27,4 km/h (4 Bft) 100,00 %
24.05.2016 16:15 10,6 C 94 % 1010,9 hPa 0,0 l/m 21,2 km/h (4 Bft) W-SW 251 0 min 0,000 mm 0,7 UV-I 134 W/m 9,7 C 3,7 C 32,2 km/h (5 Bft) 100,00 %
24.05.2016 16:16 10,5 C 94 % 1010,9 hPa 0,0 l/m 18,8 km/h (3 Bft) S-SW 201 0 min 0,000 mm 0,6 UV-I 129 W/m 9,6 C 4,3 C 25,7 km/h (4 Bft) 96,88 %
24.05.2016 16:17 10,6 C 94 % 1010,9 hPa 0,0 l/m 17,5 km/h (3 Bft) W-SW 246 0 min 0,000 mm 0,6 UV-I 129 W/m 9,7 C 4,9 C 27,4 km/h (4 Bft) 89,66 %
24.05.2016 16:18 10,5 C 94 % 1010,9 hPa 0,0 l/m 21,7 km/h (4 Bft) S-SW 211 0 min 0,000 mm 0,7 UV-I 140 W/m 9,6 C 3,4 C 29,0 km/h (5 Bft) 98,51 %
24.05.2016 16:19 10,5 C 94 % 1010,9 hPa 0,0 l/m 12,0 km/h (2 Bft) S-SW 211 0 min 0,000 mm 0,7 UV-I 145 W/m 9,6 C 7,1 C 16,1 km/h (3 Bft) 97,44 %
24.05.2016 16:20 10,5 C 94 % 1010,9 hPa 0,0 l/m 21,4 km/h (4 Bft) W-SW 257 0 min 0,000 mm 0,7 UV-I 144 W/m 9,6 C 3,5 C 27,4 km/h (4 Bft) 100,00 %
24.05.2016 16:21 10,5 C 94 % 1010,9 hPa 0,0 l/m 14,9 km/h (3 Bft) S-SW 209 0 min 0,000 mm 0,8 UV-I 147 W/m 9,6 C 5,8 C 22,5 km/h (4 Bft) 95,83 %
24.05.2016 16:22 10,5 C 94 % 1010,9 hPa 0,0 l/m 25,7 km/h (4 Bft) W-SW 245 0 min 0,000 mm 0,8 UV-I 152 W/m 9,6 C 2,3 C 37,0 km/h (5 Bft) 91,30 %
24.05.2016 16:23 10,6 C 94 % 1010,9 hPa 0,0 l/m 19,6 km/h (3 Bft) W-SW 241 0 min 0,000 mm 0,8 UV-I 150 W/m 9,7 C 4,2 C 30,6 km/h (5 Bft) 100,00 %
24.05.2016 16:24 10,5 C 94 % 1010,9 hPa 0,0 l/m 20,0 km/h (4 Bft) SW 222 0 min 0,000 mm 0,7 UV-I 139 W/m 9,6 C 3,9 C 29,0 km/h (5 Bft) 95,65 %
24.05.2016 16:25 10,6 C 94 % 1010,9 hPa 0,0 l/m 20,2 km/h (4 Bft) SW 214 0 min 0,000 mm 0,7 UV-I 130 W/m 9,7 C 4,0 C 29,0 km/h (5 Bft) 100,00 %
24.05.2016 16:26 10,6 C 94 % 1010,9 hPa 0,0 l/m 18,0 km/h (3 Bft) W-SW 238 0 min 0,000 mm 0,6 UV-I 125 W/m 9,7 C 4,7 C 22,5 km/h (4 Bft) 100,00 %
24.05.2016 16:27 10,6 C 94 % 1010,9 hPa 0,0 l/m 19,6 km/h (3 Bft) SW 232 0 min 0,000 mm 0,7 UV-I 127 W/m 9,7 C 4,2 C 24,1 km/h (4 Bft) 100,00 %
24.05.2016 16:28 10,6 C 94 % 1010,9 hPa 0,0 l/m 19,5 km/h (3 Bft) W-SW 240 0 min 0,000 mm 0,6 UV-I 123 W/m 9,7 C 4,2 C 25,7 km/h (4 Bft) 96,15 %
24.05.2016 16:29 10,6 C 94 % 1010,9 hPa 0,0 l/m 21,3 km/h (4 Bft) S-SW 205 0 min 0,000 mm 0,6 UV-I 117 W/m 9,7 C 3,7 C 32,2 km/h (5 Bft) 96,30 %
24.05.2016 16:30 10,6 C 94 % 1010,9 hPa 0,0 l/m 20,7 km/h (4 Bft) SW 225 0 min 0,000 mm 0,6 UV-I 112 W/m 9,7 C 3,8 C 32,2 km/h (5 Bft) 100,00 %
24.05.2016 16:31 10,5 C 94 % 1010,9 hPa 0,0 l/m 18,3 km/h (3 Bft) SW 225 0 min 0,000 mm 0,6 UV-I 108 W/m 9,6 C 4,5 C 33,8 km/h (5 Bft) 100,00 %
24.05.2016 16:32 10,5 C 94 % 1010,9 hPa 0,0 l/m 17,0 km/h (3 Bft) SW 229 0 min 0,000 mm 0,5 UV-I 103 W/m 9,6 C 5,0 C 24,1 km/h (4 Bft) 100,00 %
24.05.2016 16:33 10,5 C 94 % 1010,9 hPa 0,0 l/m 22,0 km/h (4 Bft) W-SW 237 0 min 0,000 mm 0,5 UV-I 102 W/m 9,6 C 3,3 C 35,4 km/h (5 Bft) 97,56 %
24.05.2016 16:34 10,5 C 94 % 1010,8 hPa 0,0 l/m 28,8 km/h (4 Bft) SW 220 0 min 0,000 mm 0,5 UV-I 100 W/m 9,6 C 1,6 C 40,2 km/h (6 Bft) 100,00 %
24.05.2016 16:35 10,5 C 94 % 1010,8 hPa 0,0 l/m 22,4 km/h (4 Bft) W-SW 250 0 min 0,000 mm 0,5 UV-I 97 W/m 9,6 C 3,2 C 33,8 km/h (5 Bft) 100,00 %
24.05.2016 16:36 10,4 C 94 % 1010,8 hPa 0,2 l/m 24,1 km/h (4 Bft) SW 221 0 min 0,000 mm 0,5 UV-I 95 W/m 9,5 C 2,6 C 33,8 km/h (5 Bft) 100,00 %
24.05.2016 16:37 10,4 C 94 % 1010,9 hPa 0,0 l/m 21,4 km/h (4 Bft) S-SW 210 0 min 0,000 mm 0,5 UV-I 96 W/m 9,5 C 3,4 C 32,2 km/h (5 Bft) 100,00 %
24.05.2016 16:38 10,4 C 94 % 1010,8 hPa 0,0 l/m 20,2 km/h (4 Bft) W-SW 248 0 min 0,000 mm 0,3 UV-I 94 W/m 9,5 C 3,7 C 25,7 km/h (4 Bft) 100,00 %
24.05.2016 16:39 10,4 C 94 % 1010,9 hPa 0,0 l/m 17,6 km/h (3 Bft) W-SW 250 0 min 0,000 mm 0,0 UV-I 90 W/m 9,5 C 4,6 C 25,7 km/h (4 Bft) 100,00 %
24.05.2016 16:40 10,4 C 95 % 1010,8 hPa 0,0 l/m 16,6 km/h (3 Bft) S-SW 198 0 min 0,000 mm 0,0 UV-I 86 W/m 9,6 C 5,0 C 20,9 km/h (4 Bft) 100,00 %
24.05.2016 16:41 10,5 C 95 % 1010,8 hPa 0,0 l/m 17,8 km/h (3 Bft) W-SW 237 0 min 0,000 mm 0,0 UV-I 86 W/m 9,7 C 4,7 C 29,0 km/h (5 Bft) 100,00 %
24.05.2016 16:42 10,4 C 95 % 1010,8 hPa 0,0 l/m 24,6 km/h (4 Bft) W-SW 238 0 min 0,000 mm 0,0 UV-I 84 W/m 9,6 C 2,5 C 38,6 km/h (5 Bft) 100,00 %
24.05.2016 16:43 10,4 C 95 % 1010,8 hPa 0,0 l/m 20,0 km/h (4 Bft) W-SW 242 0 min 0,000 mm 0,0 UV-I 82 W/m 9,6 C 3,8 C 29,0 km/h (5 Bft) 100,00 %
24.05.2016 16:44 10,4 C 95 % 1010,9 hPa 0,0 l/m 19,5 km/h (3 Bft) SW 220 0 min 0,000 mm 0,0 UV-I 75 W/m 9,6 C 4,0 C 29,0 km/h (5 Bft) 96,67 %
24.05.2016 16:45 10,4 C 95 % 1010,8 hPa 0,0 l/m 18,1 km/h (3 Bft) W-SW 246 0 min 0,000 mm 0,0 UV-I 71 W/m 9,6 C 4,4 C 27,4 km/h (4 Bft) 100,00 %
24.05.2016 16:46 10,4 C 95 % 1010,9 hPa 0,0 l/m 13,5 km/h (3 Bft) SW 223 0 min 0,000 mm 0,0 UV-I 67 W/m 9,6 C 6,3 C 24,1 km/h (4 Bft) 100,00 %
24.05.2016 16:47 10,4 C 95 % 1010,9 hPa 0,0 l/m 19,0 km/h (3 Bft) SW 224 0 min 0,000 mm 0,0 UV-I 67 W/m 9,6 C 4,1 C 27,4 km/h (4 Bft) 100,00 %
24.05.2016 16:48 10,4 C 95 % 1010,9 hPa 0,0 l/m 19,1 km/h (3 Bft) SW 219 0 min 0,000 mm 0,0 UV-I 66 W/m 9,6 C 4,1 C 27,4 km/h (4 Bft) 100,00 %
24.05.2016 16:49 10,4 C 95 % 1010,9 hPa 0,0 l/m 22,8 km/h (4 Bft) W-SW 240 0 min 0,000 mm 0,0 UV-I 62 W/m 9,6 C 3,0 C 32,2 km/h (5 Bft) 100,00 %
24.05.2016 16:50 10,3 C 95 % 1010,9 hPa 0,0 l/m 25,5 km/h (4 Bft) S-SW 196 0 min 0,000 mm 0,0 UV-I 57 W/m 9,5 C 2,1 C 35,4 km/h (5 Bft) 100,00 %
24.05.2016 16:51 10,4 C 95 % 1010,9 hPa 0,0 l/m 22,0 km/h (4 Bft) SW 229 0 min 0,000 mm 0,0 UV-I 56 W/m 9,6 C 3,2 C 30,6 km/h (5 Bft) 98,52 %
24.05.2016 16:52 10,3 C 95 % 1010,9 hPa 0,0 l/m 16,6 km/h (3 Bft) W-SW 246 0 min 0,000 mm 0,0 UV-I 54 W/m 9,5 C 4,9 C 29,0 km/h (5 Bft) 100,00 %
24.05.2016 16:53 10,3 C 95 % 1010,9 hPa 0,0 l/m 19,5 km/h (3 Bft) SW 228 0 min 0,000 mm 0,0 UV-I 54 W/m 9,5 C 3,8 C 24,1 km/h (4 Bft) 100,00 %
24.05.2016 16:54 10,3 C 95 % 1010,9 hPa 0,0 l/m 29,4 km/h (5 Bft) SW 228 0 min 0,000 mm 0,0 UV-I 54 W/m 9,5 C 1,2 C 37,0 km/h (5 Bft) 100,00 %
24.05.2016 16:55 10,3 C 95 % 1010,9 hPa 0,0 l/m 22,1 km/h (4 Bft) W-SW 238 0 min 0,000 mm 0,0 UV-I 54 W/m 9,5 C 3,0 C 32,2 km/h (5 Bft) 96,15 %
24.05.2016 16:56 10,3 C 95 % 1010,9 hPa 0,0 l/m 21,2 km/h (4 Bft) W-SW 238 0 min 0,000 mm 0,0 UV-I 54 W/m 9,5 C 3,3 C 29,0 km/h (5 Bft) 100,00 %
24.05.2016 16:57 10,3 C 95 % 1010,9 hPa 0,0 l/m 19,7 km/h (3 Bft) S-SW 209 0 min 0,000 mm 0,0 UV-I 56 W/m 9,5 C 3,8 C 33,8 km/h (5 Bft) 91,67 %
24.05.2016 16:58 10,3 C 95 % 1010,8 hPa 0,0 l/m 22,8 km/h (4 Bft) W-SW 238 0 min 0,000 mm 0,0 UV-I 55 W/m 9,5 C 2,8 C 32,2 km/h (5 Bft) 96,55 %
24.05.2016 16:59 10,3 C 95 % 1010,9 hPa 0,0 l/m 25,1 km/h (4 Bft) SW 225 0 min 0,000 mm 0,0 UV-I 50 W/m 9,5 C 2,2 C 32,2 km/h (5 Bft) 100,00 %
24.05.2016 17:00 10,3 C 95 % 1010,9 hPa 0,0 l/m 17,6 km/h (3 Bft) SW 229 0 min 0,000 mm 0,0 UV-I 48 W/m 9,5 C 4,5 C 25,7 km/h (4 Bft) 100,00 %
24.05.2016 17:02 10,3 C 95 % 1010,9 hPa 0,0 l/m 20,7 km/h (4 Bft) SW 234 0 min 0,051 mm 0,0 UV-I 47 W/m 9,5 C 3,5 C 30,6 km/h (5 Bft) 100,00 %
24.05.2016 17:03 10,3 C 95 % 1011,0 hPa 0,0 l/m 19,4 km/h (3 Bft) W-SW 240 0 min 0,000 mm 0,0 UV-I 47 W/m 9,5 C 3,9 C 24,1 km/h (4 Bft) 100,00 %
24.05.2016 17:04 10,3 C 95 % 1011,0 hPa 0,0 l/m 17,3 km/h (3 Bft) S-SW 202 0 min 0,000 mm 0,0 UV-I 47 W/m 9,5 C 4,6 C 24,1 km/h (4 Bft) 95,65 %
24.05.2016 17:05 10,3 C 95 % 1011,0 hPa 0,0 l/m 19,2 km/h (3 Bft) S-SW 213 0 min 0,000 mm 0,0 UV-I 47 W/m 9,5 C 3,9 C 24,1 km/h (4 Bft) 100,00 %
24.05.2016 17:06 10,3 C 95 % 1011,0 hPa 0,0 l/m 20,3 km/h (4 Bft) W 269 0 min 0,000 mm 0,0 UV-I 47 W/m 9,5 C 3,6 C 29,0 km/h (5 Bft) 92,86 %
24.05.2016 17:07 10,3 C 95 % 1011,0 hPa 0,0 l/m 31,0 km/h (5 Bft) W-SW 250 0 min 0,000 mm 0,0 UV-I 48 W/m 9,5 C 0,9 C 41,8 km/h (6 Bft) 100,00 %
24.05.2016 17:08 10,3 C 94 % 1011,0 hPa 0,0 l/m 28,1 km/h (4 Bft) W-SW 238 0 min 0,000 mm 0,0 UV-I 49 W/m 9,4 C 1,5 C 41,8 km/h (6 Bft) 100,00 %
24.05.2016 17:09 10,3 C 94 % 1011,0 hPa 0,0 l/m 25,7 km/h (4 Bft) SW 215 0 min 0,000 mm 0,0 UV-I 49 W/m 9,4 C 2,1 C 32,2 km/h (5 Bft) 96,67 %
24.05.2016 17:10 10,3 C 95 % 1011,0 hPa 0,0 l/m 22,9 km/h (4 Bft) S-SW 207 0 min 0,000 mm 0,0 UV-I 49 W/m 9,5 C 2,8 C 30,6 km/h (5 Bft) 91,67 %
24.05.2016 17:11 10,3 C 94 % 1011,0 hPa 0,0 l/m 17,8 km/h (3 Bft) SW 227 0 min 0,000 mm 0,0 UV-I 46 W/m 9,4 C 4,4 C 27,4 km/h (4 Bft) 100,00 %
24.05.2016 17:12 10,3 C 94 % 1011,0 hPa 0,0 l/m 23,1 km/h (4 Bft) SW 226 0 min 0,000 mm 0,0 UV-I 44 W/m 9,4 C 2,7 C 30,6 km/h (5 Bft) 100,00 %
24.05.2016 17:13 10,3 C 95 % 1011,0 hPa 0,0 l/m 20,1 km/h (4 Bft) S 176 0 min 0,000 mm 0,0 UV-I 44 W/m 9,5 C 3,6 C 29,0 km/h (5 Bft) 100,00 %
24.05.2016 17:14 10,3 C 95 % 1011,0 hPa 0,0 l/m 16,7 km/h (3 Bft) SW 223 0 min 0,000 mm 0,0 UV-I 43 W/m 9,5 C 4,8 C 22,5 km/h (4 Bft) 100,00 %
24.05.2016 17:15 10,3 C 95 % 1011,1 hPa 0,0 l/m 19,9 km/h (4 Bft) W-SW 242 0 min 0,000 mm 0,0 UV-I 42 W/m 9,5 C 3,7 C 30,6 km/h (5 Bft) 100,00 %
24.05.2016 17:16 10,3 C 95 % 1011,0 hPa 0,0 l/m 24,7 km/h (4 Bft) W-SW 243 0 min 0,000 mm 0,0 UV-I 42 W/m 9,5 C 2,3 C 30,6 km/h (5 Bft) 100,00 %
24.05.2016 17:17 10,3 C 95 % 1011,2 hPa 0,0 l/m 20,0 km/h (4 Bft) SW 229 0 min 0,000 mm 0,0 UV-I 40 W/m 9,5 C 3,7 C 24,1 km/h (4 Bft) 100,00 %
24.05.2016 17:18 10,3 C 95 % 1011,1 hPa 0,0 l/m 17,8 km/h (3 Bft) SW 222 0 min 0,000 mm 0,0 UV-I 40 W/m 9,5 C 4,4 C 32,2 km/h (5 Bft) 100,00 %
24.05.2016 17:19 10,3 C 94 % 1011,0 hPa 0,0 l/m 25,5 km/h (4 Bft) SW 235 0 min 0,000 mm 0,0 UV-I 40 W/m 9,4 C 2,1 C 32,2 km/h (5 Bft) 100,00 %
24.05.2016 17:20 10,3 C 94 % 1011,1 hPa 0,0 l/m 21,1 km/h (4 Bft) S-SW 194 0 min 0,000 mm 0,0 UV-I 39 W/m 9,4 C 3,3 C 33,8 km/h (5 Bft) 95,83 %
24.05.2016 17:21 10,3 C 94 % 1011,1 hPa 0,0 l/m 22,0 km/h (4 Bft) SW 223 0 min 0,000 mm 0,0 UV-I 37 W/m 9,4 C 3,1 C 30,6 km/h (5 Bft) 100,00 %
24.05.2016 17:22 10,3 C 94 % 1011,1 hPa 0,0 l/m 25,1 km/h (4 Bft) S-SW 198 0 min 0,000 mm 0,0 UV-I 35 W/m 9,4 C 2,2 C 35,4 km/h (5 Bft) 100,00 %
24.05.2016 17:23 10,3 C 94 % 1011,1 hPa 0,0 l/m 24,5 km/h (4 Bft) SW 234 0 min 0,000 mm 0,0 UV-I 33 W/m 9,4 C 2,4 C 32,2 km/h (5 Bft) 100,00 %
24.05.2016 17:24 10,3 C 94 % 1011,2 hPa 0,0 l/m 22,7 km/h (4 Bft) SW 229 0 min 0,000 mm 0,0 UV-I 32 W/m 9,4 C 2,9 C 32,2 km/h (5 Bft) 100,00 %
24.05.2016 17:25 10,3 C 94 % 1011,2 hPa 0,0 l/m 19,5 km/h (3 Bft) S-SW 203 0 min 0,000 mm 0,0 UV-I 31 W/m 9,4 C 3,8 C 30,6 km/h (5 Bft) 100,00 %
24.05.2016 17:26 10,3 C 94 % 1011,2 hPa 0,0 l/m 24,4 km/h (4 Bft) SW 228 0 min 0,000 mm 0,0 UV-I 30 W/m 9,4 C 2,4 C 35,4 km/h (5 Bft) 100,00 %
24.05.2016 17:27 10,3 C 94 % 1011,2 hPa 0,0 l/m 19,4 km/h (3 Bft) SW 234 0 min 0,000 mm 0,0 UV-I 30 W/m 9,4 C 3,9 C 25,7 km/h (4 Bft) 100,00 %
24.05.2016 17:28 10,3 C 94 % 1011,2 hPa 0,0 l/m 17,8 km/h (3 Bft) SW 236 0 min 0,000 mm 0,0 UV-I 30 W/m 9,4 C 4,4 C 25,7 km/h (4 Bft) 100,00 %
24.05.2016 17:29 10,3 C 94 % 1011,2 hPa 0,0 l/m 21,4 km/h (4 Bft) SW 226 0 min 0,000 mm 0,0 UV-I 30 W/m 9,4 C 3,2 C 27,4 km/h (4 Bft) 100,00 %
24.05.2016 17:30 10,3 C 94 % 1011,2 hPa 0,0 l/m 17,9 km/h (3 Bft) S-SW 207 0 min 0,000 mm 0,0 UV-I 30 W/m 9,4 C 4,4 C 22,5 km/h (4 Bft) 100,00 %
24.05.2016 17:31 10,3 C 94 % 1011,2 hPa 0,0 l/m 23,7 km/h (4 Bft) W-SW 248 0 min 0,000 mm 0,0 UV-I 30 W/m 9,4 C 2,6 C 33,8 km/h (5 Bft) 96,15 %
24.05.2016 17:32 10,3 C 94 % 1011,2 hPa 0,0 l/m 29,5 km/h (5 Bft) SW 219 0 min 0,000 mm 0,0 UV-I 30 W/m 9,4 C 1,2 C 43,5 km/h (6 Bft) 100,00 %
24.05.2016 17:33 10,3 C 94 % 1011,1 hPa 0,0 l/m 25,7 km/h (4 Bft) W-SW 240 0 min 0,000 mm 0,0 UV-I 30 W/m 9,4 C 2,1 C 32,2 km/h (5 Bft) 100,00 %
24.05.2016 17:34 10,3 C 94 % 1011,2 hPa 0,0 l/m 20,5 km/h (4 Bft) W 264 0 min 0,000 mm 0,0 UV-I 30 W/m 9,4 C 3,5 C 27,4 km/h (4 Bft) 100,00 %
24.05.2016 17:35 10,3 C 94 % 1011,2 hPa 0,0 l/m 22,1 km/h (4 Bft) SW 232 0 min 0,000 mm 0,0 UV-I 30 W/m 9,4 C 3,0 C 30,6 km/h (5 Bft) 100,00 %
24.05.2016 17:36 10,3 C 94 % 1011,1 hPa 0,0 l/m 20,9 km/h (4 Bft) SW 234 0 min 0,000 mm 0,0 UV-I 30 W/m 9,4 C 3,4 C 27,4 km/h (4 Bft) 100,00 %
24.05.2016 17:37 10,3 C 94 % 1011,2 hPa 0,0 l/m 14,5 km/h (3 Bft) SW 225 0 min 0,000 mm 0,0 UV-I 31 W/m 9,4 C 5,7 C 24,1 km/h (4 Bft) 100,00 %
24.05.2016 17:38 10,3 C 94 % 1011,2 hPa 0,0 l/m 22,9 km/h (4 Bft) S-SW 201 0 min 0,000 mm 0,0 UV-I 30 W/m 9,4 C 2,8 C 33,8 km/h (5 Bft) 95,65 %
24.05.2016 17:39 10,3 C 94 % 1011,1 hPa 0,0 l/m 21,4 km/h (4 Bft) W-SW 241 0 min 0,000 mm 0,0 UV-I 28 W/m 9,4 C 3,2 C 35,4 km/h (5 Bft) 100,00 %
24.05.2016 17:40 10,3 C 94 % 1011,2 hPa 0,0 l/m 22,0 km/h (4 Bft) W-SW 243 0 min 0,000 mm 0,0 UV-I 28 W/m 9,4 C 3,1 C 29,0 km/h (5 Bft) 100,00 %
24.05.2016 17:41 10,3 C 94 % 1011,2 hPa 0,0 l/m 25,1 km/h (4 Bft) SW 229 0 min 0,000 mm 0,0 UV-I 28 W/m 9,4 C 2,2 C 38,6 km/h (5 Bft) 100,00 %
24.05.2016 17:42 10,3 C 93 % 1011,2 hPa 0,0 l/m 31,6 km/h (5 Bft) W-SW 246 0 min 0,000 mm 0,0 UV-I 28 W/m 9,2 C 0,8 C 40,2 km/h (6 Bft) 100,00 %
24.05.2016 17:43 10,3 C 93 % 1011,2 hPa 0,0 l/m 21,5 km/h (4 Bft) W-SW 239 0 min 0,000 mm 0,0 UV-I 28 W/m 9,2 C 3,2 C 30,6 km/h (5 Bft) 100,00 %
24.05.2016 17:44 10,3 C 93 % 1011,2 hPa 0,0 l/m 18,7 km/h (3 Bft) S-SW 210 0 min 0,000 mm 0,0 UV-I 28 W/m 9,2 C 4,1 C 24,1 km/h (4 Bft) 96,15 %
24.05.2016 17:45 10,3 C 93 % 1011,2 hPa 0,0 l/m 20,4 km/h (4 Bft) W 264 0 min 0,000 mm 0,0 UV-I 28 W/m 9,2 C 3,5 C 30,6 km/h (5 Bft) 100,00 %
24.05.2016 17:46 10,3 C 93 % 1011,3 hPa 0,0 l/m 24,3 km/h (4 Bft) SW 224 0 min 0,000 mm 0,0 UV-I 28 W/m 9,2 C 2,4 C 33,8 km/h (5 Bft) 100,00 %
24.05.2016 17:47 10,3 C 93 % 1011,2 hPa 0,0 l/m 21,8 km/h (4 Bft) W-SW 252 0 min 0,000 mm 0,0 UV-I 28 W/m 9,2 C 3,1 C 35,4 km/h (5 Bft) 100,00 %
24.05.2016 17:48 10,3 C 93 % 1011,3 hPa 0,0 l/m 16,3 km/h (3 Bft) W-SW 246 0 min 0,000 mm 0,0 UV-I 28 W/m 9,2 C 5,0 C 22,5 km/h (4 Bft) 100,00 %
24.05.2016 17:49 10,3 C 93 % 1011,3 hPa 0,0 l/m 25,7 km/h (4 Bft) W-SW 252 0 min 0,000 mm 0,0 UV-I 28 W/m 9,2 C 2,1 C 33,8 km/h (5 Bft) 95,83 %
24.05.2016 17:50 10,3 C 93 % 1011,3 hPa 0,0 l/m 22,3 km/h (4 Bft) W-SW 253 0 min 0,000 mm 0,0 UV-I 26 W/m 9,2 C 3,0 C 29,0 km/h (5 Bft) 95,65 %
24.05.2016 17:51 10,3 C 93 % 1011,3 hPa 0,0 l/m 19,9 km/h (4 Bft) W-SW 240 0 min 0,000 mm 0,0 UV-I 26 W/m 9,2 C 3,7 C 30,6 km/h (5 Bft) 100,00 %
24.05.2016 17:52 10,3 C 93 % 1011,3 hPa 0,0 l/m 19,7 km/h (3 Bft) W-SW 255 0 min 0,000 mm 0,0 UV-I 26 W/m 9,2 C 3,8 C 30,6 km/h (5 Bft) 96,30 %
24.05.2016 17:53 10,3 C 93 % 1011,3 hPa 0,0 l/m 21,2 km/h (4 Bft) S-SW 203 0 min 0,000 mm 0,0 UV-I 28 W/m 9,2 C 3,3 C 38,6 km/h (5 Bft) 100,00 %
24.05.2016 17:54 10,3 C 93 % 1011,4 hPa 0,0 l/m 19,0 km/h (3 Bft) SW 227 0 min 0,000 mm 0,0 UV-I 27 W/m 9,2 C 4,0 C 30,6 km/h (5 Bft) 93,33 %
24.05.2016 17:55 10,3 C 93 % 1011,5 hPa 0,0 l/m 20,6 km/h (4 Bft) SW 232 0 min 0,000 mm 0,0 UV-I 26 W/m 9,2 C 3,5 C 27,4 km/h (4 Bft) 100,00 %
24.05.2016 17:56 10,3 C 93 % 1011,5 hPa 0,0 l/m 17,4 km/h (3 Bft) SW 232 0 min 0,000 mm 0,0 UV-I 26 W/m 9,2 C 4,6 C 25,7 km/h (4 Bft) 96,30 %
24.05.2016 17:57 10,3 C 93 % 1011,4 hPa 0,0 l/m 14,9 km/h (3 Bft) W-SW 251 0 min 0,000 mm 0,0 UV-I 28 W/m 9,2 C 5,5 C 24,1 km/h (4 Bft) 96,15 %
24.05.2016 17:58 10,3 C 93 % 1011,5 hPa 0,0 l/m 22,9 km/h (4 Bft) SW 234 0 min 0,000 mm 0,0 UV-I 28 W/m 9,2 C 2,8 C 35,4 km/h (5 Bft) 93,33 %
24.05.2016 17:59 10,3 C 93 % 1011,5 hPa 0,0 l/m 19,0 km/h (3 Bft) S-SW 208 0 min 0,000 mm 0,0 UV-I 28 W/m 9,2 C 4,0 C 27,4 km/h (4 Bft) 93,10 %
24.05.2016 18:00 10,3 C 93 % 1011,6 hPa 0,0 l/m 18,5 km/h (3 Bft) SW 231 0 min 0,000 mm 0,0 UV-I 27 W/m 9,2 C 4,2 C 25,7 km/h (4 Bft) 100,00 %
24.05.2016 18:02 10,3 C 93 % 1011,6 hPa 0,0 l/m 18,8 km/h (3 Bft) S 171 0 min 0,025 mm 0,0 UV-I 26 W/m 9,2 C 4,1 C 32,2 km/h (5 Bft) 97,37 %
24.05.2016 18:03 10,3 C 93 % 1011,6 hPa 0,0 l/m 17,8 km/h (3 Bft) SW 221 0 min 0,000 mm 0,0 UV-I 26 W/m 9,2 C 4,4 C 30,6 km/h (5 Bft) 95,65 %
24.05.2016 18:04 10,3 C 93 % 1011,6 hPa 0,0 l/m 21,2 km/h (4 Bft) SW 236 0 min 0,000 mm 0,0 UV-I 25 W/m 9,2 C 3,3 C 32,2 km/h (5 Bft) 100,00 %
24.05.2016 18:05 10,3 C 93 % 1011,6 hPa 0,0 l/m 22,4 km/h (4 Bft) W-SW 253 0 min 0,000 mm 0,0 UV-I 25 W/m 9,2 C 2,9 C 32,2 km/h (5 Bft) 96,15 %
24.05.2016 18:06 10,3 C 93 % 1011,5 hPa 0,0 l/m 21,4 km/h (4 Bft) SW 230 0 min 0,000 mm 0,0 UV-I 25 W/m 9,2 C 3,2 C 27,4 km/h (4 Bft) 96,30 %
24.05.2016 18:07 10,3 C 93 % 1011,6 hPa 0,0 l/m 19,4 km/h (3 Bft) SW 221 0 min 0,000 mm 0,0 UV-I 25 W/m 9,2 C 3,9 C 29,0 km/h (5 Bft) 98,53 %
24.05.2016 18:08 10,3 C 93 % 1011,5 hPa 0,2 l/m 23,0 km/h (4 Bft) SW 236 0 min 0,000 mm 0,0 UV-I 26 W/m 9,2 C 2,8 C 29,0 km/h (5 Bft) 97,73 %
24.05.2016 18:09 10,3 C 93 % 1011,6 hPa 0,0 l/m 18,8 km/h (3 Bft) SW 235 0 min 0,000 mm 0,0 UV-I 25 W/m 9,2 C 4,1 C 25,7 km/h (4 Bft) 100,00 %
24.05.2016 18:10 10,3 C 93 % 1011,6 hPa 0,0 l/m 22,4 km/h (4 Bft) SW 223 0 min 0,000 mm 0,0 UV-I 26 W/m 9,2 C 2,9 C 32,2 km/h (5 Bft) 92,31 %
24.05.2016 18:11 10,3 C 93 % 1011,6 hPa 0,0 l/m 20,3 km/h (4 Bft) W-SW 250 0 min 0,000 mm 0,0 UV-I 26 W/m 9,2 C 3,6 C 29,0 km/h (5 Bft) 96,30 %
24.05.2016 18:12 10,3 C 94 % 1011,5 hPa 0,0 l/m 23,7 km/h (4 Bft) SW 234 0 min 0,000 mm 0,0 UV-I 26 W/m 9,4 C 2,6 C 30,6 km/h (5 Bft) 96,88 %
24.05.2016 18:13 10,3 C 93 % 1011,5 hPa 0,0 l/m 19,6 km/h (3 Bft) SW 234 0 min 0,000 mm 0,0 UV-I 28 W/m 9,2 C 3,8 C 29,0 km/h (5 Bft) 100,00 %
24.05.2016 18:14 10,2 C 94 % 1011,5 hPa 0,0 l/m 23,5 km/h (4 Bft) SW 218 0 min 0,000 mm 0,0 UV-I 28 W/m 9,3 C 2,5 C 37,0 km/h (5 Bft) 96,15 %
24.05.2016 18:15 10,2 C 94 % 1011,5 hPa 0,0 l/m 25,3 km/h (4 Bft) SW 236 0 min 0,000 mm 0,0 UV-I 28 W/m 9,3 C 2,0 C 33,8 km/h (5 Bft) 96,67 %
24.05.2016 18:16 10,2 C 93 % 1011,5 hPa 0,0 l/m 16,3 km/h (3 Bft) SW 230 0 min 0,000 mm 0,0 UV-I 30 W/m 9,1 C 4,9 C 30,6 km/h (5 Bft) 100,00 %
24.05.2016 18:17 10,2 C 94 % 1011,5 hPa 0,0 l/m 17,0 km/h (3 Bft) W-SW 240 0 min 0,000 mm 0,0 UV-I 30 W/m 9,3 C 4,6 C 32,2 km/h (5 Bft) 91,67 %
24.05.2016 18:18 10,2 C 94 % 1011,5 hPa 0,0 l/m 27,2 km/h (4 Bft) W-SW 240 0 min 0,000 mm 0,0 UV-I 31 W/m 9,3 C 1,6 C 37,0 km/h (5 Bft) 95,65 %
24.05.2016 18:19 10,2 C 94 % 1011,4 hPa 0,0 l/m 19,5 km/h (3 Bft) SW 229 0 min 0,000 mm 0,0 UV-I 32 W/m 9,3 C 3,7 C 29,0 km/h (5 Bft) 91,67 %
24.05.2016 18:20 10,2 C 94 % 1011,5 hPa 0,0 l/m 18,6 km/h (3 Bft) W-SW 252 0 min 0,000 mm 0,0 UV-I 32 W/m 9,3 C 4,0 C 27,4 km/h (4 Bft) 96,88 %
24.05.2016 18:21 10,2 C 94 % 1011,5 hPa 0,0 l/m 15,8 km/h (3 Bft) SW 219 0 min 0,000 mm 0,0 UV-I 33 W/m 9,3 C 5,1 C 27,4 km/h (4 Bft) 100,00 %
24.05.2016 18:22 10,2 C 94 % 1011,4 hPa 0,0 l/m 26,3 km/h (4 Bft) W-SW 238 0 min 0,000 mm 0,0 UV-I 33 W/m 9,3 C 1,8 C 37,0 km/h (5 Bft) 96,88 %
24.05.2016 18:23 10,2 C 94 % 1011,4 hPa 0,0 l/m 22,0 km/h (4 Bft) W-SW 258 0 min 0,000 mm 0,0 UV-I 33 W/m 9,3 C 2,9 C 33,8 km/h (5 Bft) 100,00 %
24.05.2016 18:24 10,2 C 94 % 1011,4 hPa 0,0 l/m 22,0 km/h (4 Bft) W-SW 239 0 min 0,000 mm 0,0 UV-I 33 W/m 9,3 C 2,9 C 29,0 km/h (5 Bft) 100,00 %
24.05.2016 18:25 10,2 C 94 % 1011,4 hPa 0,0 l/m 18,6 km/h (3 Bft) SW 221 0 min 0,000 mm 0,0 UV-I 35 W/m 9,3 C 4,0 C 29,0 km/h (5 Bft) 100,00 %
24.05.2016 18:26 10,2 C 94 % 1011,5 hPa 0,0 l/m 21,4 km/h (4 Bft) SW 229 0 min 0,000 mm 0,0 UV-I 35 W/m 9,3 C 3,1 C 41,8 km/h (6 Bft) 100,00 %
24.05.2016 18:27 10,2 C 94 % 1011,4 hPa 0,0 l/m 25,4 km/h (4 Bft) S-SW 203 0 min 0,000 mm 0,0 UV-I 38 W/m 9,3 C 2,0 C 38,6 km/h (5 Bft) 100,00 %
24.05.2016 18:28 10,2 C 94 % 1011,4 hPa 0,0 l/m 20,4 km/h (4 Bft) S-SW 207 0 min 0,000 mm 0,0 UV-I 40 W/m 9,3 C 3,4 C 27,4 km/h (4 Bft) 100,00 %
24.05.2016 18:29 10,2 C 94 % 1011,4 hPa 0,0 l/m 19,2 km/h (3 Bft) SW 225 0 min 0,000 mm 0,0 UV-I 40 W/m 9,3 C 3,8 C 27,4 km/h (4 Bft) 100,00 %
24.05.2016 18:30 10,2 C 94 % 1011,5 hPa 0,0 l/m 24,7 km/h (4 Bft) S-SW 198 0 min 0,000 mm 0,0 UV-I 40 W/m 9,3 C 2,2 C 32,2 km/h (5 Bft) 96,55 %
24.05.2016 18:31 10,2 C 94 % 1011,5 hPa 0,0 l/m 17,6 km/h (3 Bft) SW 232 0 min 0,000 mm 0,0 UV-I 40 W/m 9,3 C 4,4 C 22,5 km/h (4 Bft) 100,00 %
24.05.2016 18:32 10,2 C 94 % 1011,5 hPa 0,0 l/m 23,9 km/h (4 Bft) W-SW 240 0 min 0,000 mm 0,0 UV-I 40 W/m 9,3 C 2,4 C 32,2 km/h (5 Bft) 100,00 %
24.05.2016 18:33 10,2 C 94 % 1011,5 hPa 0,0 l/m 22,8 km/h (4 Bft) S-SW 209 0 min 0,000 mm 0,0 UV-I 40 W/m 9,3 C 2,7 C 30,6 km/h (5 Bft) 100,00 %
24.05.2016 18:34 10,2 C 94 % 1011,5 hPa 0,0 l/m 17,9 km/h (3 Bft) S 178 0 min 0,000 mm 0,0 UV-I 40 W/m 9,3 C 4,3 C 24,1 km/h (4 Bft) 100,00 %
24.05.2016 18:35 10,2 C 94 % 1011,5 hPa 0,0 l/m 23,5 km/h (4 Bft) S-SW 210 0 min 0,000 mm 0,0 UV-I 39 W/m 9,3 C 2,5 C 30,6 km/h (5 Bft) 100,00 %
24.05.2016 18:36 10,2 C 94 % 1011,5 hPa 0,0 l/m 19,9 km/h (4 Bft) S-SW 212 0 min 0,000 mm 0,0 UV-I 38 W/m 9,3 C 3,6 C 32,2 km/h (5 Bft) 100,00 %
24.05.2016 18:37 10,2 C 94 % 1011,5 hPa 0,0 l/m 15,2 km/h (3 Bft) SW 227 0 min 0,000 mm 0,0 UV-I 37 W/m 9,3 C 5,3 C 27,4 km/h (4 Bft) 100,00 %
24.05.2016 18:38 10,2 C 94 % 1011,5 hPa 0,0 l/m 20,2 km/h (4 Bft) W-SW 242 0 min 0,000 mm 0,0 UV-I 35 W/m 9,3 C 3,5 C 30,6 km/h (5 Bft) 100,00 %
24.05.2016 18:39 10,2 C 94 % 1011,6 hPa 0,0 l/m 22,4 km/h (4 Bft) SW 221 0 min 0,000 mm 0,0 UV-I 33 W/m 9,3 C 2,8 C 27,4 km/h (4 Bft) 96,15 %
24.05.2016 18:40 10,2 C 94 % 1011,5 hPa 0,0 l/m 20,3 km/h (4 Bft) W-SW 244 0 min 0,000 mm 0,0 UV-I 32 W/m 9,3 C 3,4 C 40,2 km/h (6 Bft) 100,00 %
24.05.2016 18:41 10,2 C 94 % 1011,5 hPa 0,0 l/m 22,4 km/h (4 Bft) W-SW 243 0 min 0,000 mm 0,0 UV-I 31 W/m 9,3 C 2,8 C 32,2 km/h (5 Bft) 100,00 %
24.05.2016 18:42 10,2 C 94 % 1011,5 hPa 0,0 l/m 20,4 km/h (4 Bft) SW 225 0 min 0,000 mm 0,0 UV-I 30 W/m 9,3 C 3,4 C 30,6 km/h (5 Bft) 100,00 %
24.05.2016 18:43 10,2 C 94 % 1011,5 hPa 0,0 l/m 22,4 km/h (4 Bft) W-SW 257 0 min 0,000 mm 0,0 UV-I 30 W/m 9,3 C 2,8 C 32,2 km/h (5 Bft) 93,10 %
24.05.2016 18:44 10,2 C 94 % 1011,5 hPa 0,0 l/m 17,6 km/h (3 Bft) SW 234 0 min 0,000 mm 0,0 UV-I 30 W/m 9,3 C 4,4 C 25,7 km/h (4 Bft) 100,00 %
24.05.2016 18:45 10,2 C 94 % 1011,5 hPa 0,0 l/m 20,2 km/h (4 Bft) W-SW 250 0 min 0,000 mm 0,0 UV-I 32 W/m 9,3 C 3,5 C 27,4 km/h (4 Bft) 100,00 %
24.05.2016 18:46 10,2 C 94 % 1011,6 hPa 0,0 l/m 18,2 km/h (3 Bft) SW 216 0 min 0,000 mm 0,0 UV-I 33 W/m 9,3 C 4,2 C 22,5 km/h (4 Bft) 100,00 %
24.05.2016 18:47 10,2 C 94 % 1011,6 hPa 0,0 l/m 22,1 km/h (4 Bft) W-SW 246 0 min 0,000 mm 0,0 UV-I 34 W/m 9,3 C 2,9 C 30,6 km/h (5 Bft) 100,00 %
24.05.2016 18:48 10,2 C 94 % 1011,5 hPa 0,0 l/m 18,6 km/h (3 Bft) SW 225 0 min 0,000 mm 0,0 UV-I 35 W/m 9,3 C 4,0 C 24,1 km/h (4 Bft) 100,00 %
24.05.2016 18:49 10,2 C 94 % 1011,6 hPa 0,0 l/m 21,5 km/h (4 Bft) S-SW 194 0 min 0,000 mm 0,0 UV-I 33 W/m 9,3 C 3,1 C 30,6 km/h (5 Bft) 96,15 %
24.05.2016 18:50 10,2 C 94 % 1011,6 hPa 0,0 l/m 21,8 km/h (4 Bft) W-SW 253 0 min 0,000 mm 0,0 UV-I 33 W/m 9,3 C 3,0 C 30,6 km/h (5 Bft) 100,00 %
24.05.2016 18:51 10,2 C 94 % 1011,6 hPa 0,0 l/m 21,4 km/h (4 Bft) W-SW 240 0 min 0,000 mm 0,0 UV-I 32 W/m 9,3 C 3,1 C 29,0 km/h (5 Bft) 96,15 %
24.05.2016 18:52 10,2 C 94 % 1011,5 hPa 0,0 l/m 25,8 km/h (4 Bft) W-SW 246 0 min 0,000 mm 0,0 UV-I 27 W/m 9,3 C 1,9 C 37,0 km/h (5 Bft) 100,00 %
24.05.2016 18:53 10,2 C 94 % 1011,5 hPa 0,0 l/m 22,6 km/h (4 Bft) S-SW 208 0 min 0,000 mm 0,0 UV-I 25 W/m 9,3 C 2,8 C 30,6 km/h (5 Bft) 91,67 %
24.05.2016 18:54 10,2 C 94 % 1011,6 hPa 0,0 l/m 25,1 km/h (4 Bft) SW 236 0 min 0,000 mm 0,0 UV-I 25 W/m 9,3 C 2,1 C 30,6 km/h (5 Bft) 100,00 %
24.05.2016 18:55 10,2 C 94 % 1011,5 hPa 0,0 l/m 23,3 km/h (4 Bft) SW 232 0 min 0,000 mm 0,0 UV-I 23 W/m 9,3 C 2,6 C 33,8 km/h (5 Bft) 86,67 %
24.05.2016 18:56 10,2 C 94 % 1011,5 hPa 0,0 l/m 27,2 km/h (4 Bft) W-SW 248 0 min 0,000 mm 0,0 UV-I 23 W/m 9,3 C 1,6 C 37,0 km/h (5 Bft) 100,00 %
24.05.2016 18:57 10,2 C 94 % 1011,6 hPa 0,0 l/m 19,1 km/h (3 Bft) W-SW 237 0 min 0,000 mm 0,0 UV-I 23 W/m 9,3 C 3,8 C 25,7 km/h (4 Bft) 96,30 %
24.05.2016 18:58 10,2 C 94 % 1011,6 hPa 0,0 l/m 23,4 km/h (4 Bft) SW 224 0 min 0,000 mm 0,0 UV-I 23 W/m 9,3 C 2,5 C 30,6 km/h (5 Bft) 100,00 %
24.05.2016 18:59 10,2 C 94 % 1011,5 hPa 0,0 l/m 19,4 km/h (3 Bft) W-SW 255 0 min 0,000 mm 0,0 UV-I 23 W/m 9,3 C 3,7 C 25,7 km/h (4 Bft) 100,00 %
24.05.2016 19:00 10,2 C 94 % 1011,6 hPa 0,0 l/m 14,4 km/h (3 Bft) W-SW 256 0 min 0,000 mm 0,0 UV-I 21 W/m 9,3 C 5,6 C 22,5 km/h (4 Bft) 100,00 %
24.05.2016 19:02 10,2 C 94 % 1011,6 hPa 0,0 l/m 21,0 km/h (4 Bft) SW 227 0 min 0,026 mm 0,0 UV-I 20 W/m 9,3 C 3,2 C 30,6 km/h (5 Bft) 97,37 %
24.05.2016 19:03 10,2 C 94 % 1011,6 hPa 0,0 l/m 22,1 km/h (4 Bft) SW 231 0 min 0,000 mm 0,0 UV-I 18 W/m 9,3 C 2,9 C 29,0 km/h (5 Bft) 100,00 %
24.05.2016 19:04 10,2 C 94 % 1011,6 hPa 0,0 l/m 21,3 km/h (4 Bft) W-SW 248 0 min 0,000 mm 0,0 UV-I 17 W/m 9,3 C 3,1 C 27,4 km/h (4 Bft) 100,00 %
24.05.2016 19:05 10,2 C 94 % 1011,6 hPa 0,0 l/m 15,8 km/h (3 Bft) SW 233 0 min 0,000 mm 0,0 UV-I 16 W/m 9,3 C 5,1 C 22,5 km/h (4 Bft) 100,00 %
24.05.2016 19:06 10,2 C 94 % 1011,6 hPa 0,0 l/m 19,7 km/h (3 Bft) S-SW 206 0 min 0,000 mm 0,0 UV-I 16 W/m 9,3 C 3,6 C 32,2 km/h (5 Bft) 96,15 %
24.05.2016 19:07 10,2 C 94 % 1011,6 hPa 0,0 l/m 18,8 km/h (3 Bft) SW 234 0 min 0,000 mm 0,0 UV-I 16 W/m 9,3 C 3,9 C 22,5 km/h (4 Bft) 100,00 %
24.05.2016 19:08 10,2 C 94 % 1011,6 hPa 0,0 l/m 22,5 km/h (4 Bft) W-SW 238 0 min 0,000 mm 0,0 UV-I 16 W/m 9,3 C 2,8 C 32,2 km/h (5 Bft) 100,00 %
24.05.2016 19:09 10,2 C 94 % 1011,6 hPa 0,0 l/m 23,4 km/h (4 Bft) W-SW 249 0 min 0,000 mm 0,0 UV-I 16 W/m 9,3 C 2,5 C 30,6 km/h (5 Bft) 100,00 %
24.05.2016 19:10 10,2 C 94 % 1011,6 hPa 0,0 l/m 15,4 km/h (3 Bft) SW 226 0 min 0,000 mm 0,0 UV-I 16 W/m 9,3 C 5,2 C 22,5 km/h (4 Bft) 100,00 %
24.05.2016 19:11 10,2 C 94 % 1011,6 hPa 0,0 l/m 12,8 km/h (3 Bft) W-SW 251 0 min 0,000 mm 0,0 UV-I 16 W/m 9,3 C 6,4 C 19,3 km/h (3 Bft) 100,00 %
24.05.2016 19:12 10,2 C 94 % 1011,6 hPa 0,0 l/m 25,0 km/h (4 Bft) SW 236 0 min 0,000 mm 0,0 UV-I 16 W/m 9,3 C 2,1 C 33,8 km/h (5 Bft) 96,15 %
24.05.2016 19:13 10,1 C 94 % 1011,6 hPa 0,0 l/m 24,0 km/h (4 Bft) W-SW 244 0 min 0,000 mm 0,0 UV-I 16 W/m 9,2 C 2,2 C 30,6 km/h (5 Bft) 100,00 %
24.05.2016 19:14 10,2 C 94 % 1011,6 hPa 0,0 l/m 19,5 km/h (3 Bft) W-SW 239 0 min 0,000 mm 0,0 UV-I 16 W/m 9,3 C 3,7 C 25,7 km/h (4 Bft) 100,00 %
24.05.2016 19:15 10,1 C 94 % 1011,6 hPa 0,0 l/m 20,8 km/h (4 Bft) SW 234 0 min 0,000 mm 0,0 UV-I 18 W/m 9,2 C 3,2 C 27,4 km/h (4 Bft) 96,55 %
24.05.2016 19:16 10,1 C 94 % 1011,6 hPa 0,0 l/m 23,9 km/h (4 Bft) SW 225 0 min 0,000 mm 0,0 UV-I 18 W/m 9,2 C 2,3 C 37,0 km/h (5 Bft) 100,00 %
24.05.2016 19:17 10,1 C 94 % 1011,6 hPa 0,0 l/m 22,3 km/h (4 Bft) SW 234 0 min 0,000 mm 0,0 UV-I 17 W/m 9,2 C 2,7 C 33,8 km/h (5 Bft) 100,00 %
24.05.2016 19:18 10,1 C 94 % 1011,6 hPa 0,0 l/m 20,6 km/h (4 Bft) W-SW 243 0 min 0,000 mm 0,0 UV-I 18 W/m 9,2 C 3,2 C 30,6 km/h (5 Bft) 100,00 %
24.05.2016 19:19 10,1 C 94 % 1011,5 hPa 0,0 l/m 26,8 km/h (4 Bft) SW 236 0 min 0,000 mm 0,0 UV-I 18 W/m 9,2 C 1,5 C 37,0 km/h (5 Bft) 100,00 %
24.05.2016 19:20 10,1 C 94 % 1011,6 hPa 0,0 l/m 24,0 km/h (4 Bft) SW 225 0 min 0,000 mm 0,0 UV-I 16 W/m 9,2 C 2,2 C 29,0 km/h (5 Bft) 100,00 %
24.05.2016 19:21 10,1 C 94 % 1011,6 hPa 0,0 l/m 19,1 km/h (3 Bft) W-SW 254 0 min 0,000 mm 0,0 UV-I 16 W/m 9,2 C 3,7 C 29,0 km/h (5 Bft) 100,00 %
24.05.2016 19:22 10,1 C 94 % 1011,6 hPa 0,2 l/m 23,0 km/h (4 Bft) SW 234 0 min 0,000 mm 0,0 UV-I 15 W/m 9,2 C 2,5 C 33,8 km/h (5 Bft) 100,00 %
24.05.2016 19:23 10,1 C 94 % 1011,7 hPa 0,0 l/m 17,8 km/h (3 Bft) W-SW 239 0 min 0,000 mm 0,0 UV-I 14 W/m 9,2 C 4,2 C 27,4 km/h (4 Bft) 95,65 %
24.05.2016 19:24 10,1 C 94 % 1011,7 hPa 0,0 l/m 25,8 km/h (4 Bft) SW 231 0 min 0,000 mm 0,0 UV-I 14 W/m 9,2 C 1,8 C 30,6 km/h (5 Bft) 98,52 %
24.05.2016 19:25 10,1 C 94 % 1011,7 hPa 0,0 l/m 21,3 km/h (4 Bft) W-SW 254 0 min 0,000 mm 0,0 UV-I 14 W/m 9,2 C 3,0 C 35,4 km/h (5 Bft) 100,00 %
24.05.2016 19:26 10,1 C 94 % 1011,7 hPa 0,0 l/m 18,2 km/h (3 Bft) W-SW 238 0 min 0,000 mm 0,0 UV-I 12 W/m 9,2 C 4,0 C 27,4 km/h (4 Bft) 92,59 %
24.05.2016 19:27 10,1 C 94 % 1011,7 hPa 0,0 l/m 21,0 km/h (4 Bft) SW 225 0 min 0,000 mm 0,0 UV-I 12 W/m 9,2 C 3,1 C 30,6 km/h (5 Bft) 100,00 %
24.05.2016 19:28 10,1 C 94 % 1011,7 hPa 0,0 l/m 19,5 km/h (3 Bft) W-SW 242 0 min 0,000 mm 0,0 UV-I 12 W/m 9,2 C 3,6 C 27,4 km/h (4 Bft) 100,00 %
24.05.2016 19:29 10,1 C 94 % 1011,7 hPa 0,0 l/m 14,1 km/h (3 Bft) SW 227 0 min 0,000 mm 0,0 UV-I 14 W/m 9,2 C 5,6 C 20,9 km/h (4 Bft) 100,00 %
24.05.2016 19:30 10,1 C 94 % 1011,8 hPa 0,0 l/m 20,3 km/h (4 Bft) W-SW 250 0 min 0,000 mm 0,0 UV-I 14 W/m 9,2 C 3,3 C 33,8 km/h (5 Bft) 100,00 %
24.05.2016 19:31 10,1 C 94 % 1011,8 hPa 0,0 l/m 15,4 km/h (3 Bft) SW 228 0 min 0,000 mm 0,0 UV-I 14 W/m 9,2 C 5,1 C 27,4 km/h (4 Bft) 91,67 %
24.05.2016 19:32 10,1 C 94 % 1011,8 hPa 0,0 l/m 17,8 km/h (3 Bft) W-SW 239 0 min 0,000 mm 0,0 UV-I 16 W/m 9,2 C 4,2 C 25,7 km/h (4 Bft) 100,00 %
24.05.2016 19:33 10,1 C 94 % 1011,8 hPa 0,0 l/m 16,7 km/h (3 Bft) W-SW 249 0 min 0,000 mm 0,0 UV-I 16 W/m 9,2 C 4,6 C 20,9 km/h (4 Bft) 100,00 %
24.05.2016 19:34 10,1 C 94 % 1011,8 hPa 0,0 l/m 21,0 km/h (4 Bft) SW 227 0 min 0,000 mm 0,0 UV-I 16 W/m 9,2 C 3,1 C 37,0 km/h (5 Bft) 100,00 %
24.05.2016 19:35 10,1 C 94 % 1011,7 hPa 0,0 l/m 24,9 km/h (4 Bft) W-SW 242 0 min 0,000 mm 0,0 UV-I 16 W/m 9,2 C 2,0 C 32,2 km/h (5 Bft) 100,00 %
24.05.2016 19:36 10,1 C 94 % 1011,8 hPa 0,0 l/m 19,3 km/h (3 Bft) W-SW 245 0 min 0,000 mm 0,0 UV-I 16 W/m 9,2 C 3,6 C 30,6 km/h (5 Bft) 100,00 %
24.05.2016 19:37 10,1 C 94 % 1011,8 hPa 0,0 l/m 17,9 km/h (3 Bft) SW 217 0 min 0,000 mm 0,0 UV-I 16 W/m 9,2 C 4,1 C 25,7 km/h (4 Bft) 100,00 %
24.05.2016 19:38 10,1 C 94 % 1011,9 hPa 0,0 l/m 20,1 km/h (4 Bft) W-SW 237 0 min 0,000 mm 0,0 UV-I 15 W/m 9,2 C 3,4 C 25,7 km/h (4 Bft) 95,65 %
24.05.2016 19:39 10,1 C 94 % 1011,9 hPa 0,0 l/m 19,1 km/h (3 Bft) W-SW 252 0 min 0,000 mm 0,0 UV-I 14 W/m 9,2 C 3,7 C 27,4 km/h (4 Bft) 100,00 %
24.05.2016 19:40 10,1 C 94 % 1011,8 hPa 0,0 l/m 18,7 km/h (3 Bft) SW 227 0 min 0,000 mm 0,0 UV-I 12 W/m 9,2 C 3,9 C 24,1 km/h (4 Bft) 100,00 %
24.05.2016 19:41 10,1 C 94 % 1011,9 hPa 0,0 l/m 13,3 km/h (3 Bft) W-SW 240 0 min 0,000 mm 0,0 UV-I 12 W/m 9,2 C 6,0 C 16,1 km/h (3 Bft) 100,00 %
24.05.2016 19:42 10,1 C 94 % 1011,9 hPa 0,0 l/m 20,9 km/h (4 Bft) SW 223 0 min 0,000 mm 0,0 UV-I 11 W/m 9,2 C 3,1 C 27,4 km/h (4 Bft) 100,00 %
24.05.2016 19:43 10,1 C 94 % 1011,8 hPa 0,0 l/m 19,9 km/h (4 Bft) W 265 0 min 0,000 mm 0,0 UV-I 11 W/m 9,2 C 3,4 C 27,4 km/h (4 Bft) 100,00 %
24.05.2016 19:44 10,1 C 94 % 1011,9 hPa 0,0 l/m 15,6 km/h (3 Bft) SW 236 0 min 0,000 mm 0,0 UV-I 10 W/m 9,2 C 5,0 C 25,7 km/h (4 Bft) 100,00 %
24.05.2016 19:45 10,1 C 94 % 1011,9 hPa 0,0 l/m 17,0 km/h (3 Bft) W-SW 243 0 min 0,000 mm 0,0 UV-I 9 W/m 9,2 C 4,5 C 25,7 km/h (4 Bft) 100,00 %
24.05.2016 19:46 10,1 C 94 % 1011,9 hPa 0,0 l/m 17,0 km/h (3 Bft) SW 217 0 min 0,000 mm 0,0 UV-I 9 W/m 9,2 C 4,5 C 25,7 km/h (4 Bft) 96,15 %
24.05.2016 19:47 10,1 C 94 % 1011,9 hPa 0,0 l/m 21,5 km/h (4 Bft) W-SW 242 0 min 0,000 mm 0,0 UV-I 9 W/m 9,2 C 2,9 C 29,0 km/h (5 Bft) 100,00 %
24.05.2016 19:48 10,1 C 94 % 1011,9 hPa 0,0 l/m 20,6 km/h (4 Bft) W-SW 239 0 min 0,000 mm 0,0 UV-I 11 W/m 9,2 C 3,2 C 32,2 km/h (5 Bft) 100,00 %
24.05.2016 19:49 10,1 C 94 % 1012,0 hPa 0,0 l/m 20,4 km/h (4 Bft) W-SW 242 0 min 0,000 mm 0,0 UV-I 11 W/m 9,2 C 3,3 C 27,4 km/h (4 Bft) 100,00 %
24.05.2016 19:50 10,1 C 94 % 1012,0 hPa 0,0 l/m 15,8 km/h (3 Bft) W-SW 248 0 min 0,000 mm 0,0 UV-I 11 W/m 9,2 C 4,9 C 25,7 km/h (4 Bft) 100,00 %
24.05.2016 19:51 10,1 C 94 % 1012,0 hPa 0,0 l/m 19,5 km/h (3 Bft) S-SW 207 0 min 0,000 mm 0,0 UV-I 11 W/m 9,2 C 3,6 C 25,7 km/h (4 Bft) 100,00 %
24.05.2016 19:52 10,1 C 94 % 1011,9 hPa 0,0 l/m 19,3 km/h (3 Bft) W-SW 238 0 min 0,000 mm 0,0 UV-I 10 W/m 9,2 C 3,6 C 30,6 km/h (5 Bft) 100,00 %
24.05.2016 19:53 10,1 C 94 % 1012,0 hPa 0,0 l/m 16,9 km/h (3 Bft) SW 223 0 min 0,000 mm 0,0 UV-I 9 W/m 9,2 C 4,5 C 22,5 km/h (4 Bft) 100,00 %
24.05.2016 19:54 10,1 C 94 % 1012,0 hPa 0,0 l/m 12,2 km/h (2 Bft) W 263 0 min 0,000 mm 0,0 UV-I 9 W/m 9,2 C 6,5 C 17,7 km/h (3 Bft) 100,00 %
24.05.2016 19:55 10,1 C 94 % 1012,0 hPa 0,0 l/m 15,5 km/h (3 Bft) W-SW 246 0 min 0,000 mm 0,0 UV-I 9 W/m 9,2 C 5,0 C 24,1 km/h (4 Bft) 96,15 %
24.05.2016 19:56 10,1 C 94 % 1012,0 hPa 0,0 l/m 17,4 km/h (3 Bft) SW 220 0 min 0,000 mm 0,0 UV-I 9 W/m 9,2 C 4,3 C 24,1 km/h (4 Bft) 100,00 %
24.05.2016 19:57 10,1 C 94 % 1012,0 hPa 0,0 l/m 22,6 km/h (4 Bft) SW 232 0 min 0,000 mm 0,0 UV-I 9 W/m 9,2 C 2,6 C 32,2 km/h (5 Bft) 96,15 %
24.05.2016 19:58 10,1 C 94 % 1012,0 hPa 0,0 l/m 18,3 km/h (3 Bft) S 190 0 min 0,000 mm 0,0 UV-I 8 W/m 9,2 C 4,0 C 24,1 km/h (4 Bft) 100,00 %
24.05.2016 19:59 10,1 C 94 % 1012,1 hPa 0,0 l/m 19,4 km/h (3 Bft) SW 219 0 min 0,000 mm 0,0 UV-I 7 W/m 9,2 C 3,6 C 32,2 km/h (5 Bft) 100,00 %
24.05.2016 20:00 10,1 C 94 % 1012,1 hPa 0,0 l/m 22,6 km/h (4 Bft) W-SW 244 0 min 0,000 mm 0,0 UV-I 7 W/m 9,2 C 2,6 C 32,2 km/h (5 Bft) 96,67 %
24.05.2016 20:02 10,1 C 94 % 1012,1 hPa 0,0 l/m 17,7 km/h (3 Bft) SW 225 0 min 0,025 mm 0,0 UV-I 6 W/m 9,2 C 4,2 C 29,0 km/h (5 Bft) 96,23 %
24.05.2016 20:03 10,1 C 94 % 1012,1 hPa 0,0 l/m 20,3 km/h (4 Bft) W-SW 246 0 min 0,000 mm 0,0 UV-I 5 W/m 9,2 C 3,3 C 29,0 km/h (5 Bft) 92,86 %
24.05.2016 20:04 10,1 C 94 % 1012,1 hPa 0,0 l/m 21,4 km/h (4 Bft) W-SW 242 0 min 0,000 mm 0,0 UV-I 5 W/m 9,2 C 3,0 C 27,4 km/h (4 Bft) 100,00 %
24.05.2016 20:05 10,1 C 94 % 1012,1 hPa 0,0 l/m 16,5 km/h (3 Bft) SW 224 0 min 0,000 mm 0,0 UV-I 5 W/m 9,2 C 4,7 C 25,7 km/h (4 Bft) 96,55 %
24.05.2016 20:06 10,1 C 94 % 1012,1 hPa 0,0 l/m 15,8 km/h (3 Bft) SW 236 0 min 0,000 mm 0,0 UV-I 5 W/m 9,2 C 4,9 C 20,9 km/h (4 Bft) 100,00 %
24.05.2016 20:07 10,1 C 94 % 1012,1 hPa 0,0 l/m 17,3 km/h (3 Bft) SW 217 0 min 0,000 mm 0,0 UV-I 5 W/m 9,2 C 4,4 C 30,6 km/h (5 Bft) 96,15 %
24.05.2016 20:08 10,1 C 94 % 1012,1 hPa 0,0 l/m 20,4 km/h (4 Bft) SW 224 0 min 0,000 mm 0,0 UV-I 5 W/m 9,2 C 3,3 C 30,6 km/h (5 Bft) 95,83 %
24.05.2016 20:09 10,1 C 94 % 1012,2 hPa 0,0 l/m 16,7 km/h (3 Bft) SW 223 0 min 0,000 mm 0,0 UV-I 5 W/m 9,2 C 4,6 C 22,5 km/h (4 Bft) 100,00 %
24.05.2016 20:10 10,1 C 94 % 1012,2 hPa 0,0 l/m 20,5 km/h (4 Bft) SW 219 0 min 0,000 mm 0,0 UV-I 5 W/m 9,2 C 3,3 C 29,0 km/h (5 Bft) 93,33 %
24.05.2016 20:11 10,1 C 94 % 1012,2 hPa 0,0 l/m 18,6 km/h (3 Bft) SW 221 0 min 0,000 mm 0,0 UV-I 5 W/m 9,2 C 3,9 C 24,1 km/h (4 Bft) 100,00 %
24.05.2016 20:12 10,1 C 94 % 1012,2 hPa 0,0 l/m 22,4 km/h (4 Bft) SW 229 0 min 0,000 mm 0,0 UV-I 0 W/m 9,2 C 2,7 C 27,4 km/h (4 Bft) 96,55 %
24.05.2016 20:13 10,1 C 94 % 1012,3 hPa 0,0 l/m 18,3 km/h (3 Bft) SW 215 0 min 0,000 mm 0,0 UV-I 0 W/m 9,2 C 4,0 C 29,0 km/h (5 Bft) 100,00 %
24.05.2016 20:14 10,2 C 94 % 1012,2 hPa 0,0 l/m 15,8 km/h (3 Bft) W 264 0 min 0,000 mm 0,0 UV-I 0 W/m 9,3 C 5,1 C 24,1 km/h (4 Bft) 91,30 %
24.05.2016 20:15 10,1 C 94 % 1012,3 hPa 0,0 l/m 16,6 km/h (3 Bft) SW 218 0 min 0,000 mm 0,0 UV-I 0 W/m 9,2 C 4,6 C 22,5 km/h (4 Bft) 95,83 %
24.05.2016 20:16 10,2 C 94 % 1012,3 hPa 0,0 l/m 12,6 km/h (3 Bft) S-SW 213 0 min 0,000 mm 0,0 UV-I 0 W/m 9,3 C 6,5 C 16,1 km/h (3 Bft) 96,55 %
24.05.2016 20:17 10,1 C 94 % 1012,3 hPa 0,0 l/m 20,9 km/h (4 Bft) W-SW 240 0 min 0,000 mm 0,0 UV-I 0 W/m 9,2 C 3,1 C 30,6 km/h (5 Bft) 91,67 %
24.05.2016 20:18 10,2 C 94 % 1012,3 hPa 0,0 l/m 21,7 km/h (4 Bft) W-SW 252 0 min 0,000 mm 0,0 UV-I 0 W/m 9,3 C 3,0 C 30,6 km/h (5 Bft) 100,00 %
24.05.2016 20:19 10,2 C 94 % 1012,3 hPa 0,0 l/m 17,1 km/h (3 Bft) SW 221 0 min 0,000 mm 0,0 UV-I 0 W/m 9,3 C 4,5 C 27,4 km/h (4 Bft) 95,83 %
24.05.2016 20:20 10,2 C 94 % 1012,4 hPa 0,0 l/m 15,6 km/h (3 Bft) SW 230 0 min 0,000 mm 0,0 UV-I 0 W/m 9,3 C 5,1 C 25,7 km/h (4 Bft) 95,65 %
24.05.2016 20:21 10,2 C 94 % 1012,4 hPa 0,0 l/m 19,7 km/h (3 Bft) SW 235 0 min 0,000 mm 0,0 UV-I 0 W/m 9,3 C 3,6 C 33,8 km/h (5 Bft) 91,67 %
24.05.2016 20:22 10,2 C 94 % 1012,3 hPa 0,0 l/m 17,5 km/h (3 Bft) SW 223 0 min 0,000 mm 0,0 UV-I 0 W/m 9,3 C 4,4 C 22,5 km/h (4 Bft) 100,00 %
24.05.2016 20:23 10,2 C 94 % 1012,4 hPa 0,0 l/m 20,9 km/h (4 Bft) W-SW 244 0 min 0,000 mm 0,0 UV-I 0 W/m 9,3 C 3,3 C 27,4 km/h (4 Bft) 95,12 %
24.05.2016 20:24 10,2 C 94 % 1012,4 hPa 0,0 l/m 15,8 km/h (3 Bft) W-SW 248 0 min 0,000 mm 0,0 UV-I 0 W/m 9,3 C 5,1 C 27,4 km/h (4 Bft) 95,65 %
24.05.2016 20:25 10,2 C 94 % 1012,4 hPa 0,0 l/m 16,0 km/h (3 Bft) SW 224 0 min 0,000 mm 0,0 UV-I 0 W/m 9,3 C 5,0 C 20,9 km/h (4 Bft) 100,00 %
24.05.2016 20:26 10,2 C 94 % 1012,4 hPa 0,0 l/m 15,9 km/h (3 Bft) S-SW 205 0 min 0,000 mm 0,0 UV-I 0 W/m 9,3 C 5,0 C 22,5 km/h (4 Bft) 92,86 %
24.05.2016 20:27 10,2 C 94 % 1012,4 hPa 0,0 l/m 11,5 km/h (2 Bft) SW 229 0 min 0,000 mm 0,0 UV-I 0 W/m 9,3 C 7,0 C 16,1 km/h (3 Bft) 100,00 %
24.05.2016 20:28 10,2 C 94 % 1012,4 hPa 0,0 l/m 15,6 km/h (3 Bft) SW 236 0 min 0,000 mm 0,0 UV-I 0 W/m 9,3 C 5,1 C 25,7 km/h (4 Bft) 96,15 %
24.05.2016 20:29 10,2 C 94 % 1012,4 hPa 0,0 l/m 17,7 km/h (3 Bft) SW 235 0 min 0,000 mm 0,0 UV-I 0 W/m 9,3 C 4,3 C 25,7 km/h (4 Bft) 100,00 %
24.05.2016 20:30 10,2 C 94 % 1012,5 hPa 0,0 l/m 18,0 km/h (3 Bft) W-SW 252 0 min 0,000 mm 0,0 UV-I 0 W/m 9,3 C 4,2 C 27,4 km/h (4 Bft) 100,00 %
24.05.2016 20:31 10,2 C 94 % 1012,4 hPa 0,0 l/m 18,6 km/h (3 Bft) W-SW 240 0 min 0,000 mm 0,0 UV-I 0 W/m 9,3 C 4,0 C 29,0 km/h (5 Bft) 96,15 %
24.05.2016 20:32 10,2 C 94 % 1012,4 hPa 0,0 l/m 21,5 km/h (4 Bft) SW 229 0 min 0,000 mm 0,0 UV-I 0 W/m 9,3 C 3,1 C 27,4 km/h (4 Bft) 100,00 %
24.05.2016 20:33 10,2 C 94 % 1012,4 hPa 0,0 l/m 17,6 km/h (3 Bft) W-SW 238 0 min 0,000 mm 0,0 UV-I 0 W/m 9,3 C 4,4 C 29,0 km/h (5 Bft) 95,65 %
24.05.2016 20:34 10,2 C 94 % 1012,4 hPa 0,0 l/m 19,0 km/h (3 Bft) SW 214 0 min 0,000 mm 0,0 UV-I 0 W/m 9,3 C 3,9 C 25,7 km/h (4 Bft) 100,00 %
24.05.2016 20:35 10,2 C 94 % 1012,4 hPa 0,0 l/m 19,0 km/h (3 Bft) S-SW 212 0 min 0,000 mm 0,0 UV-I 0 W/m 9,3 C 3,9 C 24,1 km/h (4 Bft) 96,15 %
24.05.2016 20:36 10,2 C 94 % 1012,4 hPa 0,0 l/m 17,2 km/h (3 Bft) W-SW 238 0 min 0,000 mm 0,0 UV-I 0 W/m 9,3 C 4,5 C 27,4 km/h (4 Bft) 100,00 %
24.05.2016 20:37 10,2 C 94 % 1012,4 hPa 0,0 l/m 14,4 km/h (3 Bft) SW 236 0 min 0,000 mm 0,0 UV-I 0 W/m 9,3 C 5,6 C 22,5 km/h (4 Bft) 100,00 %
24.05.2016 20:38 10,2 C 94 % 1012,4 hPa 0,0 l/m 16,6 km/h (3 Bft) SW 233 0 min 0,000 mm 0,0 UV-I 0 W/m 9,3 C 4,7 C 27,4 km/h (4 Bft) 100,00 %
24.05.2016 20:39 10,2 C 94 % 1012,4 hPa 0,0 l/m 16,8 km/h (3 Bft) SW 229 0 min 0,000 mm 0,0 UV-I 0 W/m 9,3 C 4,7 C 24,1 km/h (4 Bft) 96,15 %
24.05.2016 20:40 10,2 C 94 % 1012,4 hPa 0,0 l/m 17,2 km/h (3 Bft) SW 234 0 min 0,000 mm 0,0 UV-I 0 W/m 9,3 C 4,5 C 24,1 km/h (4 Bft) 100,00 %
24.05.2016 20:41 10,2 C 94 % 1012,4 hPa 0,0 l/m 16,5 km/h (3 Bft) W-SW 240 0 min 0,000 mm 0,0 UV-I 0 W/m 9,3 C 4,8 C 25,7 km/h (4 Bft) 100,00 %
24.05.2016 20:42 10,2 C 94 % 1012,4 hPa 0,0 l/m 19,2 km/h (3 Bft) W-SW 252 0 min 0,000 mm 0,0 UV-I 0 W/m 9,3 C 3,8 C 27,4 km/h (4 Bft) 100,00 %
24.05.2016 20:43 10,2 C 94 % 1012,4 hPa 0,0 l/m 20,5 km/h (4 Bft) W-SW 258 0 min 0,000 mm 0,0 UV-I 0 W/m 9,3 C 3,4 C 32,2 km/h (5 Bft) 100,00 %
24.05.2016 20:44 10,2 C 94 % 1012,4 hPa 0,0 l/m 14,5 km/h (3 Bft) SW 232 0 min 0,000 mm 0,0 UV-I 0 W/m 9,3 C 5,6 C 24,1 km/h (4 Bft) 100,00 %
24.05.2016 20:45 10,2 C 94 % 1012,5 hPa 0,0 l/m 14,9 km/h (3 Bft) SW 219 0 min 0,000 mm 0,0 UV-I 0 W/m 9,3 C 5,4 C 24,1 km/h (4 Bft) 100,00 %
24.05.2016 20:46 10,2 C 94 % 1012,5 hPa 0,0 l/m 16,6 km/h (3 Bft) SW 218 0 min 0,000 mm 0,0 UV-I 0 W/m 9,3 C 4,7 C 20,9 km/h (4 Bft) 100,00 %
24.05.2016 20:47 10,2 C 94 % 1012,5 hPa 0,0 l/m 17,9 km/h (3 Bft) SW 218 0 min 0,000 mm 0,0 UV-I 0 W/m 9,3 C 4,3 C 22,5 km/h (4 Bft) 100,00 %
24.05.2016 20:48 10,2 C 94 % 1012,5 hPa 0,0 l/m 17,9 km/h (3 Bft) W-SW 249 0 min 0,000 mm 0,0 UV-I 0 W/m 9,3 C 4,3 C 24,1 km/h (4 Bft) 91,30 %
24.05.2016 20:49 10,2 C 94 % 1012,6 hPa 0,0 l/m 17,4 km/h (3 Bft) W 264 0 min 0,000 mm 0,0 UV-I 0 W/m 9,3 C 4,4 C 22,5 km/h (4 Bft) 100,00 %
24.05.2016 20:50 10,2 C 94 % 1012,6 hPa 0,0 l/m 14,7 km/h (3 Bft) W-SW 244 0 min 0,000 mm 0,0 UV-I 0 W/m 9,3 C 5,5 C 19,3 km/h (3 Bft) 96,15 %
24.05.2016 20:51 10,2 C 94 % 1012,6 hPa 0,0 l/m 20,1 km/h (4 Bft) W-SW 241 0 min 0,000 mm 0,0 UV-I 0 W/m 9,3 C 3,5 C 29,0 km/h (5 Bft) 100,00 %
24.05.2016 20:52 10,2 C 94 % 1012,6 hPa 0,0 l/m 19,6 km/h (3 Bft) S-SW 207 0 min 0,000 mm 0,0 UV-I 0 W/m 9,3 C 3,7 C 27,4 km/h (4 Bft) 100,00 %
24.05.2016 20:53 10,2 C 94 % 1012,6 hPa 0,0 l/m 15,9 km/h (3 Bft) S 186 0 min 0,000 mm 0,0 UV-I 0 W/m 9,3 C 5,0 C 20,9 km/h (4 Bft) 100,00 %
24.05.2016 20:54 10,2 C 94 % 1012,6 hPa 0,0 l/m 17,1 km/h (3 Bft) S-SW 211 0 min 0,000 mm 0,0 UV-I 0 W/m 9,3 C 4,5 C 25,7 km/h (4 Bft) 100,00 %
24.05.2016 20:55 10,2 C 94 % 1012,6 hPa 0,0 l/m 17,3 km/h (3 Bft) SW 218 0 min 0,000 mm 0,0 UV-I 0 W/m 9,3 C 4,5 C 22,5 km/h (4 Bft) 98,50 %
24.05.2016 20:56 10,2 C 94 % 1012,7 hPa 0,0 l/m 19,9 km/h (4 Bft) S-SW 195 0 min 0,000 mm 0,0 UV-I 0 W/m 9,3 C 3,6 C 25,7 km/h (4 Bft) 100,00 %
24.05.2016 20:57 10,2 C 94 % 1012,6 hPa 0,0 l/m 17,2 km/h (3 Bft) S-SW 208 0 min 0,000 mm 0,0 UV-I 0 W/m 9,3 C 4,5 C 25,7 km/h (4 Bft) 100,00 %
24.05.2016 20:58 10,2 C 94 % 1012,6 hPa 0,0 l/m 20,0 km/h (4 Bft) S-SW 204 0 min 0,000 mm 0,0 UV-I 0 W/m 9,3 C 3,5 C 27,4 km/h (4 Bft) 100,00 %
24.05.2016 20:59 10,2 C 93 % 1012,6 hPa 0,0 l/m 20,6 km/h (4 Bft) W-SW 249 0 min 0,000 mm 0,0 UV-I 0 W/m 9,1 C 3,4 C 30,6 km/h (5 Bft) 100,00 %
24.05.2016 21:00 10,2 C 93 % 1012,6 hPa 0,0 l/m 17,2 km/h (3 Bft) W-SW 240 0 min 0,000 mm 0,0 UV-I 0 W/m 9,1 C 4,5 C 20,9 km/h (4 Bft) 95,65 %
24.05.2016 21:02 10,2 C 93 % 1012,6 hPa 0,0 l/m 20,9 km/h (4 Bft) W-SW 239 0 min 0,026 mm 0,0 UV-I 0 W/m 9,1 C 3,3 C 30,6 km/h (5 Bft) 100,00 %
24.05.2016 21:03 10,2 C 93 % 1012,7 hPa 0,0 l/m 22,1 km/h (4 Bft) SW 229 0 min 0,000 mm 0,0 UV-I 0 W/m 9,1 C 2,9 C 30,6 km/h (5 Bft) 100,00 %
24.05.2016 21:04 10,2 C 93 % 1012,6 hPa 0,0 l/m 18,7 km/h (3 Bft) W-SW 250 0 min 0,000 mm 0,0 UV-I 0 W/m 9,1 C 4,0 C 30,6 km/h (5 Bft) 100,00 %
24.05.2016 21:05 10,2 C 93 % 1012,7 hPa 0,0 l/m 18,6 km/h (3 Bft) SW 221 0 min 0,000 mm 0,0 UV-I 0 W/m 9,1 C 4,0 C 24,1 km/h (4 Bft) 100,00 %
24.05.2016 21:06 10,2 C 93 % 1012,7 hPa 0,0 l/m 19,0 km/h (3 Bft) W-SW 250 0 min 0,000 mm 0,0 UV-I 0 W/m 9,1 C 3,9 C 29,0 km/h (5 Bft) 95,83 %
24.05.2016 21:07 10,2 C 93 % 1012,7 hPa 0,0 l/m 20,7 km/h (4 Bft) SW 236 0 min 0,000 mm 0,0 UV-I 0 W/m 9,1 C 3,3 C 27,4 km/h (4 Bft) 100,00 %
24.05.2016 21:08 10,3 C 93 % 1012,7 hPa 0,0 l/m 18,8 km/h (3 Bft) SW 236 0 min 0,000 mm 0,0 UV-I 0 W/m 9,2 C 4,1 C 27,4 km/h (4 Bft) 100,00 %
24.05.2016 21:09 10,3 C 93 % 1012,8 hPa 0,0 l/m 14,4 km/h (3 Bft) W-SW 238 0 min 0,000 mm 0,0 UV-I 0 W/m 9,2 C 5,8 C 27,4 km/h (4 Bft) 100,00 %
24.05.2016 21:10 10,3 C 93 % 1012,8 hPa 0,0 l/m 17,4 km/h (3 Bft) W-SW 245 0 min 0,000 mm 0,0 UV-I 0 W/m 9,2 C 4,6 C 25,7 km/h (4 Bft) 100,00 %
24.05.2016 21:11 10,2 C 93 % 1012,8 hPa 0,0 l/m 16,9 km/h (3 Bft) SW 226 0 min 0,000 mm 0,0 UV-I 0 W/m 9,1 C 4,6 C 24,1 km/h (4 Bft) 100,00 %
24.05.2016 21:12 10,3 C 93 % 1012,8 hPa 0,0 l/m 18,6 km/h (3 Bft) SW 227 0 min 0,000 mm 0,0 UV-I 0 W/m 9,2 C 4,1 C 30,6 km/h (5 Bft) 100,00 %
24.05.2016 21:13 10,3 C 93 % 1012,8 hPa 0,0 l/m 22,5 km/h (4 Bft) SW 234 0 min 0,000 mm 0,0 UV-I 0 W/m 9,2 C 2,9 C 32,2 km/h (5 Bft) 100,00 %
24.05.2016 21:14 10,3 C 93 % 1012,8 hPa 0,0 l/m 15,3 km/h (3 Bft) W-SW 253 0 min 0,000 mm 0,0 UV-I 0 W/m 9,2 C 5,4 C 24,1 km/h (4 Bft) 100,00 %
24.05.2016 21:15 10,3 C 93 % 1012,8 hPa 0,0 l/m 22,6 km/h (4 Bft) W-SW 238 0 min 0,000 mm 0,0 UV-I 0 W/m 9,2 C 2,9 C 30,6 km/h (5 Bft) 100,00 %
24.05.2016 21:16 10,3 C 93 % 1012,9 hPa 0,0 l/m 17,5 km/h (3 Bft) W-SW 252 0 min 0,000 mm 0,0 UV-I 0 W/m 9,2 C 4,5 C 30,6 km/h (5 Bft) 100,00 %
24.05.2016 21:17 10,3 C 93 % 1012,9 hPa 0,0 l/m 19,6 km/h (3 Bft) W-SW 248 0 min 0,000 mm 0,0 UV-I 0 W/m 9,2 C 3,8 C 25,7 km/h (4 Bft) 100,00 %
24.05.2016 21:18 10,3 C 93 % 1012,9 hPa 0,0 l/m 17,9 km/h (3 Bft) S-SW 194 0 min 0,000 mm 0,0 UV-I 0 W/m 9,2 C 4,4 C 24,1 km/h (4 Bft) 100,00 %
24.05.2016 21:19 10,3 C 93 % 1012,9 hPa 0,0 l/m 21,0 km/h (4 Bft) SW 223 0 min 0,000 mm 0,0 UV-I 0 W/m 9,2 C 3,4 C 27,4 km/h (4 Bft) 100,00 %
24.05.2016 21:20 10,3 C 93 % 1012,9 hPa 0,0 l/m 15,8 km/h (3 Bft) SW 225 0 min 0,000 mm 0,0 UV-I 0 W/m 9,2 C 5,2 C 24,1 km/h (4 Bft) 100,00 %
24.05.2016 21:21 10,3 C 93 % 1012,9 hPa 0,0 l/m 17,6 km/h (3 Bft) SW 229 0 min 0,000 mm 0,0 UV-I 0 W/m 9,2 C 4,5 C 30,6 km/h (5 Bft) 100,00 %
24.05.2016 21:22 10,3 C 93 % 1012,9 hPa 0,0 l/m 20,1 km/h (4 Bft) SW 221 0 min 0,000 mm 0,0 UV-I 0 W/m 9,2 C 3,6 C 27,4 km/h (4 Bft) 100,00 %
24.05.2016 21:23 10,3 C 93 % 1012,9 hPa 0,0 l/m 14,7 km/h (3 Bft) SW 215 0 min 0,000 mm 0,0 UV-I 0 W/m 9,2 C 5,6 C 22,5 km/h (4 Bft) 100,00 %
24.05.2016 21:24 10,3 C 93 % 1013,0 hPa 0,0 l/m 20,0 km/h (4 Bft) SW 232 0 min 0,000 mm 0,0 UV-I 0 W/m 9,2 C 3,7 C 30,6 km/h (5 Bft) 100,00 %
24.05.2016 21:25 10,3 C 93 % 1013,0 hPa 0,0 l/m 22,8 km/h (4 Bft) W-SW 244 0 min 0,000 mm 0,0 UV-I 0 W/m 9,2 C 2,8 C 30,6 km/h (5 Bft) 100,00 %
24.05.2016 21:26 10,3 C 93 % 1012,9 hPa 0,0 l/m 21,2 km/h (4 Bft) W-SW 253 0 min 0,000 mm 0,0 UV-I 0 W/m 9,2 C 3,3 C 27,4 km/h (4 Bft) 100,00 %
24.05.2016 21:27 10,3 C 93 % 1013,0 hPa 0,0 l/m 17,4 km/h (3 Bft) W-SW 238 0 min 0,000 mm 0,0 UV-I 0 W/m 9,2 C 4,6 C 25,7 km/h (4 Bft) 100,00 %
24.05.2016 21:28 10,3 C 93 % 1013,0 hPa 0,0 l/m 17,3 km/h (3 Bft) SW 227 0 min 0,000 mm 0,0 UV-I 0 W/m 9,2 C 4,6 C 22,5 km/h (4 Bft) 100,00 %
24.05.2016 21:29 10,3 C 93 % 1013,0 hPa 0,0 l/m 25,3 km/h (4 Bft) SW 228 0 min 0,000 mm 0,0 UV-I 0 W/m 9,2 C 2,2 C 30,6 km/h (5 Bft) 100,00 %
24.05.2016 21:30 10,3 C 93 % 1012,9 hPa 0,0 l/m 18,6 km/h (3 Bft) W-SW 246 0 min 0,000 mm 0,0 UV-I 0 W/m 9,2 C 4,1 C 30,6 km/h (5 Bft) 100,00 %
24.05.2016 21:31 10,3 C 93 % 1012,9 hPa 0,0 l/m 19,9 km/h (4 Bft) W-SW 241 0 min 0,000 mm 0,0 UV-I 0 W/m 9,2 C 3,7 C 25,7 km/h (4 Bft) 98,54 %
24.05.2016 21:32 10,3 C 93 % 1012,9 hPa 0,0 l/m 20,1 km/h (4 Bft) SW 232 0 min 0,000 mm 0,0 UV-I 0 W/m 9,2 C 3,6 C 27,4 km/h (4 Bft) 100,00 %
24.05.2016 21:33 10,3 C 93 % 1012,9 hPa 0,0 l/m 16,7 km/h (3 Bft) S-SW 213 0 min 0,000 mm 0,0 UV-I 0 W/m 9,2 C 4,8 C 22,5 km/h (4 Bft) 100,00 %
24.05.2016 21:34 10,3 C 93 % 1013,0 hPa 0,0 l/m 15,8 km/h (3 Bft) W 264 0 min 0,000 mm 0,0 UV-I 0 W/m 9,2 C 5,2 C 22,5 km/h (4 Bft) 100,00 %
24.05.2016 21:35 10,4 C 93 % 1013,0 hPa 0,0 l/m 19,8 km/h (3 Bft) SW 218 0 min 0,000 mm 0,0 UV-I 0 W/m 9,3 C 3,9 C 25,7 km/h (4 Bft) 100,00 %
24.05.2016 21:36 10,3 C 93 % 1013,0 hPa 0,0 l/m 19,6 km/h (3 Bft) SW 220 0 min 0,000 mm 0,0 UV-I 0 W/m 9,2 C 3,8 C 27,4 km/h (4 Bft) 100,00 %
24.05.2016 21:37 10,4 C 93 % 1013,0 hPa 0,0 l/m 17,9 km/h (3 Bft) SW 234 0 min 0,000 mm 0,0 UV-I 0 W/m 9,3 C 4,5 C 25,7 km/h (4 Bft) 100,00 %
24.05.2016 21:38 10,3 C 92 % 1013,0 hPa 0,0 l/m 24,4 km/h (4 Bft) W-SW 244 0 min 0,000 mm 0,0 UV-I 0 W/m 9,1 C 2,4 C 33,8 km/h (5 Bft) 100,00 %
24.05.2016 21:39 10,4 C 92 % 1013,0 hPa 0,0 l/m 15,6 km/h (3 Bft) SW 232 0 min 0,000 mm 0,0 UV-I 0 W/m 9,2 C 5,4 C 20,9 km/h (4 Bft) 100,00 %
24.05.2016 21:40 10,4 C 92 % 1013,0 hPa 0,0 l/m 17,3 km/h (3 Bft) W 263 0 min 0,000 mm 0,0 UV-I 0 W/m 9,2 C 4,7 C 24,1 km/h (4 Bft) 100,00 %
24.05.2016 21:41 10,4 C 92 % 1013,1 hPa 0,0 l/m 18,1 km/h (3 Bft) W-SW 243 0 min 0,000 mm 0,0 UV-I 0 W/m 9,2 C 4,4 C 25,7 km/h (4 Bft) 100,00 %
24.05.2016 21:42 10,4 C 92 % 1013,1 hPa 0,0 l/m 23,9 km/h (4 Bft) SW 215 0 min 0,000 mm 0,0 UV-I 0 W/m 9,2 C 2,7 C 30,6 km/h (5 Bft) 100,00 %
24.05.2016 21:43 10,4 C 92 % 1013,1 hPa 0,0 l/m 18,6 km/h (3 Bft) W-SW 242 0 min 0,000 mm 0,0 UV-I 0 W/m 9,2 C 4,3 C 24,1 km/h (4 Bft) 100,00 %
24.05.2016 21:44 10,4 C 92 % 1013,1 hPa 0,0 l/m 20,2 km/h (4 Bft) S-SW 208 0 min 0,000 mm 0,0 UV-I 0 W/m 9,2 C 3,7 C 25,7 km/h (4 Bft) 100,00 %
24.05.2016 21:45 10,4 C 92 % 1013,1 hPa 0,0 l/m 17,4 km/h (3 Bft) SW 234 0 min 0,000 mm 0,0 UV-I 0 W/m 9,2 C 4,7 C 24,1 km/h (4 Bft) 100,00 %
24.05.2016 21:46 10,4 C 92 % 1013,1 hPa 0,0 l/m 22,5 km/h (4 Bft) SW 234 0 min 0,000 mm 0,0 UV-I 0 W/m 9,2 C 3,0 C 25,7 km/h (4 Bft) 100,00 %
24.05.2016 21:47 10,4 C 92 % 1013,1 hPa 0,0 l/m 15,3 km/h (3 Bft) W-SW 245 0 min 0,000 mm 0,0 UV-I 0 W/m 9,2 C 5,5 C 22,5 km/h (4 Bft) 100,00 %
24.05.2016 21:48 10,4 C 92 % 1013,1 hPa 0,0 l/m 22,1 km/h (4 Bft) SW 223 0 min 0,000 mm 0,0 UV-I 0 W/m 9,2 C 3,2 C 29,0 km/h (5 Bft) 100,00 %
24.05.2016 21:49 10,4 C 92 % 1013,1 hPa 0,0 l/m 19,8 km/h (3 Bft) SW 230 0 min 0,000 mm 0,0 UV-I 0 W/m 9,2 C 3,9 C 25,7 km/h (4 Bft) 100,00 %
24.05.2016 21:50 10,4 C 92 % 1013,1 hPa 0,0 l/m 19,7 km/h (3 Bft) S-SW 204 0 min 0,000 mm 0,0 UV-I 0 W/m 9,2 C 3,9 C 27,4 km/h (4 Bft) 100,00 %
24.05.2016 21:51 10,4 C 92 % 1013,1 hPa 0,0 l/m 20,4 km/h (4 Bft) SW 225 0 min 0,000 mm 0,0 UV-I 0 W/m 9,2 C 3,7 C 32,2 km/h (5 Bft) 100,00 %
24.05.2016 21:52 10,4 C 92 % 1013,1 hPa 0,0 l/m 19,2 km/h (3 Bft) SW 217 0 min 0,000 mm 0,0 UV-I 0 W/m 9,2 C 4,1 C 27,4 km/h (4 Bft) 100,00 %
24.05.2016 21:53 10,4 C 92 % 1013,1 hPa 0,0 l/m 17,6 km/h (3 Bft) W-SW 254 0 min 0,000 mm 0,0 UV-I 0 W/m 9,2 C 4,6 C 24,1 km/h (4 Bft) 100,00 %
24.05.2016 21:54 10,4 C 92 % 1013,0 hPa 0,0 l/m 17,5 km/h (3 Bft) SW 223 0 min 0,000 mm 0,0 UV-I 0 W/m 9,2 C 4,7 C 24,1 km/h (4 Bft) 100,00 %
24.05.2016 21:55 10,4 C 92 % 1013,1 hPa 0,0 l/m 16,2 km/h (3 Bft) SW 221 0 min 0,000 mm 0,0 UV-I 0 W/m 9,2 C 5,1 C 20,9 km/h (4 Bft) 90,91 %
24.05.2016 21:56 10,4 C 92 % 1013,0 hPa 0,0 l/m 16,3 km/h (3 Bft) S-SW 213 0 min 0,000 mm 0,0 UV-I 0 W/m 9,2 C 5,1 C 24,1 km/h (4 Bft) 100,00 %
24.05.2016 21:57 10,4 C 92 % 1013,0 hPa 0,0 l/m 22,9 km/h (4 Bft) S-SW 211 0 min 0,000 mm 0,0 UV-I 0 W/m 9,2 C 2,9 C 32,2 km/h (5 Bft) 100,00 %
24.05.2016 21:58 10,4 C 92 % 1013,0 hPa 0,0 l/m 18,2 km/h (3 Bft) SW 233 0 min 0,000 mm 0,0 UV-I 0 W/m 9,2 C 4,4 C 24,1 km/h (4 Bft) 100,00 %
24.05.2016 21:59 10,4 C 92 % 1013,0 hPa 0,0 l/m 23,0 km/h (4 Bft) W-SW 244 0 min 0,000 mm 0,0 UV-I 0 W/m 9,2 C 2,9 C 29,0 km/h (5 Bft) 95,65 %
24.05.2016 22:00 10,4 C 92 % 1013,0 hPa 0,0 l/m 26,5 km/h (4 Bft) SW 230 0 min 0,000 mm 0,0 UV-I 0 W/m 9,2 C 2,0 C 32,2 km/h (5 Bft) 100,00 %
24.05.2016 22:02 10,4 C 92 % 1013,0 hPa 0,0 l/m 19,2 km/h (3 Bft) SW 227 0 min 0,025 mm 0,0 UV-I 0 W/m 9,2 C 4,1 C 29,0 km/h (5 Bft) 96,00 %
24.05.2016 22:03 10,4 C 92 % 1013,0 hPa 0,0 l/m 24,9 km/h (4 Bft) W-SW 240 0 min 0,000 mm 0,0 UV-I 0 W/m 9,2 C 2,4 C 32,2 km/h (5 Bft) 92,31 %
24.05.2016 22:04 10,4 C 92 % 1013,0 hPa 0,0 l/m 20,8 km/h (4 Bft) SW 226 0 min 0,000 mm 0,0 UV-I 0 W/m 9,2 C 3,6 C 30,6 km/h (5 Bft) 100,00 %
24.05.2016 22:05 10,4 C 92 % 1013,1 hPa 0,0 l/m 19,6 km/h (3 Bft) SW 236 0 min 0,000 mm 0,0 UV-I 0 W/m 9,2 C 3,9 C 29,0 km/h (5 Bft) 93,33 %
24.05.2016 22:06 10,4 C 92 % 1013,0 hPa 0,0 l/m 21,3 km/h (4 Bft) SW 230 0 min 0,000 mm 0,0 UV-I 0 W/m 9,2 C 3,4 C 33,8 km/h (5 Bft) 100,00 %
24.05.2016 22:07 10,4 C 92 % 1013,0 hPa 0,0 l/m 14,8 km/h (3 Bft) W-SW 243 0 min 0,000 mm 0,0 UV-I 0 W/m 9,2 C 5,7 C 27,4 km/h (4 Bft) 92,31 %
24.05.2016 22:08 10,4 C 92 % 1013,1 hPa 0,0 l/m 21,2 km/h (4 Bft) SW 236 0 min 0,000 mm 0,0 UV-I 0 W/m 9,2 C 3,4 C 30,6 km/h (5 Bft) 100,00 %
24.05.2016 22:09 10,4 C 92 % 1013,1 hPa 0,0 l/m 18,6 km/h (3 Bft) SW 234 0 min 0,000 mm 0,0 UV-I 0 W/m 9,2 C 4,3 C 22,5 km/h (4 Bft) 96,67 %
24.05.2016 22:10 10,4 C 92 % 1013,0 hPa 0,0 l/m 15,8 km/h (3 Bft) SW 221 0 min 0,000 mm 0,0 UV-I 0 W/m 9,2 C 5,3 C 25,7 km/h (4 Bft) 96,15 %
24.05.2016 22:11 10,4 C 92 % 1013,1 hPa 0,0 l/m 20,0 km/h (4 Bft) W-SW 248 0 min 0,000 mm 0,0 UV-I 0 W/m 9,2 C 3,8 C 29,0 km/h (5 Bft) 100,00 %
24.05.2016 22:12 10,4 C 92 % 1013,0 hPa 0,0 l/m 18,7 km/h (3 Bft) W-SW 250 0 min 0,000 mm 0,0 UV-I 0 W/m 9,2 C 4,2 C 27,4 km/h (4 Bft) 90,91 %
24.05.2016 22:13 10,4 C 92 % 1013,0 hPa 0,0 l/m 17,9 km/h (3 Bft) SW 217 0 min 0,000 mm 0,0 UV-I 0 W/m 9,2 C 4,5 C 27,4 km/h (4 Bft) 100,00 %
24.05.2016 22:14 10,4 C 92 % 1013,0 hPa 0,0 l/m 20,2 km/h (4 Bft) W-SW 250 0 min 0,000 mm 0,0 UV-I 0 W/m 9,2 C 3,7 C 30,6 km/h (5 Bft) 95,65 %
24.05.2016 22:15 10,4 C 92 % 1013,0 hPa 0,0 l/m 20,5 km/h (4 Bft) SW 224 0 min 0,000 mm 0,0 UV-I 0 W/m 9,2 C 3,6 C 30,6 km/h (5 Bft) 100,00 %
24.05.2016 22:16 10,4 C 92 % 1013,0 hPa 0,0 l/m 19,9 km/h (4 Bft) W-SW 237 0 min 0,000 mm 0,0 UV-I 0 W/m 9,2 C 3,8 C 30,6 km/h (5 Bft) 96,15 %
24.05.2016 22:17 10,4 C 92 % 1013,0 hPa 0,0 l/m 20,1 km/h (4 Bft) SW 226 0 min 0,000 mm 0,0 UV-I 0 W/m 9,2 C 3,8 C 25,7 km/h (4 Bft) 100,00 %
24.05.2016 22:18 10,4 C 92 % 1013,0 hPa 0,0 l/m 17,2 km/h (3 Bft) SW 234 0 min 0,000 mm 0,0 UV-I 0 W/m 9,2 C 4,8 C 22,5 km/h (4 Bft) 96,15 %
24.05.2016 22:19 10,4 C 92 % 1013,0 hPa 0,0 l/m 17,1 km/h (3 Bft) SW 234 0 min 0,000 mm 0,0 UV-I 0 W/m 9,2 C 4,8 C 25,7 km/h (4 Bft) 96,30 %
24.05.2016 22:20 10,4 C 92 % 1013,0 hPa 0,0 l/m 19,4 km/h (3 Bft) W-SW 244 0 min 0,000 mm 0,0 UV-I 0 W/m 9,2 C 4,0 C 29,0 km/h (5 Bft) 100,00 %
24.05.2016 22:21 10,4 C 92 % 1013,0 hPa 0,0 l/m 19,7 km/h (3 Bft) SW 228 0 min 0,000 mm 0,0 UV-I 0 W/m 9,2 C 3,9 C 27,4 km/h (4 Bft) 91,67 %
24.05.2016 22:22 10,4 C 92 % 1012,9 hPa 0,0 l/m 17,5 km/h (3 Bft) SW 225 0 min 0,000 mm 0,0 UV-I 0 W/m 9,2 C 4,7 C 27,4 km/h (4 Bft) 100,00 %
24.05.2016 22:23 10,4 C 92 % 1012,9 hPa 0,0 l/m 18,7 km/h (3 Bft) SW 231 0 min 0,000 mm 0,0 UV-I 0 W/m 9,2 C 4,2 C 25,7 km/h (4 Bft) 93,33 %
24.05.2016 22:24 10,4 C 92 % 1012,9 hPa 0,0 l/m 15,3 km/h (3 Bft) SW 232 0 min 0,000 mm 0,0 UV-I 0 W/m 9,2 C 5,5 C 20,9 km/h (4 Bft) 91,30 %
24.05.2016 22:25 10,4 C 92 % 1013,0 hPa 0,0 l/m 16,3 km/h (3 Bft) SW 228 0 min 0,000 mm 0,0 UV-I 0 W/m 9,2 C 5,1 C 24,1 km/h (4 Bft) 100,00 %
24.05.2016 22:26 10,4 C 92 % 1012,9 hPa 0,0 l/m 17,3 km/h (3 Bft) W 260 0 min 0,000 mm 0,0 UV-I 0 W/m 9,2 C 4,7 C 24,1 km/h (4 Bft) 95,65 %
24.05.2016 22:27 10,4 C 92 % 1012,9 hPa 0,0 l/m 17,6 km/h (3 Bft) W-SW 250 0 min 0,000 mm 0,0 UV-I 0 W/m 9,2 C 4,6 C 27,4 km/h (4 Bft) 100,00 %
24.05.2016 22:28 10,4 C 92 % 1013,0 hPa 0,0 l/m 12,9 km/h (3 Bft) S-SW 194 0 min 0,000 mm 0,0 UV-I 0 W/m 9,2 C 6,5 C 22,5 km/h (4 Bft) 95,65 %
24.05.2016 22:29 10,4 C 92 % 1013,0 hPa 0,0 l/m 17,6 km/h (3 Bft) SW 232 0 min 0,000 mm 0,0 UV-I 0 W/m 9,2 C 4,6 C 24,1 km/h (4 Bft) 100,00 %
24.05.2016 22:30 10,4 C 92 % 1013,0 hPa 0,0 l/m 16,9 km/h (3 Bft) SW 227 0 min 0,000 mm 0,0 UV-I 0 W/m 9,2 C 4,9 C 24,1 km/h (4 Bft) 96,67 %
24.05.2016 22:31 10,4 C 92 % 1012,9 hPa 0,0 l/m 17,9 km/h (3 Bft) W-SW 250 0 min 0,000 mm 0,0 UV-I 0 W/m 9,2 C 4,5 C 20,9 km/h (4 Bft) 100,00 %
24.05.2016 22:32 10,4 C 92 % 1013,0 hPa 0,0 l/m 16,5 km/h (3 Bft) SW 230 0 min 0,000 mm 0,0 UV-I 0 W/m 9,2 C 5,0 C 24,1 km/h (4 Bft) 93,33 %
24.05.2016 22:33 10,4 C 92 % 1012,9 hPa 0,0 l/m 26,7 km/h (4 Bft) W-SW 238 0 min 0,000 mm 0,0 UV-I 0 W/m 9,2 C 2,0 C 33,8 km/h (5 Bft) 100,00 %
24.05.2016 22:34 10,4 C 92 % 1012,9 hPa 0,0 l/m 17,3 km/h (3 Bft) SW 218 0 min 0,000 mm 0,0 UV-I 0 W/m 9,2 C 4,7 C 27,4 km/h (4 Bft) 100,00 %
24.05.2016 22:35 10,4 C 92 % 1012,9 hPa 0,0 l/m 23,0 km/h (4 Bft) SW 228 0 min 0,000 mm 0,0 UV-I 0 W/m 9,2 C 2,9 C 37,0 km/h (5 Bft) 100,00 %
24.05.2016 22:36 10,4 C 92 % 1012,9 hPa 0,0 l/m 28,8 km/h (4 Bft) W-SW 240 0 min 0,000 mm 0,0 UV-I 0 W/m 9,2 C 1,5 C 40,2 km/h (6 Bft) 100,00 %
24.05.2016 22:37 10,4 C 92 % 1012,9 hPa 0,0 l/m 16,0 km/h (3 Bft) W-SW 250 0 min 0,000 mm 0,0 UV-I 0 W/m 9,2 C 5,2 C 22,5 km/h (4 Bft) 100,00 %
24.05.2016 22:38 10,4 C 92 % 1012,9 hPa 0,0 l/m 16,5 km/h (3 Bft) W 267 0 min 0,000 mm 0,0 UV-I 0 W/m 9,2 C 5,0 C 24,1 km/h (4 Bft) 100,00 %
24.05.2016 22:39 10,4 C 92 % 1012,9 hPa 0,0 l/m 21,2 km/h (4 Bft) W-SW 239 0 min 0,000 mm 0,0 UV-I 0 W/m 9,2 C 3,4 C 29,0 km/h (5 Bft) 100,00 %
24.05.2016 22:40 10,4 C 92 % 1012,9 hPa 0,0 l/m 20,4 km/h (4 Bft) SW 217 0 min 0,000 mm 0,0 UV-I 0 W/m 9,2 C 3,7 C 24,1 km/h (4 Bft) 100,00 %
24.05.2016 22:41 10,4 C 92 % 1012,9 hPa 0,0 l/m 21,9 km/h (4 Bft) W-SW 248 0 min 0,000 mm 0,0 UV-I 0 W/m 9,2 C 3,2 C 27,4 km/h (4 Bft) 95,65 %
24.05.2016 22:42 10,4 C 92 % 1012,9 hPa 0,0 l/m 19,6 km/h (3 Bft) W 267 0 min 0,000 mm 0,0 UV-I 0 W/m 9,2 C 3,9 C 25,7 km/h (4 Bft) 100,00 %
24.05.2016 22:43 10,4 C 92 % 1012,9 hPa 0,0 l/m 20,1 km/h (4 Bft) SW 217 0 min 0,000 mm 0,0 UV-I 0 W/m 9,2 C 3,8 C 25,7 km/h (4 Bft) 95,65 %
24.05.2016 22:44 10,4 C 92 % 1012,9 hPa 0,0 l/m 15,3 km/h (3 Bft) W-SW 256 0 min 0,000 mm 0,0 UV-I 0 W/m 9,2 C 5,5 C 20,9 km/h (4 Bft) 100,00 %
24.05.2016 22:45 10,4 C 92 % 1012,9 hPa 0,0 l/m 15,9 km/h (3 Bft) SW 221 0 min 0,000 mm 0,0 UV-I 0 W/m 9,2 C 5,3 C 20,9 km/h (4 Bft) 100,00 %
24.05.2016 22:46 10,4 C 92 % 1012,9 hPa 0,0 l/m 16,8 km/h (3 Bft) SW 218 0 min 0,000 mm 0,0 UV-I 0 W/m 9,2 C 4,9 C 22,5 km/h (4 Bft) 100,00 %
24.05.2016 22:47 10,4 C 92 % 1012,9 hPa 0,0 l/m 14,4 km/h (3 Bft) W-SW 237 0 min 0,000 mm 0,0 UV-I 0 W/m 9,2 C 5,9 C 20,9 km/h (4 Bft) 100,00 %
24.05.2016 22:48 10,4 C 92 % 1013,0 hPa 0,0 l/m 16,3 km/h (3 Bft) SW 223 0 min 0,000 mm 0,0 UV-I 0 W/m 9,2 C 5,1 C 24,1 km/h (4 Bft) 100,00 %
24.05.2016 22:49 10,4 C 92 % 1012,9 hPa 0,0 l/m 16,7 km/h (3 Bft) SW 232 0 min 0,000 mm 0,0 UV-I 0 W/m 9,2 C 4,9 C 22,5 km/h (4 Bft) 100,00 %
24.05.2016 22:50 10,4 C 92 % 1012,9 hPa 0,0 l/m 19,1 km/h (3 Bft) W-SW 244 0 min 0,000 mm 0,0 UV-I 0 W/m 9,2 C 4,1 C 25,7 km/h (4 Bft) 100,00 %
24.05.2016 22:51 10,4 C 92 % 1012,9 hPa 0,0 l/m 18,9 km/h (3 Bft) SW 223 0 min 0,000 mm 0,0 UV-I 0 W/m 9,2 C 4,2 C 24,1 km/h (4 Bft) 100,00 %
24.05.2016 22:52 10,4 C 92 % 1012,9 hPa 0,0 l/m 16,2 km/h (3 Bft) W 263 0 min 0,000 mm 0,0 UV-I 0 W/m 9,2 C 5,1 C 24,1 km/h (4 Bft) 100,00 %
24.05.2016 22:53 10,4 C 92 % 1012,9 hPa 0,0 l/m 20,6 km/h (4 Bft) W-SW 245 0 min 0,000 mm 0,0 UV-I 0 W/m 9,2 C 3,6 C 24,1 km/h (4 Bft) 96,30 %
24.05.2016 22:54 10,4 C 92 % 1013,0 hPa 0,0 l/m 18,6 km/h (3 Bft) SW 236 0 min 0,000 mm 0,0 UV-I 0 W/m 9,2 C 4,3 C 25,7 km/h (4 Bft) 100,00 %
24.05.2016 22:55 10,4 C 92 % 1012,9 hPa 0,0 l/m 18,8 km/h (3 Bft) SW 229 0 min 0,000 mm 0,0 UV-I 0 W/m 9,2 C 4,2 C 27,4 km/h (4 Bft) 100,00 %
24.05.2016 22:56 10,4 C 92 % 1012,9 hPa 0,0 l/m 16,8 km/h (3 Bft) W 265 0 min 0,000 mm 0,0 UV-I 0 W/m 9,2 C 4,9 C 27,4 km/h (4 Bft) 100,00 %
24.05.2016 22:57 10,4 C 92 % 1013,0 hPa 0,0 l/m 11,9 km/h (2 Bft) W-SW 237 0 min 0,000 mm 0,0 UV-I 0 W/m 9,2 C 7,0 C 19,3 km/h (3 Bft) 100,00 %
24.05.2016 22:58 10,4 C 92 % 1013,0 hPa 0,0 l/m 13,7 km/h (3 Bft) W-SW 258 0 min 0,000 mm 0,0 UV-I 0 W/m 9,2 C 6,2 C 24,1 km/h (4 Bft) 100,00 %
24.05.2016 22:59 10,4 C 92 % 1013,0 hPa 0,0 l/m 17,5 km/h (3 Bft) W-SW 239 0 min 0,000 mm 0,0 UV-I 0 W/m 9,2 C 4,7 C 25,7 km/h (4 Bft) 98,54 %
24.05.2016 23:00 10,4 C 92 % 1013,0 hPa 0,0 l/m 13,9 km/h (3 Bft) S-SO 154 0 min 0,000 mm 0,0 UV-I 0 W/m 9,2 C 6,1 C 19,3 km/h (3 Bft) 100,00 %
24.05.2016 23:02 10,4 C 92 % 1013,0 hPa 0,0 l/m 16,5 km/h (3 Bft) S-SW 209 0 min 0,025 mm 0,0 UV-I 0 W/m 9,2 C 5,0 C 27,4 km/h (4 Bft) 100,00 %
24.05.2016 23:03 10,4 C 92 % 1013,0 hPa 0,0 l/m 16,7 km/h (3 Bft) W-SW 258 0 min 0,000 mm 0,0 UV-I 0 W/m 9,2 C 4,9 C 27,4 km/h (4 Bft) 100,00 %
24.05.2016 23:04 10,4 C 92 % 1013,0 hPa 0,0 l/m 19,2 km/h (3 Bft) SW 232 0 min 0,000 mm 0,0 UV-I 0 W/m 9,2 C 4,1 C 27,4 km/h (4 Bft) 100,00 %
24.05.2016 23:05 10,4 C 92 % 1013,0 hPa 0,0 l/m 18,7 km/h (3 Bft) W 270 0 min 0,000 mm 0,0 UV-I 0 W/m 9,2 C 4,2 C 25,7 km/h (4 Bft) 100,00 %
24.05.2016 23:06 10,4 C 92 % 1013,0 hPa 0,0 l/m 16,7 km/h (3 Bft) W-SW 239 0 min 0,000 mm 0,0 UV-I 0 W/m 9,2 C 4,9 C 20,9 km/h (4 Bft) 100,00 %
24.05.2016 23:07 10,4 C 92 % 1012,9 hPa 0,0 l/m 17,2 km/h (3 Bft) SW 223 0 min 0,000 mm 0,0 UV-I 0 W/m 9,2 C 4,8 C 24,1 km/h (4 Bft) 96,15 %
24.05.2016 23:08 10,4 C 92 % 1012,9 hPa 0,0 l/m 15,1 km/h (3 Bft) SW 217 0 min 0,000 mm 0,0 UV-I 0 W/m 9,2 C 5,6 C 22,5 km/h (4 Bft) 100,00 %
24.05.2016 23:09 10,4 C 92 % 1012,9 hPa 0,0 l/m 19,9 km/h (4 Bft) W-SW 238 0 min 0,000 mm 0,0 UV-I 0 W/m 9,2 C 3,8 C 25,7 km/h (4 Bft) 100,00 %
24.05.2016 23:10 10,4 C 92 % 1012,9 hPa 0,0 l/m 18,3 km/h (3 Bft) S-SW 210 0 min 0,000 mm 0,0 UV-I 0 W/m 9,2 C 4,4 C 25,7 km/h (4 Bft) 100,00 %
24.05.2016 23:11 10,4 C 92 % 1012,9 hPa 0,0 l/m 19,5 km/h (3 Bft) W-SW 238 0 min 0,000 mm 0,0 UV-I 0 W/m 9,2 C 4,0 C 24,1 km/h (4 Bft) 100,00 %
24.05.2016 23:12 10,4 C 92 % 1013,0 hPa 0,0 l/m 20,5 km/h (4 Bft) W 273 0 min 0,000 mm 0,0 UV-I 0 W/m 9,2 C 3,6 C 25,7 km/h (4 Bft) 100,00 %
24.05.2016 23:13 10,4 C 92 % 1013,0 hPa 0,0 l/m 14,8 km/h (3 Bft) W-SW 237 0 min 0,000 mm 0,0 UV-I 0 W/m 9,2 C 5,7 C 20,9 km/h (4 Bft) 100,00 %
24.05.2016 23:14 10,4 C 92 % 1013,0 hPa 0,0 l/m 12,3 km/h (3 Bft) W-SW 248 0 min 0,000 mm 0,0 UV-I 0 W/m 9,2 C 6,8 C 19,3 km/h (3 Bft) 100,00 %
24.05.2016 23:15 10,4 C 92 % 1012,9 hPa 0,0 l/m 20,8 km/h (4 Bft) W-SW 257 0 min 0,000 mm 0,0 UV-I 0 W/m 9,2 C 3,6 C 33,8 km/h (5 Bft) 100,00 %
24.05.2016 23:16 10,4 C 92 % 1013,0 hPa 0,0 l/m 21,2 km/h (4 Bft) W-SW 249 0 min 0,000 mm 0,0 UV-I 0 W/m 9,2 C 3,4 C 27,4 km/h (4 Bft) 100,00 %
24.05.2016 23:17 10,4 C 92 % 1013,0 hPa 0,0 l/m 22,1 km/h (4 Bft) SW 229 0 min 0,000 mm 0,0 UV-I 0 W/m 9,2 C 3,2 C 33,8 km/h (5 Bft) 92,86 %
24.05.2016 23:18 10,4 C 92 % 1013,0 hPa 0,0 l/m 23,2 km/h (4 Bft) S-SW 213 0 min 0,000 mm 0,0 UV-I 0 W/m 9,2 C 2,9 C 30,6 km/h (5 Bft) 100,00 %
24.05.2016 23:19 10,4 C 92 % 1012,9 hPa 0,0 l/m 22,3 km/h (4 Bft) SW 233 0 min 0,000 mm 0,0 UV-I 0 W/m 9,2 C 3,1 C 30,6 km/h (5 Bft) 100,00 %
24.05.2016 23:20 10,4 C 92 % 1013,0 hPa 0,0 l/m 21,8 km/h (4 Bft) SW 215 0 min 0,000 mm 0,0 UV-I 0 W/m 9,2 C 3,3 C 32,2 km/h (5 Bft) 96,67 %
24.05.2016 23:21 10,5 C 92 % 1012,9 hPa 0,0 l/m 24,6 km/h (4 Bft) SW 219 0 min 0,000 mm 0,0 UV-I 0 W/m 9,3 C 2,6 C 37,0 km/h (5 Bft) 100,00 %
24.05.2016 23:22 10,5 C 91 % 1012,9 hPa 0,0 l/m 19,6 km/h (3 Bft) SW 215 0 min 0,000 mm 0,0 UV-I 0 W/m 9,1 C 4,1 C 24,1 km/h (4 Bft) 100,00 %
24.05.2016 23:23 10,5 C 91 % 1013,0 hPa 0,0 l/m 14,4 km/h (3 Bft) W-SW 240 0 min 0,000 mm 0,0 UV-I 0 W/m 9,1 C 6,0 C 19,3 km/h (3 Bft) 100,00 %
24.05.2016 23:24 10,5 C 91 % 1012,9 hPa 0,0 l/m 18,7 km/h (3 Bft) SW 232 0 min 0,000 mm 0,0 UV-I 0 W/m 9,1 C 4,4 C 24,1 km/h (4 Bft) 100,00 %
24.05.2016 23:25 10,5 C 91 % 1013,0 hPa 0,0 l/m 20,4 km/h (4 Bft) SW 236 0 min 0,000 mm 0,0 UV-I 0 W/m 9,1 C 3,8 C 32,2 km/h (5 Bft) 100,00 %
24.05.2016 23:26 10,5 C 91 % 1013,0 hPa 0,0 l/m 21,3 km/h (4 Bft) S-SW 211 0 min 0,000 mm 0,0 UV-I 0 W/m 9,1 C 3,5 C 27,4 km/h (4 Bft) 100,00 %
24.05.2016 23:27 10,6 C 91 % 1012,9 hPa 0,0 l/m 21,9 km/h (4 Bft) SW 219 0 min 0,000 mm 0,0 UV-I 0 W/m 9,2 C 3,5 C 25,7 km/h (4 Bft) 100,00 %
24.05.2016 23:28 10,5 C 91 % 1012,9 hPa 0,0 l/m 19,6 km/h (3 Bft) SW 228 0 min 0,000 mm 0,0 UV-I 0 W/m 9,1 C 4,1 C 30,6 km/h (5 Bft) 100,00 %
24.05.2016 23:29 10,5 C 91 % 1013,0 hPa 0,0 l/m 21,1 km/h (4 Bft) SW 230 0 min 0,000 mm 0,0 UV-I 0 W/m 9,1 C 3,6 C 25,7 km/h (4 Bft) 100,00 %
24.05.2016 23:30 10,5 C 91 % 1012,9 hPa 0,0 l/m 17,2 km/h (3 Bft) W-SW 240 0 min 0,000 mm 0,0 UV-I 0 W/m 9,1 C 4,9 C 25,7 km/h (4 Bft) 100,00 %
24.05.2016 23:31 10,5 C 92 % 1013,0 hPa 0,0 l/m 18,6 km/h (3 Bft) S-SW 207 0 min 0,000 mm 0,0 UV-I 0 W/m 9,3 C 4,4 C 27,4 km/h (4 Bft) 100,00 %
24.05.2016 23:32 10,5 C 92 % 1013,0 hPa 0,0 l/m 20,9 km/h (4 Bft) W-SW 246 0 min 0,000 mm 0,0 UV-I 0 W/m 9,3 C 3,7 C 25,7 km/h (4 Bft) 100,00 %
24.05.2016 23:33 10,5 C 92 % 1012,9 hPa 0,0 l/m 21,8 km/h (4 Bft) W-SW 250 0 min 0,000 mm 0,0 UV-I 0 W/m 9,3 C 3,4 C 30,6 km/h (5 Bft) 100,00 %
24.05.2016 23:34 10,5 C 92 % 1013,0 hPa 0,0 l/m 17,1 km/h (3 Bft) S-SW 213 0 min 0,000 mm 0,0 UV-I 0 W/m 9,3 C 4,9 C 25,7 km/h (4 Bft) 100,00 %
24.05.2016 23:35 10,5 C 92 % 1013,0 hPa 0,0 l/m 16,9 km/h (3 Bft) S-SW 205 0 min 0,000 mm 0,0 UV-I 0 W/m 9,3 C 5,0 C 22,5 km/h (4 Bft) 100,00 %
24.05.2016 23:36 10,5 C 92 % 1013,0 hPa 0,0 l/m 21,9 km/h (4 Bft) SW 232 0 min 0,000 mm 0,0 UV-I 0 W/m 9,3 C 3,4 C 33,8 km/h (5 Bft) 100,00 %
24.05.2016 23:37 10,5 C 92 % 1013,0 hPa 0,0 l/m 19,0 km/h (3 Bft) S-SW 209 0 min 0,000 mm 0,0 UV-I 0 W/m 9,3 C 4,3 C 24,1 km/h (4 Bft) 100,00 %
24.05.2016 23:38 10,5 C 92 % 1013,0 hPa 0,0 l/m 18,5 km/h (3 Bft) W-SW 238 0 min 0,000 mm 0,0 UV-I 0 W/m 9,3 C 4,4 C 25,7 km/h (4 Bft) 100,00 %
24.05.2016 23:39 10,5 C 92 % 1013,0 hPa 0,0 l/m 15,1 km/h (3 Bft) W-SW 239 0 min 0,000 mm 0,0 UV-I 0 W/m 9,3 C 5,7 C 22,5 km/h (4 Bft) 100,00 %
24.05.2016 23:40 10,5 C 92 % 1013,1 hPa 0,0 l/m 15,9 km/h (3 Bft) W 276 0 min 0,000 mm 0,0 UV-I 0 W/m 9,3 C 5,4 C 20,9 km/h (4 Bft) 100,00 %
24.05.2016 23:41 10,5 C 92 % 1013,1 hPa 0,0 l/m 18,4 km/h (3 Bft) W-SW 245 0 min 0,000 mm 0,0 UV-I 0 W/m 9,3 C 4,5 C 29,0 km/h (5 Bft) 100,00 %
24.05.2016 23:42 10,5 C 92 % 1013,1 hPa 0,0 l/m 22,3 km/h (4 Bft) W-SW 242 0 min 0,000 mm 0,0 UV-I 0 W/m 9,3 C 3,2 C 29,0 km/h (5 Bft) 100,00 %
24.05.2016 23:43 10,5 C 92 % 1013,1 hPa 0,0 l/m 20,7 km/h (4 Bft) SW 223 0 min 0,000 mm 0,0 UV-I 0 W/m 9,3 C 3,7 C 32,2 km/h (5 Bft) 100,00 %
24.05.2016 23:44 10,5 C 92 % 1013,1 hPa 0,0 l/m 17,2 km/h (3 Bft) W-SW 248 0 min 0,000 mm 0,0 UV-I 0 W/m 9,3 C 4,9 C 27,4 km/h (4 Bft) 100,00 %
24.05.2016 23:45 10,4 C 92 % 1013,0 hPa 0,0 l/m 20,8 km/h (4 Bft) W-SW 240 0 min 0,000 mm 0,0 UV-I 0 W/m 9,2 C 3,6 C 27,4 km/h (4 Bft) 100,00 %
24.05.2016 23:46 10,4 C 92 % 1013,0 hPa 0,0 l/m 16,8 km/h (3 Bft) W-SW 242 0 min 0,000 mm 0,0 UV-I 0 W/m 9,2 C 4,9 C 22,5 km/h (4 Bft) 100,00 %
24.05.2016 23:47 10,4 C 92 % 1013,0 hPa 0,0 l/m 20,8 km/h (4 Bft) SW 235 0 min 0,000 mm 0,0 UV-I 0 W/m 9,2 C 3,6 C 25,7 km/h (4 Bft) 100,00 %
24.05.2016 23:48 10,4 C 92 % 1013,0 hPa 0,0 l/m 16,1 km/h (3 Bft) S-SW 192 0 min 0,000 mm 0,0 UV-I 0 W/m 9,2 C 5,2 C 22,5 km/h (4 Bft) 96,30 %
24.05.2016 23:49 10,4 C 92 % 1012,9 hPa 0,0 l/m 14,7 km/h (3 Bft) W-SW 257 0 min 0,000 mm 0,0 UV-I 0 W/m 9,2 C 5,7 C 22,5 km/h (4 Bft) 100,00 %
24.05.2016 23:50 10,4 C 92 % 1013,0 hPa 0,0 l/m 23,8 km/h (4 Bft) S-SW 211 0 min 0,000 mm 0,0 UV-I 0 W/m 9,2 C 2,7 C 30,6 km/h (5 Bft) 100,00 %
24.05.2016 23:51 10,4 C 92 % 1012,9 hPa 0,0 l/m 18,2 km/h (3 Bft) W-SW 252 0 min 0,000 mm 0,0 UV-I 0 W/m 9,2 C 4,4 C 24,1 km/h (4 Bft) 100,00 %
24.05.2016 23:52 10,4 C 92 % 1012,9 hPa 0,0 l/m 19,7 km/h (3 Bft) W 272 0 min 0,000 mm 0,0 UV-I 0 W/m 9,2 C 3,9 C 29,0 km/h (5 Bft) 100,00 %
24.05.2016 23:53 10,4 C 92 % 1012,9 hPa 0,0 l/m 22,1 km/h (4 Bft) W-SW 252 0 min 0,000 mm 0,0 UV-I 0 W/m 9,2 C 3,2 C 29,0 km/h (5 Bft) 100,00 %
24.05.2016 23:54 10,4 C 92 % 1013,0 hPa 0,0 l/m 19,5 km/h (3 Bft) SW 216 0 min 0,000 mm 0,0 UV-I 0 W/m 9,2 C 4,0 C 30,6 km/h (5 Bft) 100,00 %
24.05.2016 23:55 10,4 C 92 % 1012,9 hPa 0,0 l/m 12,2 km/h (2 Bft) W 259 0 min 0,000 mm 0,0 UV-I 0 W/m 9,2 C 6,9 C 19,3 km/h (3 Bft) 100,00 %
24.05.2016 23:56 10,4 C 92 % 1013,0 hPa 0,0 l/m 20,3 km/h (4 Bft) W-SW 241 0 min 0,000 mm 0,0 UV-I 0 W/m 9,2 C 3,7 C 32,2 km/h (5 Bft) 100,00 %
24.05.2016 23:57 10,4 C 92 % 1012,9 hPa 0,0 l/m 26,0 km/h (4 Bft) W-SW 241 0 min 0,000 mm 0,0 UV-I 0 W/m 9,2 C 2,1 C 32,2 km/h (5 Bft) 100,00 %
24.05.2016 23:58 10,4 C 92 % 1013,0 hPa 0,0 l/m 17,0 km/h (3 Bft) W 275 0 min 0,000 mm 0,0 UV-I 0 W/m 9,2 C 4,8 C 24,1 km/h (4 Bft) 100,00 %
24.05.2016 23:59 10,4 C 92 % 1013,0 hPa 0,0 l/m 19,5 km/h (3 Bft) SW 233 0 min 0,000 mm 0,0 UV-I 0 W/m 9,2 C 4,0 C 29,0 km/h (5 Bft) 100,00 %
_ Min-Zeit 01:43 00:00 04:42 - 01:00 - - - - - - 00:00 17:42 00:56 00:07
Minimum _ 7,8 C 90 % 1008,9 hPa - 4,6 km/h (1 Bft) - - - - - - 6,8 C 0,8 C 6,4 km/h (2 Bft) 83,33 %
_ Max-Zeit 14:05 05:43 21:41 00:43 17:42 - - 00:00 14:02 14:07 13:55 16:41 10:23 17:32 00:04
Maximum _ 10,7 C 96 % 1013,1 hPa 0,2 l/m 31,6 km/h
W-SW (5 Bft)
- - 0 min 0,101 mm 1,4 UV-I 204 W/m 9,7 C 9,4 C 43,5 km/h
W-SW (6 Bft)
100,00 %
Durchschnitt _ 9,4 C 94 % 1010,6 hPa #13,8 l/m 15,6 km/h (3 Bft) SW - #0 min. #0,660 mm 0,8 UV-I 68 W/m 8,5 C 4,5 C 22,3 km/h (4 Bft) 98,57 %